     2              OBSERVATION DATA    GPS                 RINEX VERSION / TYPE
teqc 1997Jul24 19970814                                     PGM / RUN BY / DATE
                                                            COMMENT
BIT 2 OF LLI FLAGS DATA COLLECTED UNDER A-S CONDITION       COMMENT
BIT 2 OF LLI FLAGS DATA COLLECTED UNDER A-S CONDITION       COMMENT
Original Marker Name: 0513                                  COMMENT
Campaign Name: HPGN 1991                                    COMMENT
4-Character Station Name: 0513                              COMMENT
6-Character Antenna Code: TRMSST                            COMMENT
Vertical Measurement Point: BPA                             COMMENT
Vertical Offset to Rinex Ref. Point: 0.0000                 COMMENT
Radial Measurement Point: RRP                               COMMENT
Radial Offset to Rinex Ref. Point: 0.0000                   COMMENT
Antenna Height from Field Measurement: 2.2200 m             COMMENT
Original XYZ: -2692018.0895 -4350197.5752 3796325.5021      COMMENT
New XYZ position is based on association with SCEC monument COMMENT
E1F6K1S2+0011. Position of that monument is believed to be  COMMENT
valid to within 1 m horizontally; vertical accuracy         COMMENT
should be no worse than 3-times this value.                 COMMENT
                                                            COMMENT
Revised Rinex header created by UCSD GPS archive for        COMMENT
GSAC on 19-Apr-1999 (1999:109) 06:42:24 GMT                 COMMENT
For assistance contact dagnew@ucsd.edu or hjohnson@ucsd.edu COMMENT
                                                            COMMENT
HPGN CALIF STA 05-13 1990                                   MARKER NAME
unknown NATIONAL GEODETIC SURVEY                            OBSERVER / AGENCY
485 TRIMBLE 4000 SST NP 4.30 / SP 4.20                      REC # / TYPE / VERS
16 TR 4000SST L1/L2 GEO                                     ANT # / TYPE
 -2692019.0000 -4350193.0000  3796316.0000                  APPROX POSITION XYZ
        2.2200        0.0000        0.0000                  ANTENNA: DELTA H/E/N
     1     1     0                                          WAVELENGTH FACT L1/2
     3    C1    L1    L2                                    # / TYPES OF OBSERV
     0                                                      INTERVAL
  1991     5    14    18    18   45.000000                  TIME OF FIRST OBS
  1991     5    15     0    19   60.000000                  TIME OF LAST OBS
     0                                                      # OF SATELLITES
                                                            END OF HEADER
 91  5 14 18 18 45.0000000  0  4G18G11G19G 2
  20493392.430          -0.97817        -0.19833
  24217031.0474         -0.78055        -0.22571
  20606621.805          -0.53617        -0.46932
  24001062.5944         -0.56055
 91  5 14 18 19  0.0000000  0  4G18G11G19G 2
  20495633.773       11781.210 7      9180.67623
  24208945.0084     -42499.04945    -33115.61161
  20605227.578       -7341.720 7     -5720.89122
  23990523.109      -55360.592 5        -0.13431
 91  5 14 18 19 15.0000000  0  4G18G11G19G 2
  20497883.672       23603.353 7     18392.69323
  24200862.9304     -84994.30945    -66228.62161
  20603827.602      -14697.274 7    -11452.50722
  23979984.781     -110752.272 5    -43162.39421
 91  5 14 18 19 30.0000000  0  4G18G11G19G 2
  20500142.3524      35473.58647     27642.18663
  24192775.2504    -127478.13045    -99332.75461
  20602427.617      -22059.057 7    -17188.97722
  23969438.8524    -166167.16545    -86342.76261
 91  5 14 18 19 45.0000000  0  4G18G11G19G 2
  20502411.219       47400.729 7     36936.02023
  24184695.570     -169941.187 5   -132420.67821
  20601025.609      -29418.337 7    -22923.50022
  23958890.3284    -221596.20445   -129534.15361
 91  5 14 18 20  0.0000000  0  4G18G11G19G 2
  20504694.5634      59402.41247     46287.93963
  24176624.0554    -212365.49245   -165478.43761
  20599629.594      -36757.594 7    -28642.41622
  23948341.234     -277021.555 5   -172722.63921
 91  5 14 18 20 15.0000000  0  4G18G11G19G 2
  20506992.789       71474.026 7     55694.34623
  24168557.969     -254754.966 5   -198509.02621
  20598236.711      -44081.094 7    -34349.06322
  23937796.4774    -332447.36045   -215911.52961
 91  5 14 18 20 30.0000000  0  4G18G11G19G 2
  20509302.9534      83615.70747     65155.36063
  24160496.3524    -297109.00745   -231512.01061
  20596847.852      -51388.927 7    -40043.49422
  23927250.727     -387873.302 5   -259100.47921
 91  5 14 18 20 44.9990000  0  4G18G11G19G 2
  20511631.745       95843.236 7     74683.25923
  24152443.3864    -339407.94545   -264472.07861
  20595458.620      -58664.095 7    -45712.47222
  23916703.065     -443279.104 5   -302273.79121
 91  5 14 18 20 59.9990000  0  4G18G11G19G 2
  20513974.4644     108153.75947     84275.83963
  24144405.612     -381661.884 5   -297397.01021
  20594080.7694     -65912.48847    -51360.58862
  23906162.495     -498676.610 5   -345440.62721
 91  5 14 18 21 14.9990000  0  4G18G11G19G 2
  20516333.487      120553.627 7     93938.03223
  24136371.745     -423859.895 5   -330278.42621
  20592706.972      -73125.858 7    -56981.41422
  23895628.151     -554054.472 5   -388592.14621
 91  5 14 18 21 29.9990000  0  4G18G11G19G 2
  20518706.909      133032.434 7    103661.73523
  24128353.433     -466012.458 5   -363124.41321
  20591345.026      -80315.099 7    -62583.43322
  23885085.558     -609423.102 5   -431736.46021
 91  5 14 18 21 44.9990000  0  4G18G11G19G 2
  20521097.495      145589.339 7    113446.29823
  24120339.823     -508119.647 5   -395935.06421
  20589977.519      -87480.662 7    -68167.00822
  23874550.987     -664782.941 5   -474873.95521
 91  5 14 18 21 59.9990000  0  4G18G11G19G 2
  20523502.4954     158220.62247    123288.81163
  24112338.347     -550184.862 5   -428713.00321
  20588619.730      -94626.615 7    -73735.29522
  23864022.190     -720137.442 5   -518007.29721
 91  5 14 18 22 14.9990000  0  4G18G11G19G 2
  20525919.690      170934.316 7    133195.54423
  24104342.0504    -592199.61645   -461451.60061
  20587261.487     -101744.781 7    -79281.93622
  23853490.1284    -775478.33845   -561130.03661
 91  5 14 18 22 29.9990000  0  4G18G11G19G 2
  20528356.878      183733.950 7    143169.23923
  24096354.8314    -634160.00845   -494147.82361
  20585913.870     -108831.870 7    -84804.35922
  23842961.4174    -830801.74845   -604239.14761
 91  5 14 18 22 44.9990000  0  4G18G11G19G 2
  20530805.0344     196607.05247    153200.19163
  24088378.8624    -676078.08445   -526811.10161
  20584568.792     -115900.409 7    -90312.33222
  23832434.284     -886120.128 5   -647344.35121
 91  5 14 18 22 59.9990000  0  4G18G11G19G 2
  20533272.417      209565.560 7    163297.68123
  24080410.542     -717941.678 5   -559431.93921
  20583230.597     -122938.523 7    -95796.59722
  23821911.1594    -941421.51945   -690436.31861
 91  5 14 18 23 14.9990000  0  4G18G11G19G 2
  20535751.792      222603.665 7    173457.20223
  24072452.964     -759756.116 5   -592014.45821
  20581895.495     -129951.862 7   -101261.55622
  23811391.894     -996711.273 5   -733519.21921
 91  5 14 18 23 29.9990000  0  4G18G11G19G 2
  20538249.8784     235726.94647    183683.09763
  24064511.737     -801515.126 5   -624553.79221
  20580567.737     -136934.812 7   -106702.83922
  23800870.6674   -1051983.49545   -776588.49061
 91  5 14 18 23 44.9990000  0  4G18G11G19G 2
  20540761.3554     248929.79747    193970.99463
  24056572.222     -843223.987 5   -657054.04121
  20579241.644     -143893.101 7   -112124.89622
  23790356.2534   -1107243.80645   -819648.47061
 91  5 14 18 23 59.9990000  0  4G18G11G19G 2
  20543289.9954     262217.43847    204324.96363
  24048647.2454    -884877.17145   -689510.88961
  20577923.886     -150821.581 7   -117523.73522
  23779843.6284   -1162486.91345   -862695.02561
 91  5 14 18 24 14.9990000  0  4G18G11G19G 2
  20545836.5424     275591.99947    214746.66263
  24040729.276     -926471.856 5   -721922.17921
  20576611.026     -157717.889 7   -122897.49822
  23769336.495    -1217710.040 5   -905726.05821
 91  5 14 18 24 29.9990000  0  4G18G11G19G 2
  20548397.5264     289056.51847    225238.45763
  24032827.026     -968004.783 5   -754285.31721
  20575310.698     -164579.212 7   -128244.00622
  23758831.5424   -1272910.19245   -948739.16061
 91  5 14 18 24 44.9990000  0  4G18G11G19G 2
  20550978.1364     302603.14847    235794.23363
  24024935.308    -1009483.745 5   -786606.43721
  20574006.073     -171413.678 7   -133569.57722
  23748334.8154   -1328095.24045   -991740.50761
 91  5 14 18 24 59.9990000  0  4G18G11G19G 2
  20553569.8084     316231.82647    246413.94063
  24017050.1284   -1050907.90445   -818884.88261
  20572711.042     -178220.835 7   -138873.87522
  23737830.2844   -1383264.47145  -1034729.53461
 91  5 14 18 25 14.9990000  0  4G18G11G19G 2
  20556181.0654     329953.07847    257105.78263
  24009179.323    -1092266.421 5   -851112.16021
  20571423.089     -184990.408 7   -144148.88422
  23727335.2454   -1438407.38945  -1077698.06561
 91  5 14 18 25 29.9990000  0  4G18G11G19G 2
  20558808.2844     343763.54447    267867.15063
  24001321.3624   -1133562.24745   -883290.57961
  20570143.323     -191725.708 7   -149397.18322
  23716849.948    -1493527.061 5  -1120648.47321
 91  5 14 18 25 44.9990000  0  5G18G11G19G 2G16
  20561451.0344     357646.23947    278684.79663
  23993476.558    -1174811.844 5   -915432.96621
  20568861.7454    -198443.70747   -154631.99662
  23706362.253    -1548640.296 5  -1163593.86521
  24146395.2694         -0.18255
 91  5 14 18 25 59.9990000  0  5G18G11G19G 2G16
  20564109.5504     371619.26447    289572.83063
  23985630.042    -1215996.782 5   -947524.99121
  20567593.198     -205126.479 7   -159839.36622
  23695879.5584   -1603728.76645  -1206520.00661
  24138653.964      -40669.422 5
 91  5 14 18 26 14.9990000  0  5G18G11G19G 2G16
  20566786.7694     385685.47147    300533.47663
  23977805.222    -1257113.838 5   -979564.10521
  20566325.6594    -211771.16847   -165017.04962
  23685399.222    -1658789.445 5  -1249424.45621
  24130936.4724     -81247.46545        -0.45071
 91  5 14 18 26 29.9990000  0  5G18G11G19G 2G16
  20569480.4804     399842.67447    311565.02463
  23969999.1594   -1298164.86445  -1011551.76261
  20565071.159     -218380.125 7   -170166.90322
  23674930.4174   -1713824.30045  -1292308.80461
  24123229.972     -121736.257 5    -31550.19421
 91  5 14 18 26 44.9990000  0  5G18G11G19G 2G16
  20572189.8154     414084.14647    322662.24563
  23962197.0034   -1339155.67145  -1043492.52261
  20563814.081     -224959.773 7   -175293.91022
  23664459.4014   -1768839.50445  -1335177.84361
  24115536.198     -162142.029 5    -63035.25021
 91  5 14 18 26 59.9990000  0  5G18G11G19G 2G16
  20574915.2144     428402.46947    333819.33963
  23954409.636    -1380093.620 5  -1075392.10021
  20562569.7844    -231517.65347   -180403.95662
  23653994.558    -1823842.362 5  -1378037.26021
  24107863.9254    -202471.86745    -94461.12461
 91  5 14 18 27 14.9990000  0  5G18G11G19G 2G16
  20577657.269      442803.433 7    345040.82523
  23946629.1284   -1420972.66745  -1107245.75861
  20561325.558     -238047.979 7   -185492.53222
  23643531.065    -1878827.145 5  -1420882.60421
  24100207.964     -242719.939 5   -125823.28121
 91  5 14 18 27 29.9990000  0  5G18G11G19G 2G16
  20580413.7614     457292.74847    356331.16663
  23938858.597    -1461786.471 5  -1139048.63121
  20560090.6984    -244545.20247   -190555.31062
  23633071.8474   -1933787.92946  -1463709.25661
  24092566.6594    -282879.99745   -157116.87561
 91  5 14 18 27 44.9990000  0  5G18G11G19G 2G16
  20583191.2064     471891.99847    367707.16063
  23931111.2224   -1502513.30345  -1170783.68061
  20558862.3084    -250987.89947   -195575.60462
  23622621.120    -1988702.979 6  -1506500.27321
  24084946.042     -322930.801 5   -188325.29921
 91  5 14 18 27 59.9990000  0  5G18G11G19G 2G16
  20585988.6444     486591.88847    379161.58063
  23923378.253    -1543161.536 5  -1202457.50021
  20557645.9334    -257385.07447   -200560.42262
  23612178.620    -2043580.953 6  -1549262.41321
  24077344.6594    -362880.66145   -219455.10161
 91  5 14 18 28 14.9990000  0  5G18G11G19G 2G16
  20588802.433      501373.583 7    390679.73823
  23915651.7844   -1583749.88845  -1234084.64161
  20556433.0894    -263755.75147   -205524.59762
  23601738.995    -2098440.820 6  -1592010.43421
  24069748.8004    -402748.27845   -250520.80161
 91  5 14 18 28 29.9990000  0  5G18G11G19G 2G16
  20591631.230      516242.768 7    402266.07523
  23907942.1204   -1624272.12545  -1265660.28361
  20555228.855     -270094.048 7   -210463.54222
  23591302.995    -2153276.285 5  -1634739.46321
  24062182.097     -442527.772 5   -281517.84221
 91  5 14 18 28 44.9990000  0  5G18G11G19G 2G16
  20594476.776      531193.610 7    413916.03723
  23900241.972    -1664733.571 5  -1297188.56621
  20554025.167     -276405.632 7   -215381.67022
  23580871.9254   -2208093.16745  -1677454.00261
  24054629.6594    -482224.30745   -312450.24161
 91  5 14 18 28 59.9990000  0  5G18G11G19G 2G16
  20597338.0194     546226.46847    425629.91463
  23892552.5584   -1705133.50345  -1328668.91861
  20552833.8864    -282690.10147   -220278.66562
  23570444.5344   -2262890.79145  -1720153.53561
  24047091.933     -521837.487 5   -343317.68821
 91  5 14 18 29 14.9990000  0  5G18G11G19G 2G16
  20600213.659      561347.642 7    437412.59723
  23884879.5894   -1745465.42445  -1360096.27861
  20551641.542     -288941.350 7   -225149.78822
  23560022.940    -2317662.660 5  -1762833.01321
  24039574.0504    -561360.80445   -374115.10661
 91  5 14 18 29 29.9990000  0  5G18G11G19G 2G16
  20603109.565      576551.866 7    449259.99923
  23877215.667    -1785734.104 5  -1391474.33321
  20550458.237     -295164.672 7   -229999.14722
  23549602.8864   -2372413.92245  -1805496.42561
  24032069.315     -600799.312 5   -404846.43121
 91  5 14 18 29 44.9990000  0  5G18G11G19G 2G16
  20606016.878      591844.323 7    461176.15623
  23869565.003    -1825933.700 5  -1422798.59221
  20549277.901     -301354.866 7   -234822.69222
  23539191.058    -2427139.109 5  -1848139.53121
  24024583.456     -640147.339 5   -435507.25621
 91  5 14 18 29 59.9990000  0  5G18G11G19G 2G16
  20608945.190      607221.296 7    473158.16523
  23861929.6514   -1866067.83345  -1454071.82661
  20548107.558     -307515.755 7   -239623.39622
  23528780.9014   -2481841.89445  -1890765.17561
  24017112.862     -679408.798 5   -466100.64521
 91  5 14 18 30 14.9990000  0  5G18G11G19G 2G16
  20611884.183      622685.618 7    485208.23623
  23854303.534    -1906133.096 5  -1485291.41221
  20546939.737     -313644.433 7   -244399.00522
  23518374.901    -2536518.965 5  -1933370.80021
  24009659.620     -718580.212 5   -496623.85321
 91  5 14 18 30 29.9990000  0  5G18G11G19G 2G16
  20614846.394      638235.810 7    497325.23123
  23846691.597    -1946130.589 5  -1516458.17121
  20545782.167     -319742.513 7   -249150.77022
  23507977.073    -2591171.520 6  -1975957.31021
  24002221.8864    -757662.65145   -527077.73761
 91  5 14 18 30 44.9990000  0  5G18G11G19G 2G16
  20617822.698      653871.825 7    509509.09123
  23839091.558    -1986059.866 5  -1547571.76421
  20544626.081     -325809.919 7   -253878.63422
  23497581.003    -2645799.500 6  -2018524.69121
  23994801.605     -796655.943 5   -557462.16321
 91  5 14 18 30 59.9990000  0  5G18G11G19G 2G16
  20620814.198      669593.935 7    521760.04223
  23831509.6204   -2025920.03245  -1578631.52061
  20543475.956     -331846.214 7   -258582.25822
  23487189.4094   -2700402.20346  -2061072.36661
  23987395.6444    -835559.22645   -587776.43561
 91  5 14 18 31 14.9990000  0  5G18G11G19G 2G16
  20623823.206      685406.772 7    534081.68923
  23823938.972    -2065706.198 5  -1609633.63821
  20542334.698     -337846.960 7   -263258.17622
  23476809.1904   -2754974.72646  -2103596.53661
  23980010.4404    -874367.58945   -618016.75461
 91  5 14 18 31 29.9990000  0  5G18G11G19G 2G16
  20626848.683      701307.096 7    546471.50623
  23816381.9094   -2105421.32045  -1640580.34761
  20541202.464     -343815.388 7   -267908.92322
  23466426.1204   -2809520.38246  -2146099.76461
  23972643.065     -913084.562 5   -648185.83821
 91  5 14 18 31 44.9990000  0  5G18G11G19G 2G16
  20629889.9404     717290.71147    558926.22963
  23808834.503    -2145069.012 5  -1671474.53521
  20540065.886     -349755.562 7   -272537.64922
  23456049.9174   -2864043.07746  -2188585.09861
  23965281.3944    -951713.71645   -678286.52061
 91  5 14 18 31 59.9990000  0  5G18G11G19G 2G16
  20632948.667      733356.130 7    571444.69323
  23801302.073    -2184650.317 5  -1702317.00621
  20538945.628     -355669.047 7   -277145.58222
  23445678.8314   -2918543.90846  -2231053.40461
  23957952.261     -990256.484 5   -708319.87421
 91  5 14 18 32 14.9990000  0  5G18G11G19G 2G16
  20636022.050      749515.412 7    584036.30423
  23793784.175    -2224152.705 5  -1733097.96621
  20537824.761     -361543.699 7   -281723.24622
  23435317.4644   -2973010.54646  -2273495.07161
  23950636.440    -1028700.387 5   -738276.21821
 91  5 14 18 32 29.9990000  0  5G18G11G19G 2G16
  20639113.722      765761.691 7    596695.69323
  23786283.9254   -2263582.62245  -1763822.45861
  20536715.542     -367386.240 7   -286275.90022
  23424955.7614   -3027449.81546  -2315915.40161
  23943345.456    -1067052.152 5   -768160.75921
 91  5 14 18 32 44.9990000  0  5G18G11G19G 2G16
  20642223.425      782097.629 7    609424.95223
  23778799.167    -2302936.994 5  -1794488.08521
  20535608.472     -373194.098 7   -290801.52022
  23414600.1754   -3081858.69046  -2358312.04861
  23936063.690    -1105308.510 5   -797970.96721
 91  5 14 18 32 59.9990000  0  5G18G11G19G 2G16
  20645347.6444     798520.45047    622221.91163
  23771317.855    -2342218.197 5  -1825096.70921
  20534511.909     -378970.076 7   -295302.30522
  23404253.409    -3136239.614 6  -2400686.94321
  23928804.237    -1143471.857 5   -827708.68021
 91  5 14 18 33 14.9990000  0  5G18G11G19G 2G16
  20648488.948      815030.620 7    635086.93223
  23763856.9014   -2381425.33045  -1855647.58861
  20533414.792     -384713.716 7   -299777.88122
  23393908.628    -3190591.999 6  -2443039.59121
  23921555.8784   -1181541.46845   -857373.35461
 91  5 14 18 33 29.9990000  0  5G18G11G19G 2G16
  20651647.620      831632.436 7    648023.36423
  23756412.9724   -2420553.58045  -1886137.01461
  20532330.839     -390420.458 7   -304224.70822
  23383572.401    -3244911.079 6  -2485366.27021
  23914329.292    -1219512.928 5   -886961.53621
 91  5 14 18 33 44.9990000  0  5G18G11G19G 2G16
  20654826.144      848323.619 7    661029.43723
  23748980.214    -2459605.169 5  -1916566.69421
  20531249.784     -396092.975 7   -308644.85822
  23373243.940    -3299199.342 6  -2527668.96121
  23907125.901    -1257388.322 5   -916474.86421
 91  5 14 18 33 59.9990000  0  5G18G11G19G 2G16
  20658018.323      865104.050 7    674105.04823
  23741562.839    -2498579.775 5  -1946936.41721
  20530179.659     -401731.352 7   -313038.41622
  23362921.065    -3353456.683 6  -2569947.53721
  23899928.034    -1295167.545 5   -945913.24621
 91  5 14 18 34 14.9990000  0  5G18G11G19G 2G16
  20661230.003      881977.687 7    687253.28923
  23734164.261    -2537472.742 5  -1977242.48421
  20529112.534     -407331.426 7   -317402.12222
  23352602.4094   -3407678.63646  -2612198.56161
  23892762.9564   -1332846.19745   -975273.26561
 91  5 14 18 34 29.9990000  0  5G18G11G19G 2G16
  20664457.237      898941.948 7    700472.14223
  23726776.980    -2576286.101 5  -2007486.53921
  20528054.784     -412895.699 7   -321737.93322
  23342289.433    -3461867.334 6  -2654423.65821
  23885614.620    -1370426.430 5  -1004556.60421
 91  5 14 18 34 44.9990000  0  5G18G11G19G 2G16
  20667701.237      915992.337 7    713758.11623
  23719405.276    -2615024.154 5  -2037671.91221
  20526999.8234    -418428.61847   -326049.30762
  23331982.722    -3516027.323 6  -2696626.37821
  23878480.237    -1407912.671 5  -1033766.72321
 91  5 14 18 34 59.9990000  0  5G18G11G19G 2G16
  20670964.362      933130.499 7    727112.47723
  23712046.2844   -2653684.61545  -2067796.82261
  20525953.4644    -423928.45947   -330334.90362
  23321683.4254   -3570156.62446  -2738805.17461
  23871367.378    -1445302.832 5  -1062901.95221
 91  5 14 18 35 14.9990000  0  5G18G11G19G 2G16
  20674242.839      950360.905 7    740538.72423
  23704708.4874   -2692262.63045  -2097857.49161
  20524913.2064    -429390.86447   -334591.33262
  23311388.3394   -3624250.51246  -2780956.38461
  23864269.472    -1482592.071 5  -1091958.54221
 91  5 14 18 35 29.9990000  0  5G18G11G19G 2G16
  20677538.292      967680.795 7    754034.68923
  23697378.1284   -2730760.72845  -2127855.90261
  20523883.9014    -434818.70247   -338820.82262
  23301103.4724   -3678311.54746  -2823081.98961
  23857192.8084   -1519783.16445  -1120938.66161
 91  5 14 18 35 44.9990000  0  5G18G11G19G 2G16
  20680852.136      985084.220 7    767595.75423
  23690066.519    -2769184.156 5  -2157796.10221
  20522854.4564    -440217.70347   -343027.84562
  23290820.9174   -3732345.45046  -2865186.45261
  23850132.089    -1556881.734 5  -1149846.67121
 91  5 14 18 35 59.9990000  0  5G18G11G19G 2G16
  20684179.519     1002577.469 7    781226.80723
  23682776.4644   -2807526.32345  -2187672.99161
  20521834.651     -445581.687 7   -347207.57722
  23280542.784    -3786345.628 6  -2907264.61321
  23843091.7764   -1593881.10845  -1178677.40161
 91  5 14 18 36 14.9990000  0  5G18G11G19G 2G16
  20687524.964     1020158.388 7    794926.17323
  23675490.214    -2845788.901 5  -2217487.86821
  20520818.7694    -450912.73847   -351361.65262
  23270273.722    -3840314.007 6  -2949318.00621
  23836068.550    -1630782.889 5  -1207432.06421
 91  5 14 18 36 29.9990000  0  5G18G11G19G 2G16
  20690887.425     1037827.686 7    808694.40523
  23668223.9254   -2883970.78345  -2247239.86761
  20519809.370     -456210.151 7   -355489.51822
  23260012.714    -3894249.601 6  -2991345.85221
  23829067.1984   -1667586.08545  -1236109.91361
 91  5 14 18 36 44.9990000  0  5G18G11G19G 2G16
  20694266.605     1055582.793 7    822529.49923
  23660974.5114   -2922074.08345  -2276930.63161
  20518809.2224    -461476.18847   -359592.92962
  23249752.589    -3948154.878 6  -3033350.05821
  23822077.9254   -1704293.20945  -1264712.88461
 91  5 14 18 36 59.9990000  0  5G18G11G19G 2G16
  20697662.0504    1073432.17347    836438.04963
  23653742.2614   -2960090.09345  -2306553.37961
  20517816.964     -466702.618 6   -363665.48622
  23239504.4724   -4002021.03046  -3075323.77261
  23815118.0344   -1740895.50145  -1293234.19161
 91  5 14 18 37 14.9990000  0  5G18G11G19G 2G16
  20701074.730     1091369.593 7    850415.20123
  23646520.2224   -2998024.47845  -2336112.50261
  20516825.620     -471895.507 7   -367711.90322
  23229256.573    -4055853.940 6  -3117271.59521
  23808172.870    -1777399.035 5  -1321678.52821
 91  5 14 18 37 29.9990000  0  5G18G11G19G 2G16
  20704504.597     1109389.997 7    864457.02023
  23639320.519    -3035881.786 5  -2365611.58221
  20515845.167     -477059.907 6   -371736.12522
  23219022.644    -4109658.336 6  -3159197.18421
  23801244.995    -1813808.112 5  -1350049.25421
 91  5 14 18 37 44.9990000  0  5G18G11G19G 2G16
  20707950.0584    1127502.40147    878570.52663
  23632127.3004   -3073652.38445  -2395043.09761
  20514866.8394    -482186.45947   -375730.84562
  23208789.5114   -4163424.99946  -3201093.36561
  23794333.5344   -1850113.41845  -1378339.15361
 91  5 14 18 37 59.9990000  0  5G18G11G19G 2G16
  20711418.3154    1145709.84247    892758.08663
  23624956.9484   -3111333.01245  -2424404.51061
  20513899.417     -487272.424 7   -379693.94722
  23198565.222    -4217150.798 6  -3242957.71221
  23787443.5264   -1886311.95245  -1406545.82861
 91  5 14 18 38 14.9990000  0  5G18G11G19G 2G16
  20714897.784     1164007.812 7    907016.18523
  23617807.6204   -3148927.77045  -2453698.99561
  20512940.1834    -492322.25347   -383628.88662
  23188345.980    -4270840.019 6  -3284793.55321
  23780572.1124   -1922407.87645  -1434672.55361
 91  5 14 18 38 29.9990000  0  5G18G11G19G 2G16
  20718396.948     1182393.251 7    921342.44223
  23610661.3864   -3186439.26445  -2482928.60061
  20511986.448     -497338.911 7   -387537.98422
  23178138.753    -4324495.374 6  -3326602.99321
  23773725.1514   -1958404.09745  -1462721.62761
 91  5 14 18 38 44.9990000  0  5G18G11G19G 2G16
  20721912.386     1200869.384 7    935739.37723
  23603543.823    -3223864.063 5  -2512090.65821
  20511036.0114    -502319.27947   -391418.78662
  23167936.112    -4378113.670 6  -3368383.56021
  23766891.112    -1994297.389 5  -1490690.42521
 91  5 14 18 38 59.9990000  0  5G18G11G19G 2G16
  20725444.0264    1219435.20247    950206.18763
  23596440.894    -3261202.419 5  -2541185.35421
  20510100.1514    -507264.07847   -395271.88962
  23157738.605    -4431695.308 6  -3410135.55421
  23760081.7454   -2030088.06545  -1518579.29361
 91  5 14 18 39 14.9990000  0  5G18G11G19G 2G16
  20728994.776     1238081.899 7    964736.03023
  23589348.2064   -3298462.76945  -2570219.27261
  20509161.2844    -512182.12747   -399104.13662
  23147545.487    -4485248.822 6  -3451865.64421
  23753292.401    -2065784.509 5  -1546394.72121
 91  5 14 18 39 29.9990000  0  5G18G11G19G 2G16
  20732557.1754    1256813.86547    979332.30763
  23582276.4804   -3335640.37545  -2599188.68661
  20508230.3864    -517069.09747   -402912.17462
  23137363.1204   -4538769.68446  -3493570.27361
  23746518.144    -2101382.038 5  -1574133.09221
 91  5 14 18 39 44.9990000  0  5G18G11G19G 2G16
  20736139.2614    1275632.55947    993996.16363
  23575217.534    -3372733.358 5  -2628092.18221
  20507307.9334    -521923.36247   -406694.72162
  23127183.456    -4592256.286 6  -3535248.21521
  23739765.6594   -2136879.04945  -1601793.13361
 91  5 14 18 39 59.9990000  0  5G18G11G19G 2G16
  20739738.1444    1294541.92947   1008730.68063
  23568171.769    -3409737.346 5  -2656926.29921
  20506391.3084    -526741.17147   -410448.86462
  23117016.6754   -4645704.44946  -3576896.18561
  23733030.675    -2172271.471 5  -1629371.65821
 91  5 14 18 40 14.9990000  0  5G18G11G19G 2G16
  20743356.261     1313540.241 7   1023534.50123
  23561149.167    -3446653.522 5  -2685692.02421
  20505478.4014    -531524.07547   -414175.80562
  23106849.0194   -4699115.56146  -3618515.29961
  23726310.401    -2207560.347 5  -1656869.51221
 91  5 14 18 40 29.9990000  0  5G18G11G19G 2G16
  20746985.3784    1332631.73047   1038410.92763
  23554142.1984   -3483477.38145  -2714385.81461
  20504578.3004    -536267.70747   -417872.14662
  23096696.8554   -4752485.02246  -3660101.95161
  23719613.542    -2242741.443 5  -1684283.39921
 91  5 14 18 40 44.9990000  0  5G18G11G19G 2G16
  20750637.9014    1351811.28547   1053355.96963
  23547150.8314   -3520213.58545  -2743011.27461
  20503680.7614    -540977.21947   -421541.89862
  23086543.511    -4805817.598 6  -3701659.85421
  23712943.323    -2277819.353 5  -1711616.89321
 91  5 14 18 40 59.9990000  0  5G18G11G19G 2G16
  20754303.7694    1371079.50547   1068370.10663
  23540175.2374   -3556861.09945  -2771567.65761
  20502793.4094    -545651.85947   -425184.48462
  23076405.011    -4859112.535 6  -3743188.43421
  23706289.151    -2312793.520 5  -1738869.53221
 91  5 14 18 41 14.9990000  0  5G18G11G19G 2G16
  20757987.0034    1390436.20047   1083453.18663
  23533219.019    -3593419.662 5  -2800054.71521
  20501906.1444    -550291.73347   -428799.97662
  23066269.987    -4912369.954 6  -3784687.77021
  23699648.175    -2347663.736 5  -1766041.15221
 91  5 14 18 41 29.9990000  0  5G18G11G19G 2G16
  20761687.2924    1409880.02347   1098604.15763
  23526279.480    -3629890.000 5  -2828473.01921
  20501034.2454    -554898.26447   -432389.48862
  23056142.2064   -4965590.76046  -3826158.58461
  23693037.050    -2382431.013 5  -1793132.57121
 91  5 14 18 41 44.9990000  0  5G18G11G19G 2G16
  20765403.3554    1429413.42247   1113824.92263
  23519357.636    -3666269.351 5  -2856820.44321
  20500162.206     -559468.862 7   -435950.99522
  23046024.2064   -5018772.35846  -3867598.81761
  23686440.0504   -2417092.69745  -1820141.69961
 91  5 14 18 41 59.9990000  0  5G18G11G19G 2G16
  20769136.4254    1449034.68547   1129114.15763
  23512451.8784   -3702558.94445  -2885097.93161
  20499300.2764    -564005.18447   -439485.80562
  23035909.6054   -5071916.03746  -3909009.52761
  23679866.636    -2451650.083 5  -1847069.57121
 91  5 14 18 42 14.9990000  0  5G18G11G19G 2G16
  20772890.6754    1468750.09647   1144476.75963
  23505564.995    -3738752.160 5  -2913300.30721
  20498442.5504    -568500.89947   -442988.96762
  23025806.3474   -5125015.46346  -3950385.74261
  23673307.401    -2486096.657 5  -1873911.10921
 91  5 14 18 42 29.9990000  0  5G18G11G19G 2G16
  20776657.5894    1488550.66047   1159905.70663
  23498690.386    -3774857.255 5  -2941433.98721
  20497595.315     -572964.741 7   -446467.29422
  23015707.058    -5178079.106 6  -3991734.07321
  23666773.3084   -2520440.85845  -1900672.86161
 91  5 14 18 42 44.9990000  0  5G18G11G19G 2G16
  20780441.8314    1508444.10047   1175407.02463
  23491843.534    -3810866.039 5  -2969492.65221
  20496750.839     -577388.988 7   -449914.77222
  23005620.417    -5231099.176 6  -4033048.45421
  23660256.433    -2554674.766 5  -1927348.67121
 91  5 14 18 42 59.9990000  0  5G18G11G19G 2G16
  20784247.2924    1528429.35947   1190979.89163
  23485009.3784   -3846779.77245  -2997477.25461
  20495918.5424    -581775.28547   -453332.67562
  22995537.714    -5284077.006 6  -4074329.91621
  23653765.7374   -2588799.62145  -1953939.48861
 91  5 14 18 43 14.9990000  0  6G18G11G19G 2G16G 6
  20788067.2694    1548505.79447   1206623.80263
  23478187.315    -3882598.482 5  -3025387.81221
  20495090.3864    -586123.66047   -456721.02962
  22985461.8004   -5337012.31046  -4115578.24261
  23647290.8864   -2622815.47245  -1980445.36461
  24222537.1514     -43217.49645
 91  5 14 18 43 29.9990000  0  6G18G11G19G 2G16G 6
  20791903.1674    1568668.16547   1222334.67763
  23471393.9254   -3918326.81045  -3053227.91961
  20494270.675     -590439.240 7   -460083.83222
  22975398.183    -5389910.019 6  -4156797.26821
  23640839.370    -2656727.255 5  -2006870.16621
  24214313.8394     -86428.06945
 91  5 14 18 43 44.9990000  0  6G18G11G19G 2G16G 6
  20795759.0114    1588923.92447   1238118.32263
  23464611.323    -3953956.901 5  -3080991.47921
  20493455.526     -594714.587 7   -463415.28222
  22965339.472    -5442762.610 6  -4197981.13021
  23634407.2454   -2690527.15645  -2033207.78361
  24206087.3394    -129624.91445
 91  5 14 18 43 59.9990000  0  6G18G11G19G 2G16G 6
  20799630.7304    1609276.90247   1253977.72263
  23457849.933    -3989484.368 5  -3108675.10721
  20492652.190     -598945.714 7   -466712.27722
  22955290.651    -5495565.797 6  -4239126.50721
  23627997.933    -2724211.171 6  -2059455.07621
  24197873.972     -172804.211 5
 91  5 14 18 44 14.9990000  0  6G18G11G19G 2G16G 6
  20803519.9644    1629719.09647   1269906.64663
  23451107.2454   -4024916.85945  -3136284.69661
  20491851.214     -603140.662 7   -469981.08122
  22945252.605    -5548327.459 6  -4280239.50221
  23621604.5264   -2757787.09546  -2085618.20561
  24189658.6444    -215973.93245        -0.01871
 91  5 14 18 44 29.9990000  0  6G18G11G19G 2G16G 6
  20807428.9174    1650253.13547   1285907.13263
  23444381.3394   -4060251.41145  -3163817.96361
  20491062.464     -607296.731 7   -473219.58922
  22935220.808    -5601044.861 6  -4321318.02421
  23615239.7694   -2791251.98346  -2111694.78461
  24181444.4804    -259131.33244    -33629.07161
 91  5 14 18 44 44.9990000  0  6G18G11G19G 2G16G 6
  20811354.9094    1670880.62047   1301980.43863
  23437675.6284   -4095485.79045  -3191273.21761
  20490276.917     -611412.100 7   -476426.37922
  22925198.940    -5653715.887 6  -4362360.40121
  23608895.3864   -2824603.63246  -2137683.08761
  24173235.6204    -302274.65644    -67247.15061
 91  5 14 18 44 59.9990000  0  6G18G11G19G 2G16G 6
  20815296.0734    1691593.25447   1318120.09263
  23430993.331    -4130627.920 5  -3218656.57521
  20489500.8314    -615495.01047   -479607.87562
  22915184.105    -5706348.656 6  -4403372.95121
  23602569.472    -2857850.388 6  -2163589.66521
  24165027.1054    -345412.16744   -100860.70361
 91  5 14 18 45 14.9990000  0  6G18G11G19G 2G16G 6
  20819255.3704    1712393.43647   1334327.96863
  23424320.0734   -4165675.11545  -3245965.94261
  20488730.6204    -619543.19147   -482762.30762
  22905174.698    -5758940.427 6  -4444353.57321
  23596257.222    -2890989.515 5  -2189412.38621
  24156818.6124    -388541.57945   -134467.93061
 91  5 14 18 45 29.9990000  0  6G18G11G19G 2G16G 6
  20823231.7304    1733286.73647   1350608.40063
  23417672.245    -4200621.334 5  -3273196.62621
  20487968.8944    -623551.03147   -485885.31062
  22895174.925    -5811485.509 6  -4485297.80521
  23589975.565    -2924015.198 5  -2215146.68821
  24148619.651     -431657.208 5   -168064.44421
 91  5 14 18 45 44.9990000  0  6G18G11G19G 2G16G 6
  20827224.4954    1754272.38747   1366960.79363
  23411042.3234   -4235466.84645  -3300348.85061
  20487211.5814    -627518.93747   -488977.18662
  22885184.9644   -5863984.26646  -4526205.93661
  23583715.284    -2956927.698 5  -2240792.80421
  24140418.6754    -474759.66245   -201650.68061
 91  5 14 18 45 59.9990000  0  6G18G11G19G 2G16G 6
  20831233.2064    1775346.55047   1383382.15263
  23404426.550    -4270215.271 5  -3327425.42721
  20486465.3474    -631450.91347   -492041.06562
  22875201.9174   -5916440.62646  -4567081.02561
  23577468.1904   -2989730.67845  -2266353.57361
  24132209.6834    -517852.88045   -235229.72961
 91  5 14 18 46 14.9990000  0  6G18G11G19G 2G16G 6
  20835261.8084    1796507.79547   1399871.38063
  23397835.7694   -4304867.18345  -3354426.78961
  20485722.7304    -635347.95247   -495077.71262
  22865229.2224   -5968855.31846  -4607923.64361
  23571250.8554   -3022425.02545  -2291829.68961
  24124010.980     -560937.978 5   -268802.43021
 91  5 14 18 46 29.9990000  0  6G18G11G19G 2G16G 6
  20839304.1284    1817753.84847   1416426.68563
  23391261.0504   -4339424.72745  -3381354.64961
  20484990.3704    -639212.60746   -498089.13362
  22855262.3004   -6021230.55546  -4648735.51761
  23565047.3154   -3055013.03845  -2317222.94561
  24115817.776     -604017.437 5   -302370.77221
 91  5 14 18 46 44.9990000  0  6G18G11G19G 2G16G 6
  20843364.0504    1839088.44847   1433050.98363
  23384700.3314   -4373883.38245  -3408205.41861
  20484258.3234    -643040.73047   -501072.07762
  22845304.0194   -6073562.20646  -4689513.42961
  23558865.308    -3087490.433 5  -2342530.03421
  24107624.581     -647087.209 5   -335931.55221
 91  5 14 18 46 59.9990000  0  6G18G11G19G 2G16G 6
  20847440.261     1860508.341 7   1449741.75523
  23378161.815    -4408246.343 5  -3434981.63821
  20483537.870     -646835.819 7   -504029.27822
  22835352.7534   -6125853.56546  -4730259.94561
  23552707.3784   -3119860.84946  -2367753.73461
  24099429.339     -690150.502 4   -369487.28921
 91  5 14 18 47 14.9990000  0  6G18G11G19G 2G16G 6
  20851533.245     1882015.940 7   1466500.86623
  23371642.6204   -4442510.68345  -3461681.01061
  20482821.8084    -650595.36947   -506958.79762
  22825409.1674   -6178101.80346  -4770972.85561
  23546568.8864   -3152121.18746  -2392891.67261
  24091229.605     -733205.068 4   -403036.23621
 91  5 14 18 47 29.9990000  0  6G18G11G19G 2G16G 6
  20855642.440     1903615.203 7   1483331.40623
  23365141.9564   -4476672.00346  -3488300.11761
  20482112.9954    -654315.36547   -509857.48662
  22815476.284    -6230302.560 6  -4811648.75821
  23540451.956    -3184267.039 5  -2417940.39121
  24083040.6904    -776246.79744   -436575.10661
 91  5 14 18 47 44.9990000  0  6G18G11G19G 2G16G 6
  20859770.8084    1925310.08647   1500236.45363
  23358660.636    -4510726.132 6  -3514835.69521
  20481414.8704    -657991.75547   -512722.19962
  22805551.5344   -6282451.77346  -4852284.50061
  23534357.8554   -3216294.58446  -2442896.92161
  24074859.206     -819271.811 4   -470100.99921
 91  5 14 18 47 59.9990000  0  6G18G11G19G 2G16G 6
  20863915.940     1947091.175 7   1517208.67623
  23352199.2924   -4544681.77445  -3541294.53161
  20480721.7304    -661633.63547   -515560.01862
  22795638.323    -6334558.489 6  -4892887.11921
  23528286.5974   -3248212.55245  -2467768.05561
  24066670.9954    -862289.17444   -503620.93661
 91  5 14 18 48 14.9990000  0  6G18G11G19G 2G16G 6
  20868079.1984    1968967.76447   1534255.30963
  23345757.2064   -4578529.10345  -3567668.94761
  20480035.6754    -665231.58847   -518363.61162
  22785731.0424   -6386612.95946  -4933449.02061
  23522232.7764   -3280011.39345  -2492546.37261
  24058480.987     -905289.488 4   -537127.58521
 91  5 14 18 48 29.9990000  0  6G18G11G19G 2G16G 6
  20872258.597     1990929.725 7   1551368.46923
  23339335.112    -4612277.865 5  -3593966.56321
  20479358.5734    -668795.81247   -521140.92162
  22775832.855    -6438625.082 6  -4973977.92321
  23516201.9874   -3311700.99445  -2517239.58161
  24050306.034     -948282.873 5   -570628.84821
 91  5 14 18 48 44.9990000  0  6G18G11G19G 2G16G 6
  20876453.644     2012984.513 7   1568553.96523
  23332935.987    -4645920.680 5  -3620181.63821
  20478687.440     -672319.181 7   -523886.39122
  22765946.972    -6490587.742 6  -5014468.28221
  23510196.136    -3343273.919 5  -2541841.86921
  24042127.0344    -991262.26345   -604119.22061
 91  5 14 18 48 59.9990000  0  6G18G11G19G 2G16G 6
  20880668.5114    2035130.49147   1585810.51563
  23326551.6364   -4679458.17445  -3646314.63361
  20478025.5654    -675802.54447   -526600.69462
  22756069.2304   -6542501.58446  -5054920.58961
  23504206.2454   -3374731.07745  -2566353.94561
  24033952.105    -1034228.600 5   -637599.39921
 91  5 14 18 49 14.9990000  0  6G18G11G19G 2G16G 6
  20884900.683     2057361.339 7   1603133.20423
  23320189.1674   -4712896.29246  -3672370.22461
  20477367.105     -679252.094 7   -529288.64022
  22746195.8624   -6594372.74446  -5095339.63961
  23498243.6364   -3406078.31745  -2590780.36361
  24025774.167    -1077188.207 5   -671074.33421
 91  5 14 18 49 29.9990000  0  6G18G11G19G 2G16G 6
  20889146.8234    2079683.36247   1620526.93463
  23313848.245    -4746228.433 6  -3698343.22021
  20476723.7224    -682661.58246   -531945.38162
  22736335.1444   -6646194.73646  -5135720.37761
  23492300.3084   -3437309.53645  -2615116.36361
  24017604.8314   -1120134.79145   -704539.09861
 91  5 14 18 49 44.9990000  0  6G18G11G19G 2G16G 6
  20893414.948     2102096.789 7   1637991.88623
  23307521.3554   -4779454.26145  -3724233.38361
  20476078.2764    -686031.23847   -534571.08462
  22726482.4174   -6697967.44846  -5176062.71561
  23486379.2534   -3468424.34545  -2639361.67861
  24009429.1284   -1163068.38145   -737993.78261
 91  5 14 18 49 59.9990000  0  6G18G11G19G 2G16G 6
  20897696.198     2124602.051 7   1655528.40923
  23301223.8084   -4812572.44546  -3750039.66561
  20475447.7614    -689360.04546   -537164.95162
  22716641.925    -6749689.922 6  -5216365.89121
  23480481.378    -3499421.730 6  -2663515.48821
  24001269.667    -1205988.181 5   -771437.70621
 91  5 14 18 50 14.9990000  0  6G18G11G19G 2G16G 6
  20901994.558     2147196.531 7   1673134.44523
  23294939.1674   -4845585.09945  -3775763.70661
  20474819.3004    -692650.39047   -539728.85162
  22706808.1444   -6801364.34846  -5256631.64061
  23474598.9954   -3530304.12245  -2687579.69061
  23993099.050    -1248896.613 4   -804872.79921
 91  5 14 18 50 29.9990000  0  6G18G11G19G 2G16G 6
  20906312.245     2169879.501 7   1690809.43623
  23288674.175    -4878492.967 6  -3801406.09621
  20474199.7614    -695903.35447   -542263.62462
  22696981.683    -6852991.507 6  -5296860.54321
  23468748.980    -3561072.211 5  -2711554.84721
  23984937.8004   -1291794.73945   -838299.79461
 91  5 14 18 50 44.9990000  0  6G18G11G19G 2G16G 6
  20910645.980     2192651.083 7   1708553.47223
  23282435.636    -4911295.414 5  -3826966.34121
  20473585.4254    -699118.68947   -544769.07962
  22687169.7374   -6904570.79346  -5337052.14361
  23462916.784    -3591725.557 5  -2735440.59321
  23976779.628    -1334682.133 5   -871718.46521
 91  5 14 18 50 59.9990000  0  6G18G11G19G 2G16G 6
  20914996.323     2215517.952 7   1726371.75923
  23276213.230    -4943985.065 5  -3852438.69421
  20472985.6124    -702289.34447   -547239.71362
  22677362.901    -6956095.207 6  -5377200.98621
  23457106.269    -3622256.743 5  -2759231.14021
  23968618.4334   -1377551.90345   -905123.40361
 91  5 14 18 51 14.9990000  0  6G18G11G19G 2G16G 6
  20919366.503     2238470.884 7   1744257.10823
  23270011.1754   -4976570.89145  -3877830.15661
  20472387.6124    -705424.61047   -549682.77362
  22667568.159    -7007573.795 6  -5417314.12321
  23451311.972    -3652674.859 5  -2782933.58721
  23960461.440    -1420413.309 5   -938521.82021
 91  5 14 18 51 29.9990000  0  6G18G11G19G 2G16G 6
  20923749.667     2261514.670 7   1762213.25123
  23263833.456    -5009047.794 5  -3903136.72721
  20471800.3784    -708519.63546   -552094.47562
  22657781.058    -7059001.741 6  -5457387.79121
  23445548.8784   -3682975.05745  -2806544.14261
  23952310.167    -1463261.548 5   -971909.98121
 91  5 14 18 51 44.9990000  0  6G18G11G19G 2G16G 6
  20928153.058     2284647.913 7   1780239.10223
  23257673.6204   -5041416.56845  -3928359.05361
  20471217.4484    -711575.50347   -554475.66762
  22648002.2144   -7110379.80846  -5497422.58161
  23439805.8084   -3713158.53745  -2830063.74761
  23944157.8004   -1506097.98045  -1005288.89861
 91  5 14 18 51 59.9990000  0  6G18G11G19G 2G16G 6
  20932573.362     2307870.523 7   1798334.59223
  23251535.5424   -5073676.65645  -3953496.69361
  20470645.4404    -714592.00947   -556826.18362
  22638235.0344   -7161707.60946  -5537418.20561
  23434088.5584   -3743224.75445  -2853491.96361
  23936005.276    -1548922.179 5  -1038658.34621
 91  5 14 18 52 14.9990000  0  6G18G11G19G 2G16G 6
  20937007.597     2331182.138 7   1816499.43623
  23245413.3314   -5105828.48245  -3978549.94961
  20470075.4334    -717569.66747   -559146.43562
  22628480.2224   -7212985.72546  -5577375.11961
  23428385.1364   -3773174.30845  -2876829.27461
  23927855.651    -1591735.029 5  -1072018.91421
 91  5 14 18 52 29.9990000  0  6G18G11G19G 2G16G 6
  20941459.417     2354586.223 7   1834736.33723
  23239318.3394   -5137867.85645  -4003515.61261
  20469520.2374    -720504.82647   -561433.56462
  22618732.2844   -7264210.17646  -5617290.20961
  23422707.8944   -3803003.35445  -2900072.70661
  23919715.1284   -1634532.67345  -1105367.60961
 91  5 14 18 52 44.9990000  0  6G18G11G19G 2G16G 6
  20945933.808     2378083.134 7   1853045.56423
  23233242.519    -5169793.993 6  -4028393.01321
  20468967.362     -723396.950 7   -563687.15022
  22608993.5654   -7315380.19946  -5657162.89261
  23417056.1364   -3832710.68446  -2923221.28461
  23911575.4564   -1677314.52045  -1138704.01661
 91  5 14 18 52 59.9990000  0  6G18G11G19G 2G16G 6
  20950420.565     2401667.413 7   1871422.87723
  23227189.7064   -5201611.82946  -4053186.04761
  20468427.4094    -726251.51047   -565911.47562
  22599265.7374   -7366501.07746  -5696997.27661
  23411427.8864   -3862301.37946  -2946279.00161
  23903437.7614   -1720086.05345  -1172032.37561
 91  5 14 18 53 14.9990000  0  6G18G11G19G 2G16G 6
  20954923.948     2425342.671 7   1889871.07823
  23221154.917    -5233317.299 6  -4077891.51421
  20467888.6444    -729064.79047   -568103.63062
  22589547.065    -7417568.921 6  -5736790.33021
  23405820.1904   -3891771.87746  -2969243.04161
  23895297.378    -1762843.542 5  -1205349.78921
 91  5 14 18 53 29.9990000  0  6G18G11G19G 2G16G 6
  20959447.956     2449106.331 7   1908388.16223
  23215140.0264   -5264912.73646  -4102511.23761
  20467360.5734    -731839.17947   -570265.48362
  22579841.222    -7468586.107 6  -5776543.90721
  23400230.2374   -3921124.58845  -2992115.28361
  23887165.651    -1805589.531 5  -1238658.27321
 91  5 14 18 53 44.9990000  0  6G18G11G19G 2G16G 6
  20963984.901     2472954.787 7   1926971.31823
  23209150.948    -5296401.466 6  -4127047.81021
  20466841.636     -734578.502 7   -572400.00922
  22570139.339    -7519556.134 6  -5816260.73321
  23394667.3314   -3950363.25445  -3014898.65661
  23879030.659    -1848327.872 5  -1271960.77821
 91  5 14 18 53 59.9990000  0  6G18G11G19G 2G16G 6
  20968542.636     2496891.768 7   1945623.45523
  23203179.4564   -5327779.30646  -4151497.98061
  20466329.7454    -737278.77246   -574504.10462
  22560448.0034   -7570474.89146  -5855937.59961
  23389132.2924   -3979483.52546  -3037589.75761
  23870900.339    -1891054.578 5  -1305254.25721
 91  5 14 18 54 14.9990000  0  6G18G11G19G 2G16G 6
  20973111.800     2520916.059 7   1964343.63223
  23197228.6984   -5359047.03946  -4175862.34961
  20465819.0584    -739941.01747   -576578.56862
  22550770.292    -7621343.246 6  -5895575.19221
  23383612.2924   -4008486.44746  -3060189.43061
  23862773.050    -1933770.807 5  -1338539.55021
 91  5 14 18 54 29.9990000  0  6G18G11G19G 2G16G 6
  20977700.730     2545029.421 7   1983133.21623
  23191298.2534   -5390202.42646  -4200139.15361
  20465321.0734    -742563.24746   -578621.85462
  22541099.690    -7672159.128 6  -5935171.89821
  23378109.3394   -4037370.06145  -3082696.15861
  23854647.5894   -1976474.50345  -1371815.04561
 91  5 14 18 54 44.9990000  0  6G18G11G19G 2G16G 6
  20982307.097     2569228.677 7   2001989.72523
  23185390.1754   -5421247.99545  -4224330.40961
  20464829.4954    -745148.53347   -580636.35262
  22531437.730    -7722925.262 6  -5974729.84121
  23372636.698    -4066136.994 5  -3105111.95121
  23846524.4954   -2019168.67445  -1405083.13661
 91  5 14 18 54 59.9990000  0  6G18G11G19G 2G16G 6
  20986928.347     2593515.146 7   2020914.20023
  23179504.933    -5452182.318 6  -4248434.97021
  20464343.9484    -747695.71846   -582621.16162
  22521790.5734   -7773640.26246  -6014247.92761
  23367186.9644   -4094785.71645  -3127435.63661
  23838402.0504   -2061852.22345  -1438342.95661
 91  5 14 18 55 14.9990000  0  6G18G11G19G 2G16G 6
  20991563.737     2617889.984 7   2039907.52823
  23173640.308    -5483003.688 6  -4272451.52021
  20463866.034     -750203.499 7   -584575.26422
  22512146.8004   -7824302.72646  -6053725.08261
  23361754.7694   -4123314.77845  -3149666.07561
  23830279.2614   -2104523.75345  -1471593.42461
 91  5 14 18 55 29.9990000  0  6G18G11G19G 2G16G 6
  20996221.870     2642356.683 7   2058972.43823
  23167797.6444   -5513708.27546  -4296377.04961
  20463399.0974    -752668.10246   -586495.73162
  22502518.745    -7874908.748 6  -6093158.23921
  23356350.737    -4151720.246 5  -3171800.20121
  23822164.292    -2147179.796 5  -1504831.80521
 91  5 14 18 55 44.9990000  0  6G18G11G19G 2G16G 6
  21000895.620     2666912.367 7   2078106.68623
  23161979.8004   -5544298.25046  -4320213.30961
  20462935.714     -755091.967 7   -588384.44522
  22492898.4334   -7925460.87346  -6132549.41061
  23350969.6984   -4180004.75145  -3193840.06561
  23814053.011    -2189822.833 5  -1538060.05021
 91  5 14 18 55 59.9990000  0  6G18G11G19G 2G16G 6
  21005585.550     2691560.027 7   2097312.60723
  23156178.425    -5574770.194 6  -4343957.55521
  20462484.5504    -757472.10546   -590239.09162
  22483288.6364   -7975955.90946  -6171896.09661
  23345613.2614   -4208165.02046  -3215783.11761
  23805936.089    -2232449.802 5  -1571275.83321
 91  5 14 18 56 14.9990000  0  6G18G11G19G 2G16G 6
  21010291.440     2716297.483 7   2116588.49923
  23150399.417    -5605126.185 6  -4367611.47121
  20462037.769     -759810.962 7   -592061.56022
  22473690.0654   -8026395.91546  -6211199.87761
  23340273.847    -4236203.493 5  -3237631.26821
  23797820.9954   -2275063.05045  -1604480.87261
 91  5 14 18 56 29.9990000  0  6G18G11G19G 2G16G 6
  21015016.690     2741123.583 7   2135933.46123
  23144645.5034   -5635367.01446  -4391175.63761
  20461601.901     -762109.484 6   -593852.60322
  22464102.386    -8076781.728 6  -6250461.43421
  23334965.7304   -4264120.68446  -3259384.91261
  23789719.659    -2317663.718 5  -1637676.11121
 91  5 14 18 56 44.9990000  0  6G18G11G19G 2G16G 6
  21019757.995     2766039.250 7   2155348.21423
  23138912.651    -5665491.059 6  -4414648.81321
  20461172.5264    -764366.49147   -595611.30262
  22454525.417    -8127112.056 6  -6289679.76921
  23329673.0194   -4291915.46546  -3281043.18461
  23781617.3554   -2360250.48445  -1670860.53561
 91  5 14 18 56 59.9990000  0  6G18G11G19G 2G16G 6
  21024518.159     2791045.441 7   2174833.51223
  23133202.8944   -5695496.80346  -4438029.78561
  20460749.745     -766580.524 6   -597336.50622
  22444958.3314   -8177385.52446  -6328853.78061
  23324407.6594   -4319586.47246  -3302604.99661
  23773512.4174   -2402822.16945  -1704033.22061
 91  5 14 18 57 14.9990000  0  6G18G11G19G 2G16G 6
  21029292.823     2816142.602 7   2194389.68923
  23127516.097    -5725383.623 6  -4461318.09821
  20460337.542     -768751.233 7   -599027.95722
  22435401.9404   -8227601.50146  -6367983.00961
  23319164.1754   -4347132.98545  -3324069.80761
  23765413.7924   -2445378.38845  -1737193.84461
 91  5 14 18 57 29.9990000  0  6G18G11G19G 2G16G 6
  21034085.776     2841328.454 7   2214014.98023
  23121851.4724   -5755153.55146  -4484515.32061
  20459932.1904    -770881.20346   -600687.66262
  22425856.690    -8277762.231 6  -6407069.17621
  23313951.761    -4374557.382 6  -3345439.45521
  23757319.5114   -2487921.69745  -1770344.43261
 91  5 14 18 57 44.9990000  0  6G18G11G19G 2G16G 6
  21038894.690     2866605.796 7   2233711.56323
  23116209.5194   -5784803.25946  -4507618.87561
  20459534.6754    -772967.38647   -602313.25262
  22416322.792    -8327864.691 6  -6446109.94221
  23308754.394    -4401856.222 5  -3366711.26221
  23749229.394    -2530449.027 4  -1803482.53221
 91  5 14 18 57 59.9990000  0  6G18G11G19G 2G16G 6
  21043724.269     2891976.881 7   2253481.19223
  23110589.487    -5814330.040 6  -4530626.64021
  20459149.8784    -775007.15246   -603902.67562
  22406797.331    -8377906.168 6  -6485103.18721
  23303581.347    -4429027.319 5  -3387883.52721
  23741138.3944   -2572957.94544  -1836606.31761
 91  5 14 18 58 14.9990000  0  6G18G11G19G 2G16G 6
  21048568.597     2917440.295 7   2273322.77023
  23104993.5264   -5843734.87946  -4553539.37761
  20458766.9014    -777001.82547   -605456.96062
  22397286.628    -8427887.584 6  -6524049.62621
  23298431.1594   -4456071.73345  -3408957.07961
  23733051.7144   -2615449.71244  -1869716.69361
 91  5 14 18 58 29.9990000  0  6G18G11G19G 2G16G 6
  21053431.605     2942995.599 7   2293235.94623
  23099421.7064   -5873017.70446  -4576357.03761
  20458396.8554    -778951.61947   -606976.27962
  22387788.2374   -8477809.15146  -6562949.43161
  23293312.0734   -4482989.50845  -3429931.95961
  23724967.401    -2657924.572 5  -1902813.91121
 91  5 14 18 58 44.9990000  0  6G18G11G19G 2G16G 6
  21058312.565     2968639.158 7   2313217.89023
  23093872.0974   -5902181.80646  -4599082.19761
  20458033.8864    -780860.19946   -608463.48962
  22378299.7454   -8527674.24346  -6601805.23261
  23288218.5424   -4509784.14246  -3450810.90361
  23716889.394    -2700386.162 5  -1935900.78921
 91  5 14 18 58 59.9990000  0  6G18G11G19G 2G16G 6
  21063209.292     2994370.937 7   2333268.58323
  23088344.3704   -5931227.06746  -4621714.75461
  20457679.3314    -782727.71946   -609918.69562
  22368822.730    -8577482.836 6  -6640617.01621
  23283142.1204   -4536455.44046  -3471593.74761
  23708810.7924   -2742834.61345  -1968977.41761
 91  5 14 18 59 14.9990000  0  6G18G11G19G 2G16G 6
  21068121.308     3020190.560 7   2353387.72623
  23082841.370    -5960153.003 6  -4644254.30221
  20457329.4174    -784553.96247   -611341.75162
  22359353.8624   -8627234.66546  -6679384.54661
  23278084.1904   -4563003.21246  -3492280.31061
  23700731.5894   -2785269.88045  -2002043.79561
 91  5 14 18 59 29.9990000  0  6G18G11G19G 2G16G 6
  21073053.472     3046097.703 7   2373575.06323
  23077356.542    -5988959.748 6  -4666701.01921
  20456991.3944    -786339.30246   -612732.92362
  22349894.144    -8676930.004 6  -6718108.07521
  23273060.9404   -4589427.54246  -3512870.66461
  23692664.105    -2827692.321 5  -2035100.16721
 91  5 14 18 59 44.9990000  0  6G18G11G19G 2G16G 6
  21077998.503     3072094.963 7   2393832.62723
  23071898.1984   -6017644.22546  -4689052.43661
  20456659.3784    -788081.15347   -614090.21762
  22340450.4484   -8726566.08746  -6756785.42561
  23268058.4254   -4615725.89046  -3533362.87461
  23684591.2924   -2870099.38845  -2068144.56461
 91  5 14 18 59 59.9990000  0  6G18G11G19G 2G16G 6
  21082962.964     3098178.716 7   2414157.58323
  23066464.917    -6046209.665 6  -4711311.11221
  20456334.6204    -789782.86247   -615416.22762
  22331015.9874   -8776146.14746  -6795419.11061
  23263075.206    -4641901.379 6  -3553759.37221
  23676523.3554   -2912494.44945  -2101179.60161
 91  5 14 19  0 14.9990000  0  6G18G11G19G 2G16G 6
  21087943.8004    3124352.74647   2434552.88863
  23061050.105    -6074651.812 6  -4733473.71421
  20456019.2064    -791440.36146   -616707.79862
  22321595.7064   -8825665.95946  -6834005.85961
  23258117.401    -4667949.949 6  -3574056.97721
  23668457.269    -2954873.507 5  -2134202.16421
 91  5 14 19  0 29.9990000  0  6G18G11G19G 2G16G 6
  21092941.347     3150614.988 7   2455016.92223
  23055661.003    -6102972.620 6  -4755541.76321
  20455714.198     -793055.714 6   -617966.52222
  22312180.4724   -8875127.58446  -6872547.26961
  23253187.9724   -4693873.77746  -3594257.38761
  23660399.175    -2997238.821 5  -2167214.00821
 91  5 14 19  0 44.9990000  0  6G18G11G19G 2G16G 6
  21097955.776     3176962.211 7   2475547.18223
  23050296.620    -6131174.513 6  -4777517.16021
  20455411.7224    -794631.64246   -619194.52462
  22302780.065    -8924533.578 6  -6911045.33221
  23248276.620    -4719675.490 5  -3614362.63621
  23652339.706    -3039593.069 5  -2200217.25021
 91  5 14 19  0 59.9990000  0  6G18G11G19G 2G16G 6
  21102984.276     3203394.823 7   2496143.97823
  23044951.964    -6159256.654 6  -4799399.25221
  20455121.9404    -796167.82746   -620391.55862
  22293389.1364   -8973883.27946  -6949499.52261
  23243383.269    -4745354.506 5  -3634372.25321
  23644277.011    -3081935.794 5  -2233211.50221
 91  5 14 19  1 14.9990000  0  6G18G11G19G 2G16G 6
  21108031.284     3229914.146 7   2516808.34323
  23039628.683    -6187217.389 6  -4821186.71921
  20454835.4644    -797662.98747   -621556.62562
  22284006.5654   -9023175.18046  -6987908.67461
  23238523.6364   -4770909.10045  -3654284.92461
  23636227.690    -3124265.632 5  -2266195.70821
 91  5 14 19  1 29.9990000  0  6G18G11G19G 2G16G 6
  21113093.2534    3256522.43547   2537542.03163
  23034332.550    -6215054.379 6  -4842877.78021
  20454560.2694    -799114.80746   -622687.91462
  22274638.0894   -9072407.17946  -7026271.14961
  23233688.5584   -4796337.13045  -3674098.96061
  23628171.737    -3166580.459 5  -2299168.20321
 91  5 14 19  1 44.9990000  0  6G18G11G19G 2G16G 6
  21118175.292     3283223.671 7   2558348.14823
  23029061.964    -6242763.217 6  -4864468.96921
  20454291.6124    -800519.14146   -623782.20862
  22265282.5344   -9121574.82646  -7064583.47261
  23228872.4174   -4821634.19645  -3693810.95161
  23620129.237    -3208876.210 4  -2332125.85121
 91  5 14 19  1 59.9990000  0  6G18G11G19G 2G16G 6
  21123273.862     3310011.673 7   2579221.87023
  23023809.644    -6270349.453 6  -4885964.64521
  20454037.0424    -801881.75446   -624843.98862
  22255939.1904   -9170683.84846  -7102850.12661
  23224081.9094   -4846805.92646  -3713425.28061
  23612076.2764   -3251158.90145  -2365073.29661
 91  5 14 19  2 14.9990000  0  6G18G11G19G 2G16G 6
  21128387.9724    3336888.45247   2600164.77063
  23018586.331    -6297810.571 6  -4907362.81221
  20453783.5194    -803200.46547   -625871.55262
  22246601.933    -9219731.753 6  -7141069.15921
  23219316.995    -4871850.176 5  -3732940.30221
  23604039.3084   -3293426.16645  -2398008.74861
 91  5 14 19  2 29.9990000  0  6G18G11G19G 2G16G 6
  21133518.8704    3363854.19847   2621177.00163
  23013382.433    -6325145.997 6  -4928663.04021
  20453542.5034    -804475.02346   -626864.71262
  22237282.112    -9268718.127 6  -7179240.24721
  23214574.9484   -4896766.68645  -3752355.76761
  23596000.7224   -3335677.74345  -2430931.94661
 91  5 14 19  2 44.9990000  0  6G18G11G19G 2G16G 6
  21138668.480     3390907.319 7   2642257.31123
  23008205.6754   -6352356.93046  -4949866.26261
  20453304.5424    -805706.88946   -627824.60962
  22227971.175    -9317644.452 6  -7217364.54321
  23209856.2454   -4921556.82145  -3771672.76361
  23587960.894    -3377915.181 5  -2463844.15521
 91  5 14 19  2 59.9990000  0  6G18G11G19G 2G16G 6
  21143832.550     3418052.359 7   2663409.24723
  23003050.440    -6379438.674 6  -4970968.81721
  20453080.8704    -806891.51946   -628747.69562
  22218673.940    -9366506.059 6  -7255438.41421
  23205165.3314   -4946215.72146  -3790887.47461
  23579925.8084   -3420133.97345  -2496741.80761
 91  5 14 19  3 14.9990000  0  6G18G11G19G 2G16G 6
  21149015.948     3445285.475 7   2684629.80623
  22997922.847    -6406394.334 6  -4991973.13321
  20452861.3474    -808032.23946   -629636.56862
  22209388.698    -9415306.136 6  -7293464.34321
  23200498.9954   -4970746.75446  -3810002.57061
  23571894.0424   -3462337.55945  -2529627.62161
 91  5 14 19  3 29.9990000  0  6G18G11G19G 2G16G 6
  21154214.190     3472611.328 7   2705922.63023
  22992818.253    -6433219.049 6  -5012875.39721
  20452656.2614    -809124.45546   -630487.65162
  22200114.019    -9464039.702 6  -7331438.45421
  23195855.0424   -4995145.28946  -3829014.41461
  23563869.276    -3504521.319 5  -2562498.00121
 91  5 14 19  3 44.9990000  0  6G18G11G19G 2G16G 6
  21159432.276     3500023.301 7   2727282.56423
  22987736.6204   -6459918.80346  -5033680.28761
  20452454.0654    -810174.48946   -631305.86062
  22190851.261    -9512713.015 6  -7369365.60421
  23191236.128    -5019417.506 6  -3847927.83821
  23555841.386    -3546691.512 5  -2595357.81521
 91  5 14 19  3 59.9990000  0  6G18G11G19G 2G16G 6
  21164665.370     3527522.954 7   2748710.81423
  22982678.284    -6486492.038 6  -5054386.61121
  20452267.7144    -811181.00746   -632090.16562
  22181599.6444   -9561324.76146  -7407244.79561
  23186643.612    -5043561.691 6  -3866741.49921
  23547819.573    -3588846.918 5  -2628206.08921
 91  5 14 19  4 14.9990000  0  6G18G11G19G 2G16G 6
  21169913.706     3555111.258 7   2770208.14623
  22977649.6904   -6512937.18946  -5074993.10661
  20452079.1834    -812142.51347   -632839.39662
  22172360.7534   -9609873.51846  -7445074.89661
  23182070.2224   -5067576.74546  -3885454.51661
  23539801.0194   -3630986.33845  -2661041.92661
 91  5 14 19  4 29.9990000  0  6G18G11G19G 2G16G 6
  21175180.753     3582790.689 7   2791776.48823
  22972641.2534   -6539251.53046  -5095497.71661
  20451908.0194    -813056.56746   -633551.65362
  22163136.8864   -9658356.60346  -7482853.82861
  23177527.831    -5091459.857 6  -3904064.73821
  23531787.0264   -3673107.08645  -2693863.18361
 91  5 14 19  4 44.9990000  0  6G18G11G19G 2G16G 6
  21180464.839     3610554.728 7   2813410.75123
  22967655.698    -6565441.116 6  -5115905.06821
  20451740.9954    -813929.54647   -634231.90262
  22153919.5504   -9706780.18246  -7520586.39462
  23173004.706    -5115217.492 6  -3922577.20321
  23523772.448    -3715215.710 5  -2726675.00221
 91  5 14 19  4 59.9990000  0  6G18G11G19G 2G16G 6
  21185765.667     3638399.345 7   2835107.80623
  22962695.0504   -6591509.46946  -5136217.97761
  20451582.4484    -814765.27646   -634883.12962
  22144715.9254   -9755147.79446  -7558275.35861
  23168507.6204   -5138853.27846  -3940994.70061
  23515758.3234   -3757315.99645  -2759480.31961
 91  5 14 19  5 14.9990000  0  6G18G11G19G 2G16G 6
  21191081.4564    3666334.86747   2856875.68462
  22957761.0504   -6617445.84446  -5156428.04461
  20451430.5194    -815553.14146   -635497.05862
  22135524.2224   -9803448.85646  -7595912.46061
  23164034.6754   -5162356.55146  -3959308.94161
  23507753.565    -3799397.320 5  -2792270.86421
 91  5 14 19  5 29.9990000  0  6G18G11G19G 2G16G 6
  21196413.620     3694357.932 7   2878711.79023
  22952849.2064   -6643253.00446  -5176537.43161
  20451293.073     -816296.324 6   -636076.17322
  22126348.878    -9851686.337 6  -7633500.02022
  23159585.9334   -5185730.16346  -3977522.11661
  23499746.6674   -3841462.89845  -2825049.14761
 91  5 14 19  5 44.9990000  0  6G18G11G19G 2G16G 6
  21201761.847     3722467.857 7   2900615.57923
  22947963.7694   -6668931.63646  -5196546.66061
  20451156.987     -816995.674 7   -636621.13122
  22117179.347    -9899860.735 6  -7671038.42521
  23155161.0584   -5208975.06545  -3995635.03461
  23491745.6284   -3883513.63545  -2857815.85861
 91  5 14 19  5 59.9990000  0  6G18G11G19G 2G16G 6
  21207127.831     3750671.120 7   2922592.10323
  22943102.7764   -6694474.63246  -5216450.19761
  20451033.6674    -817644.13746   -637126.43162
  22108024.042    -9947965.364 6  -7708522.47022
  23150767.5974   -5232084.25346  -4013642.19761
  23483745.347    -3925542.551 5  -2890565.58521
 91  5 14 19  6 14.9990000  0  6G18G11G19G 2G16G 6
  21212512.800     3778960.660 7   2944635.84623
  22938264.573    -6719888.554 6  -5236253.16921
  20450917.8084    -818248.69846   -637597.52462
  22098882.597    -9996006.841 6  -7745957.31422
  23146395.7454   -5255064.52446  -4031548.90161
  23475754.8704   -3967556.74345  -2923303.85461
 91  5 14 19  6 29.9990000  0  6G18G11G19G 2G16G 6
  21217913.2304    3807336.49847   2966746.83563
  22933454.1204   -6745173.18046  -5255955.38461
  20450815.7534    -818809.29846   -638034.36762
  22089752.659   -10043985.011 6  -7783342.81521
  23142044.4724   -5277915.58645  -4049354.93561
  23467759.925    -4009556.147 5  -2956030.57721
 91  5 14 19  6 44.9990000  0  6G18G11G19G 2G16G 6
  21223330.112     3835801.851 7   2988927.57823
  22928668.4724   -6770324.81346  -5275553.96261
  20450714.4644    -819322.60946   -638434.35862
  22080634.987   -10091896.420 6  -7820676.29821
  23137723.0194   -5300634.03046  -4067057.61061
  23459774.511    -4051537.339 5  -2988743.16121
 91  5 14 19  6 59.9990000  0  6G18G11G19G 2G16G 6
  21228762.011     3864355.465 7   3011177.09423
  22923908.620    -6795344.547 6  -5295049.77221
  20450624.526     -819789.807 6   -638798.41622
  22071530.0734  -10139742.12146  -7857958.58862
  23133423.8314   -5323221.11146  -4084657.93861
  23451784.9564   -4093501.68945  -3021442.59161
 91  5 14 19  7 14.9990000  0  6G18G11G19G 2G16G 6
  21234211.269     3892991.422 7   3033490.77323
  22919168.5194   -6820237.54646  -5314446.82861
  20450543.3554    -820216.38547   -639130.81862
  22062437.339   -10187527.393 6  -7895193.78521
  23129148.8084   -5345682.40146  -4102160.24761
  23443799.901    -4135454.714 5  -3054133.19121
 91  5 14 19  7 29.9990000  0  6G18G11G19G 2G16G 6
  21239677.190     3921712.055 7   3055870.42822
  22914457.245    -6845001.140 6  -5333743.05221
  20450471.3944    -820599.85046   -639429.62762
  22053356.5504  -10235249.69546  -7932379.92961
  23124899.5894   -5368015.01046  -4119562.28261
  23435818.5734   -4177393.90145  -3086813.00261
 91  5 14 19  7 44.9990000  0  6G18G11G19G 2G16G 6
  21245156.683     3950518.618 7   3078317.04722
  22909768.2064   -6869633.77146  -5352937.23061
  20450406.4724    -820938.84847   -639693.78462
  22044289.519   -10282907.614 6  -7969515.89221
  23120675.5584   -5390217.66646  -4136863.05761
  23427847.1284   -4219317.94345  -3119481.01461
 91  5 14 19  7 59.9990000  0  6G18G11G19G 2G16G 6
  21250659.2924    3979419.84547   3100837.42362
  22905108.2764   -6894126.44346  -5372022.33761
  20450354.9254    -821224.56846   -639916.43162
  22035233.2924  -10330492.20546  -8006594.72361
  23116474.2534   -5412281.65046  -4154055.77661
  23419869.409    -4261218.120 5  -3152130.41721
 91  5 14 19  8 14.9990000  0  6G18G11G19G 2G16G 6
  21256175.2844    4008408.73647   3123426.12162
  22900473.1984   -6918485.56246  -5391003.38161
  20450307.6204    -821463.69947   -640102.77362
  22026189.3154  -10378009.98246  -8043621.49561
  23112303.440    -5434213.199 6  -4171145.30021
  23411899.1514   -4303101.12145  -3184766.42361
 91  5 14 19  8 29.9990000  0  6G18G11G19G 2G16G 6
  21261706.1984    4037481.94747   3146080.51362
  22895860.675    -6942713.832 6  -5409882.46821
  20450268.3554    -821659.07446   -640255.01662
  22017159.050   -10425463.794 6  -8080598.40821
  23108152.2764   -5456015.40246  -4188134.03961
  23403938.2454   -4344969.93645  -3217391.38061
 91  5 14 19  8 44.9990000  0  6G18G11G19G 2G16G 6
  21267255.7534    4066640.87047   3168801.69062
  22891279.0114   -6966809.62846  -5428658.33061
  20450240.7304    -821809.33147
  22008141.425   -10472852.020 6  -8117524.22622
  23104029.2374   -5477686.84046  -4205020.88061
  23395965.933    -4386823.045 5  -3250004.10921
 91  5 14 19  8 59.9990000  0  6G18G11G19G 2G16G 6
  21272822.8234    4095891.38047   3191594.23662
  22886717.620    -6990766.887 6  -5447326.23121
  20450224.5344    -821908.60546
  21999138.628   -10520168.679 6  -8154394.27522
  23099931.0814   -5499221.32445  -4221800.99761
  23388012.714    -4428654.714 5  -3282600.14021
 91  5 14 19  9 14.9990000  0  6G18G11G19G 2G16G 6
  21278404.7144    4125225.74347   3214452.12262
  22882185.917    -7014592.997 6  -5465891.95421
  20450212.0344    -821964.59047
  21990145.4484  -10567421.30146  -8191214.42461
  23095860.6904   -5520626.53446  -4238480.39161
  23380050.9254   -4470472.71345  -3315185.53661
 91  5 14 19  9 29.9990000  0  6G18G11G19G 2G16G 6
  21284002.3784    4154645.01847   3237376.17462
  22877673.4254   -7038286.49946  -5484354.34561
  20450209.0814    -821975.98246
  21981166.5344  -10614608.44846  -8227983.56361
  23091810.886    -5541901.388 6  -4255058.22421
  23372100.8554   -4512275.63645  -3347759.16861
 91  5 14 19  9 44.9990000  0  6G18G11G19G 2G16G 6
  21289618.0424    4184153.25947   3260369.54562
  22873190.6124   -7061843.04046  -5502710.00761
  20450214.9094    -821938.50046
  21972199.315   -10661725.905 6  -8264698.39021
  23087788.1514   -5563041.64445  -4271531.16361
  23364143.7764   -4554059.50745  -3380317.96961
 91  5 14 19  9 59.9990000  0  6G18G11G19G 2G16G 6
  21295247.8004    4213746.52347   3283429.16962
  22868739.542    -7085266.216 6  -5520961.76521
  20450233.5894    -821855.99146
  21963245.9644  -10708777.45646  -8301361.86761
  23083786.3084   -5584050.98346  -4287902.06761
  23356197.534    -4595828.135 5  -3412864.87621
 91  5 14 19 10 14.9980000  0  6G18G11G19G 2G16G 6
  21300898.7014    4243423.82247   3306554.27462
  22864305.311    -7108552.904 6  -5539107.16721
  20450257.3184    -821726.94647
  21954306.397   -10755758.440 6  -8337970.35521
  23079817.8344   -5604926.58446  -4304168.79561
  23348248.529    -4637577.347 5  -3445396.63721
 91  5 14 19 10 29.9980000  0  6G18G11G19G 2G16G 6
  21306559.6074    4273184.57247   3329744.40362
  22859899.0764   -7131710.27946  -5557151.81161
  20450293.0374    -821555.76946
  21945376.3894  -10802679.25446  -8374531.96561
  23075867.9984   -5625675.52146  -4320336.81561
  23340306.3344   -4679317.13145  -3477921.06061
 91  5 14 19 10 44.9980000  0  6G18G11G19G 2G16G 6
  21312241.6784    4303030.63947   3353001.01762
  22855515.7644   -7154732.77446  -5575091.34161
  20450330.2324    -821338.72647
  21936459.3574  -10849532.74246  -8411041.11361
  23071945.350    -5646292.141 6  -4336401.72721
  23332367.6704   -4721040.92845  -3510433.02661
 91  5 14 19 10 59.9980000  0  6G18G11G19G 2G16G 6
  21317934.2094    4332962.59247   3376324.55462
  22851161.3264   -7177619.23246  -5592924.87261
  20450380.7794    -821074.89647   -639799.82562
  21927556.740   -10896317.998 6  -8447497.08221
  23068048.068    -5666775.805 6  -4352363.03921
  23324435.303    -4762747.712 5  -3542931.73621
 91  5 14 19 11 14.9980000  0  6G18G11G19G 2G16G 6
  21323647.9044    4362984.71547   3399718.35462
  22846830.8894   -7200365.07246  -5610648.85161
  20450439.8264    -820759.71346   -639554.22862
  21918669.2644  -10943030.52946  -8483896.39361
  23064176.0144   -5687122.20746  -4368217.38661
  23316495.170    -4804433.170 5  -3575413.83121
 91  5 14 19 11 29.9980000  0  6G18G11G19G 2G16G 6
  21329375.8654    4393088.32947   3423175.64862
  22842527.584    -7222978.594 6  -5628269.69921
  20450511.7724    -820401.69646   -639275.26362
  21909792.3734  -10989678.61046  -8520245.48061
  23060328.248    -5707339.635 6  -4383971.24921
  23308571.061    -4846105.926 5  -3607886.04821
 91  5 14 19 11 44.9980000  0  6G18G11G19G 2G16G 6
  21335126.3184    4423278.75647   3446700.59262
  22838253.084    -7245454.014 6  -5645782.96721
  20450584.9284    -819995.33447   -638958.61862
  21900927.5684  -11036256.61646  -8556539.96162
  23056507.373    -5727422.285 6  -4399620.09021
  23300645.2724   -4887760.42745  -3640344.02061
 91  5 14 19 11 59.9980000  0  6G18G11G19G 2G16G 6
  21340881.5064    4453552.53447   3470290.48462
  22834000.5534   -7267794.40646  -5663191.01461
  20450676.2724    -819544.06746   -638606.98562
  21892078.693   -11082767.763 7  -8592782.33522
  23052710.0924   -5747373.49646  -4415166.48061
  23292720.764    -4929399.967 5  -3672790.33721
 91  5 14 19 12 14.9980000  0  6G18G11G19G 2G16G 6
  21346659.9674    4483910.99847   3493946.36362
  22829774.084    -7289998.183 6  -5680492.60321
  20450768.1474    -819046.27847   -638219.10162
  21883239.4364  -11129210.42947  -8628971.36362
  23048938.2874   -5767192.12146  -4430609.60161
  23284796.3654   -4971023.26345  -3705224.01261
 91  5 14 19 12 29.9980000  0  6G18G11G19G 2G16G 6
  21352457.8504    4514360.35047   3517673.06362
  22825579.4434   -7312058.67146  -5697682.57461
  20450872.5294    -818495.44847   -637789.89062
  21874415.193   -11175577.946 6  -8665101.82822
  23045191.6784   -5786871.42346  -4445944.12061
  23276882.068    -5012623.741 5  -3737639.89021
 91  5 14 19 12 44.9980000  0  6G18G11G19G 2G16G 6
  21358271.225     4544922.491 7   3541487.14522
  22821412.1314   -7333953.61846  -5714744.01561
  20450989.7094    -817869.62346   -637302.74562
  21865610.7404  -11221848.16847  -8701156.97462
  23041479.584    -5806389.237 6  -4461153.33821
  23268973.732    -5054179.423 5  -3770021.38021
 91  5 14 19 12 59.9980000  0  6G18G11G19G 2G16G 6
  21364171.1474    4575942.02647   3565658.64862
  22817345.232    -7355337.262 6  -5731406.82321
  20451191.7644    -816823.12646   -636487.57562
  21856889.123   -11267675.594 7  -8736866.85522
  23037863.631    -5825399.868 6  -4475967.10121
  23261140.5684   -5095344.67445  -3802098.42561
 91  5 14 19 13 14.9980000  0  6G18G11G19G 2G16G 6
  21370089.8894    4607025.67847   3589879.60762
  22813292.7564   -7376604.14146  -5747978.39061
  20451391.7324    -815750.91446   -635652.09262
  21848181.975   -11313454.974 7  -8772539.03022
  23034263.139    -5844298.149 6  -4490693.05421
  23253301.303    -5136514.509 5  -3834178.75021
 91  5 14 19 13 29.9980000  0  6G18G11G19G 2G16G 6
  21376020.9204    4638196.06247   3614168.15362
  22809275.436    -7397730.462 6  -5764440.40121
  20451607.3734    -814629.27446   -634778.09362
  21839481.584   -11359162.498 7  -8808155.20822
  23030699.217    -5863060.489 6  -4505313.08521
  23245475.936    -5177665.157 5  -3866244.11121
 91  5 14 19 13 44.9980000  0  6G18G11G19G 2G16G 6
  21381969.529     4669447.842 7   3638520.11522
  22805280.178    -7418721.189 6  -5780796.76721
  20451826.8974    -813463.36646   -633869.59762
  21830796.912   -11404803.090 7  -8843719.23622
  23027151.514    -5881691.893 6  -4519831.07721
  23237648.022    -5218801.850 5  -3898298.61821
 91  5 14 19 13 59.9980000  0  6G18G11G19G 2G16G 6
  21387931.998     4700781.727 7   3662936.05922
  22801314.420    -7439575.290 6  -5797046.66121
  20452061.1544    -812252.13946   -632925.79362
  21822125.522   -11450375.711 7  -8879230.29522
  23023629.3344   -5900191.49046  -4534246.35561
  23229823.131    -5259923.715 5  -3930341.57021
 91  5 14 19 14 14.9980000  0  6G18G11G19G 2G16G 6
  21393910.4594    4732204.64347   3687421.37662
  22797369.5294   -7460285.42546  -5813184.39061
  20452300.7094    -810988.46746   -631941.10862
  21813465.1314  -11495872.99047  -8914682.65162
  23020134.365    -5918552.209 6  -4548553.42521
  23222001.3814   -5301023.76845  -3962367.49361
 91  5 14 19 14 29.9980000  0  6G18G11G19G 2G16G 6
  21399905.6934    4763713.37047   3711973.56162
  22793456.029    -7480854.497 6  -5829212.19921
  20452554.7094    -809675.50746   -630918.02862
  21804820.834   -11541298.135 7  -8950078.80022
  23016667.6624   -5936777.00346  -4562754.59361
  23214182.701    -5342105.042 5  -3994378.79321
 91  5 14 19 14 44.9980000  0  6G18G11G19G 2G16G 6
  21405917.264     4795308.853 7   3736593.34422
  22789571.5684   -7501281.12146  -5845129.01461
  20452809.6864    -808312.06646   -629855.60962
  21796191.123   -11586649.860 7  -8985417.72922
  23013227.0614   -5954864.46346  -4576848.73061
  23206365.6074   -5383166.45145  -4026374.63961
 91  5 14 19 14 59.9980000  0  6G18G11G19G 2G16G 6
  21411946.631     4826985.189 7   3761276.12722
  22785708.9434   -7521570.69646  -5860939.01261
  20453078.7644    -806903.66146   -628758.14862
  21787574.5614  -11631933.46447  -9020703.58962
  23009809.811    -5972820.147 6  -4590840.18621
  23198557.4284   -5424213.54645  -4058359.31561
 91  5 14 19 15 14.9980000  0  6G18G11G19G 2G16G 6
  21417988.842     4858742.997 7   3786022.39722
  22781877.7724   -7541722.30046  -5876641.52561
  20453355.3114    -805449.62246   -627625.13062
  21778971.248   -11677148.234 7  -9055935.80522
  23006417.7014   -5990643.76546  -4604728.74561
  23190748.9514   -5465245.54845  -4090332.23861
 91  5 14 19 15 29.9980000  0  6G18G11G19G 2G16G 6
  21424050.412     4890583.463 7   3810833.07822
  22778067.7014   -7561734.44046  -5892235.35061
  20453640.8574    -803948.56946   -626455.47162
  21770377.717   -11722292.763 7  -9091113.28322
  23003049.6004   -6008333.56146  -4618513.02561
  23182949.326    -5506261.306 5  -4122292.49921
 91  5 14 19 15 44.9980000  0  6G18G11G19G 2G16G 6
  21430125.428     4922504.732 7   3835706.71422
  22774282.3734   -7581608.40046  -5907721.51461
  20453934.1474    -802402.02946   -625250.37762
  21761800.1234  -11767368.38647  -9126237.07862
  22999710.584    -6025891.068 6  -4632194.22421
  23175140.514    -5547262.264 5  -4154241.22721
 91  5 14 19 15 59.9980000  0  6G18G11G19G 2G16G 6
  21436213.014     4954508.921 7   3860644.97422
  22770530.5294   -7601342.13446  -5923098.40061
  20454238.3264    -800808.02846   -624008.29062
  21753236.9514  -11812373.10347  -9161305.61362
  22996393.795    -6043314.790 6  -4645771.17321
  23167346.811    -5588246.660 5  -4186177.04321
 91  5 14 19 16 14.9980000  0  6G18G11G19G 2G16G 6
  21442318.061     4986594.229 7   3885646.43522
  22766797.311    -7620936.810 6  -5938366.93721
  20454549.4364    -799167.69046   -622730.10362
  21744684.7014  -11857308.21747  -9196319.92262
  22993106.8814   -6060605.69446  -4659244.64561
  23159544.3424   -5629215.66245  -4218100.86561
 91  5 14 19 16 29.9980000  0  6G18G11G19G 2G16G 6
  21448443.201     5018763.198 7   3910713.09222
  22763102.373    -7640389.629 6  -5953524.92621
  20454875.4904    -797478.57246   -621413.90262
  21736148.381   -11902170.930 7  -9231277.80922
  22989838.201    -6077761.049 6  -4672612.46721
  23151751.982    -5670166.788 5  -4250010.75921
 91  5 14 19 16 44.9980000  0  6G18G11G19G 2G16G 6
  21454574.850     5051011.945 7   3935841.91422
  22759419.967    -7659703.973 6  -5968575.02521
  20455201.3424    -795744.25446   -620062.48162
  21727623.7564  -11946964.60147  -9266181.89562
  22986602.045    -6094784.347 6  -4685877.38521
  23143965.451    -5711103.617 5  -4281909.50621
 91  5 14 19 16 59.9980000  0  6G18G11G19G 2G16G 6
  21460731.139     5083346.262 7   3961037.40822
  22755773.990    -7678873.827 6  -5983512.53821
  20455542.2014    -793958.75346   -618671.18162
  21719114.6544  -11991683.25847  -9301027.53362
  22983387.951    -6111669.687 6  -4699034.81321
  23136177.709    -5752020.281 5  -4313792.56921
 91  5 14 19 17 14.9980000  0  6G18G11G19G 2G16G 6
  21466898.998     5115766.985 7   3986300.23022
  22752151.162    -7697898.022 6  -5998336.54121
  20455888.9904    -792121.16246   -617239.28662
  21710620.6474  -12036325.92847  -9335813.95862
  22980199.490    -6128416.183 6  -4712084.05421
  23128396.6864   -5792915.89645  -4345659.19761
 91  5 14 19 17 29.9980000  0  6G18G11G19G 2G16G 6
  21473085.443     5148267.290 7   4011625.06722
  22748560.8654   -7716782.86546  -6013051.96261
  20456250.6234    -790237.86046   -615771.77762
  21702137.0454  -12080899.05747  -9370546.20062
  22977038.178    -6145030.486 6  -4725030.27221
  23120617.0614   -5833797.02745  -4377514.55361
 91  5 14 19 17 44.9980000  0  6G18G11G19G 2G16G 6
  21479287.920     5180855.389 7   4037018.31322
  22744993.678    -7735519.711 6  -6027652.05421
  20456616.4364    -788300.57146   -614262.19562
  21693672.6934  -12125394.08647  -9405217.58762
  22973904.084    -6161503.821 6  -4737866.65821
  23112839.865    -5874655.175 5  -4409352.01821
 91  5 14 19 17 59.9980000  0  6G18G11G19G 2G16G 6
  21485501.186     5213518.019 7   4062469.63222
  22741456.287    -7754121.522 6  -6042146.91521
  20456994.8264    -786322.27246   -612720.65862
  21685216.2874  -12169824.00047  -9439838.23562
  22970792.7724   -6177849.46546  -4750603.56161
  23105068.678    -5915503.518 5  -4441181.84321
 91  5 14 19 18 14.9980000  0  6G18G11G19G 2G16G 6
  21491733.654     5246260.276 7   4087983.00222
  22737942.498    -7772582.990 6  -6056532.41921
  20457379.6934    -784297.62146   -611143.00862
  21676776.9824  -12214183.37347  -9474403.91362
  22967709.8574   -6194062.35246  -4763237.01261
  23097297.193    -5956336.748 5  -4472999.90021
 91  5 14 19 18 29.9980000  0  6G18G11G19G 2G16G 6
  21497980.170     5279088.897 7   4113563.66722
  22734458.2014   -7790897.23146  -6070803.20761
  20457776.6074    -782219.88646   -609523.99462
  21668349.2254  -12258465.32247  -9508909.26862
  22964651.147    -6210135.434 6  -4775761.51021
  23089531.029    -5997148.300 5  -4504801.06421
 91  5 14 19 18 44.9980000  0  6G18G11G19G 2G16G 6
  21504242.068     5311995.196 7   4139204.85822
  22730999.397    -7809072.369 6  -6084965.59021
  20458179.0454    -780097.43146   -607870.13062
  21659934.1864  -12302678.14147  -9543360.74262
  22961616.2014   -6226077.13446  -4788183.65161
  23081765.865    -6037946.552 5  -4536591.86721
 91  5 14 19 18 59.9980000  0  6G18G11G19G 2G16G 6
  21510518.318     5344990.404 7   4164915.32322
  22727568.365    -7827096.892 6  -6099010.61921
  20458595.4514    -777918.86146   -606172.54462
  21651535.7254  -12346810.45847  -9577749.49762
  22958608.951    -6241875.924 6  -4800494.41721
  23074010.795    -6078720.066 5  -4568363.37421
 91  5 14 19 19 14.9980000  0  6G18G11G19G 2G16G 6
  21516815.756     5378072.539 7   4190693.53522
  22724166.8184   -7844972.02846  -6112939.23661
  20459016.8974    -775685.72546   -604432.43762
  21643154.4594  -12390863.53647  -9612076.50062
  22955628.553    -6257533.147 6  -4812694.87121
  23066254.7874   -6119470.35445  -4600116.77861
 91  5 14 19 19 29.9980000  0  6G18G11G19G 2G16G 6
  21523128.334     5411236.321 7   4216535.35922
  22720790.1004   -7862703.05446  -6126755.56161
  20459453.0064    -773403.29846   -602653.92162
  21634784.9364  -12434842.71047  -9646345.92162
  22952673.123    -6273054.773 6  -4824789.66221
  23058507.342    -6160202.847 5  -4631856.33021
 91  5 14 19 19 44.9980000  0  6G18G11G19G 2G16G 6
  21529453.193     5444482.216 7   4242441.16922
  22717447.178    -7880288.914 6  -6140458.78321
  20459894.4754    -771070.77746   -600836.36962
  21626429.5374  -12478746.95747  -9680556.96462
  22949747.959    -6288439.608 6  -4836777.86021
  23050756.498    -6200916.651 5  -4663581.32621
 91  5 14 19 19 59.9980000  0  6G18G11G19G 2G16G 6
  21535793.842     5477805.660 7   4268407.41322
  22714126.7724   -7897733.88746  -6154052.20061
  20460349.4594    -768692.51746   -598983.17962
  21618086.9364  -12522580.75547  -9714713.10362
  22946848.1864   -6303691.94046  -4848662.79361
  23043015.404    -6241616.266 5  -4695295.26521
 91  5 14 19 20 14.9980000  0  6G18G11G19G 2G16G 6
  21542152.889     5511206.375 7   4294433.85822
  22710832.795    -7915038.209 6  -6167536.03421
  20460808.4434    -766268.84246   -597094.60162
  21609760.4674  -12566344.18847  -9748814.41962
  22943967.662    -6318812.295 6  -4860444.91521
  23035272.725    -6282301.983 5  -4726998.37021
 91  5 14 19 20 29.9980000  0  6G18G11G19G 2G16G 6
  21548522.904     5544701.458 6   4320533.84922
  22707569.9674   -7932184.19146  -6180896.47461
  20461283.7404    -763782.19546   -595156.95062
  21601449.6474  -12610019.64747  -9782847.17962
  22941117.834    -6333783.268 6  -4872110.62221
  23027532.9124   -6322956.47445  -4758677.16161
 91  5 14 19 20 44.9980000  0  6G18G11G19G 2G16G 6
  21554916.459     5578285.804 7   4346703.38122
  22704335.100    -7949176.444 6  -6194137.12921
  20461766.0924    -761237.26646   -593173.88862
  21593152.5224  -12653611.91547  -9816815.11662
  22938299.389    -6348609.734 6  -4883663.73521
  23019800.8574   -6363584.53445  -4790335.34261
 91  5 14 19 20 59.9980000  0  6G18G11G19G 2G16G 6
  21561322.529     5611950.798 7   4372935.76521
  22701132.9124   -7966023.38946  -6207264.56361
  20462261.0684    -758642.75046   -591152.19362
  21584871.6934  -12697129.53447  -9850724.89362
  22935503.5374   -6363300.09346  -4895110.80861
  23012074.600    -6404194.700 5  -4821979.57621
 91  5 14 19 21 14.9980000  0  6G18G11G19G 2G16G 6
  21567743.6394    5645697.31347   4399231.67262
  22697949.0064   -7982724.07146  -6220278.02061
  20462762.8814    -755997.73246   -589091.14362
  21576604.561   -12740571.354 7  -9884575.59122
  22932735.123    -6377853.354 6  -4906451.04221
  23004351.4674   -6444786.13245  -4853609.21461
 91  5 14 19 21 29.9980000  0  6G18G11G19G 2G16G 6
  21574183.107     5679529.180 7   4425594.08422
  22694806.272    -7999274.172 6  -6233174.14821
  20463279.0374    -753298.02646   -586987.47462
  21568353.9124  -12783933.09747  -9918363.90362
  22929989.7404   -6392265.24246  -4917681.11161
  22996629.232    -6485354.594 5  -4885220.95721
 91  5 14 19 21 44.9980000  0  6G18G11G19G 2G16G 6
  21580634.857     5713441.518 6   4452019.20222
  22691681.678    -8015678.071 6  -6245956.35621
  20463801.2014    -750548.08646   -584844.67462
  21560118.9124  -12827219.35247  -9952093.39962
  22927270.9904   -6406540.61446  -4928804.80561
  22988911.522    -6525904.695 6  -4916818.39421
 91  5 14 19 21 59.9980000  0  6G18G11G19G 2G16G 6
  21587103.678     5747431.566 6   4478504.87622
  22688585.842    -8031938.236 6  -6258626.56221
  20464334.4204    -747750.30446   -582664.58862
  21551892.8424  -12870432.70647  -9985766.07962
  22924583.170    -6420682.038 6  -4939824.11921
  22981199.389    -6566439.115 5  -4948403.60921
 91  5 14 19 22 14.9980000  0  6G18G11G19G 2G16G 6
  21593585.803     5781496.278 6   4505048.72722
  22685515.5924   -8048057.44546  -6271186.92661
  20464875.5614    -744907.74846   -580449.61262
  21543685.8574  -12913575.66347 -10019383.91262
  22921917.701    -6434692.079 6  -4950741.05321
  22973487.232    -6606960.863 5  -4979978.93621
 91  5 14 19 22 29.9980000  0  6G18G11G19G 2G16G 6
  21600083.615     5815638.605 6   4531653.06222
  22682478.732    -8064032.387 6  -6283634.88721
  20465427.0844    -742017.19146   -578197.24262
  21535488.4204  -12956645.07247 -10052944.42962
  22919276.475    -6448567.961 6  -4961553.44121
  22965780.115    -6647466.644 6  -5011541.82921
 91  5 14 19 22 44.9980000  0  6G18G11G19G 2G16G 6
  21606597.662     5849868.400 6   4558325.54922
  22679468.928    -8079852.916 6  -6295962.51921
  20465985.467     -739068.813 6   -575899.81422
  21527308.0614  -12999630.98147 -10086439.88262
  22916667.256    -6462299.588 6  -4972253.44121
  22958077.928    -6687946.578 5  -5043084.58021
 91  5 14 19 22 59.9980000  0  6G18G11G19G 2G16G 6
  21613128.514     5884183.272 6   4585064.32922
  22676488.2174   -8095521.01246  -6308171.37261
  20466560.6394    -736064.55746   -573558.84962
  21519144.592   -13042535.254 7 -10119871.72722
  22914077.1394   -6475888.85946  -4982842.51161
  22950375.326    -6728402.737 5  -5074608.80321
 91  5 14 19 23 14.9980000  0  6G18G11G19G 2G16G 6
  21619672.506     5918575.703 6   4611863.55022
  22673533.295    -8111043.499 6  -6320266.76621
  20467137.936     -733011.433 6   -571179.80222
  21510993.0374  -13085364.86147 -10153245.39162
  22911516.248    -6489343.049 6  -4993326.31321
  22942680.217    -6768842.155 5  -5106119.99421
 91  5 14 19 23 29.9980000  0  6G18G11G19G 2G16G 6
  21626231.428     5953045.379 6   4638722.95722
  22670606.2324   -8126420.79146  -6332249.01561
  20467728.342     -729909.828 6   -568762.97922
  21502856.6394  -13128120.18647 -10186561.17062
  22908984.1314   -6502662.48946  -5003705.13561
  22934991.045    -6809265.320 6  -5137618.50821
 91  5 14 19 23 44.9980000  0  6G18G11G19G 2G16G 6
  21632805.397     5987592.652 6   4665642.83422
  22667710.5454   -8141652.20946  -6344117.59061
  20468328.178     -726759.216 6   -566307.97022
  21494736.8264  -13170800.68247 -10219818.64062
  22906474.475    -6515847.200 6  -5013978.95221
  22927304.287    -6849671.872 6  -5169104.08921
 91  5 14 19 23 59.9980000  0  6G18G11G19G 2G16G 6
  21639394.9514    6022216.49346   4692622.37462
  22664836.717    -8156738.213 6  -6355872.86721
  20468940.2254    -723560.29046   -563815.31162
  21486629.318   -13213406.756 7 -10253018.12222
  22903992.1544   -6528897.41646  -5024147.98861
  22919615.342    -6890062.349 6  -5200577.13021
 91  5 14 19 24 14.9980000  0  6G18G11G19G 2G16G 6
  21645997.100     6056921.955 6   4719665.51722
  22661999.326    -8171673.632 6  -6367510.81621
  20469555.1544    -720307.87346   -561280.97062
  21478535.404   -13255933.187 7 -10286155.55322
  22901536.1624   -6541807.87946  -5034208.10561
  22911936.529    -6930431.657 6  -5232033.67021
 91  5 14 19 24 29.9980000  0  6G18G11G19G 2G16G 6
  21652618.326     6091710.985 6   4746773.77122
  22659183.717    -8186456.157 6  -6379029.60221
  20470185.592     -716999.809 6   -558703.27022
  21470460.545   -13298377.965 7 -10319229.35422
  22899106.6004   -6554576.95546  -5044158.05461
  22904254.162    -6970777.751 6  -5263472.14121
 91  5 14 19 24 44.9980000  0  6G18G11G19G 2G16G 6
  21659253.568     6126581.712 6   4773945.69422
  22656396.1624   -8201087.29046  -6390430.42461
  20470824.2404    -713637.69246   -556083.44862
  21462397.568   -13340742.506 7 -10352240.62922
  22896702.1704   -6567206.10846  -5053998.98161
  22896577.397    -7011102.288 5  -5294893.81321
 91  5 14 19 24 59.9980000  0  6G18G11G19G 2G16G 6
  21665902.162     6161533.208 6   4801180.55122
  22653641.2954   -8215567.70846  -6401713.82061
  20471476.5844    -710222.23646   -553422.06462
  21454350.686   -13383027.322 7 -10385189.78622
  22894326.2484   -6579695.96746  -5063731.36861
  22888912.592    -7051405.946 6  -5326299.20221
 91  5 14 19 25 14.9980000  0  6G18G11G19G 2G16G 6
  21672570.936     6196562.502 6   4828476.02522
  22650917.6704   -8229899.84546  -6412881.64061
  20472133.8184    -706755.96446   -550721.07962
  21446318.295   -13425235.113 7 -10418078.92822
  22891976.373    -6592049.211 6  -5073357.29421
  22881246.139    -7091691.291 5  -5357690.33121
 91  5 14 19 25 29.9980000  0  6G18G11G19G 2G16G 6
  21679253.170     6231677.233 6   4855838.07922
  22648219.1934   -8244075.76746  -6423927.75061
  20472806.1624    -703231.05246   -547974.40862
  21438304.467   -13467357.937 7 -10450901.85622
  22889652.2404   -6604258.12246  -5082870.75961
  22873582.693    -7131950.624 6  -5389061.19921
 91  5 14 19 25 44.9980000  0  6G18G11G19G 2G16G 6
  21685949.678     6266865.846 6   4883257.70522
  22645549.037    -8258106.824 6  -6434860.98021
  20473484.4204    -699658.90746   -545190.92062
  21430302.295   -13509407.190 7 -10483667.46222
  22887354.4284   -6616334.01446  -5092280.57061
  22865924.5294   -7172195.34646  -5420420.67061
 91  5 14 19 25 59.9980000  0  6G18G11G19G 2G16G 6
  21692663.279     6302139.794 6   4910743.82122
  22642909.029    -8271981.315 6  -6445672.18521
  20474177.8504    -696027.64846   -542361.37062
  21422315.389   -13551371.070 7 -10516366.54322
  22885087.5844   -6628265.39346  -5101577.79061
  22858274.904    -7212413.903 6  -5451759.76921
 91  5 14 19 26 14.9980000  0  6G18G11G19G 2G16G 6
  21699391.029     6337496.637 6   4938294.52922
  22640298.5924   -8285701.62746  -6456363.29261
  20474878.5844    -692339.89546   -539487.80662
  21414345.178   -13593251.875 7 -10549000.89222
  22882836.850    -6640054.746 6  -5110764.31321
  22850628.162    -7252608.752 6  -5483080.37621
 91  5 14 19 26 29.9980000  0  6G18G11G19G 2G16G 6
  21706134.389     6372938.272 6   4965911.31622
  22637716.9594   -8299265.07146  -6466932.13861
  20475591.9044    -688593.19146   -536568.30362
  21406392.6004  -13635047.07547 -10581568.53062
  22880625.3424   -6651699.23346  -5119837.96261
  22842980.3184   -7292777.33945  -5514380.53561
 91  5 14 19 26 44.9980000  0  6G18G11G19G 2G16G 6
  21712894.623     6408468.517 6   4993597.13522
  22635166.568    -8312667.673 6  -6477375.67121
  20476315.8894    -684783.71846   -533599.88862
  21398456.100   -13676752.814 7 -10614066.45322
  22878438.279    -6663195.527 6  -5128796.15821
  22835346.037    -7332915.948 6  -5545657.33221
 91  5 14 19 26 59.9980000  0  6G18G11G19G 2G16G 6
  21719673.982     6444092.060 6   5021355.67122
  22632648.4124   -8325904.34446  -6487689.88661
  20477057.6544    -680906.30846   -530578.53662
  21390535.678   -13718363.875 7 -10646490.60722
  22876280.4204   -6674538.60846  -5137634.94061
  22827709.529    -7373019.588 6  -5576906.87321
 91  5 14 19 27 14.9980000  0  6G18G11G19G 2G16G 6
  21726472.131     6479817.473 6   5049193.57022
  22630162.6474   -8338966.32546  -6497867.98561
  20477806.7094    -676952.23946   -527497.45262
  21382637.975   -13759871.623 7 -10678834.25522
  22874149.2094   -6685719.79846  -5146347.58161
  22820088.936    -7413079.639 6  -5608122.44721
 91  5 14 19 27 29.9980000  0  6G18G11G19G 2G16G 6
  21733288.873     6515632.648 6   5077101.43221
  22627709.248    -8351865.254 6  -6507919.02821
  20478574.9124    -672933.24346   -524365.76762
  21374757.334   -13801287.748 7 -10711106.51122
  22872051.3344   -6696750.90646  -5154943.28161
  22812469.7014   -7453107.77946  -5639313.16261
 91  5 14 19 27 44.9980000  0  6G18G11G19G 2G16G 6
  21740122.7014    6551537.79046   5105079.38962
  22625283.779    -8364600.444 6  -6517842.47521
  20479346.8574    -668848.96746   -521183.22162
  21366894.998   -13842611.480 7 -10743306.77722
  22869982.0374   -6707631.60546  -5163421.78461
  22804855.3424   -7493103.53346  -5670478.64261
 91  5 14 19 27 59.9980000  0  6G18G11G19G 2G16G 6
  21746970.412     6587533.402 6   5133127.84321
  22622888.5614   -8377171.54646  -6527638.07561
  20480136.2014    -664698.90346   -517949.40962
  21359049.279   -13883842.577 7 -10775434.85922
  22867938.514    -6718361.303 6  -5171782.60721
  22797252.522    -7533066.676 6  -5701618.70221
 91  5 14 19 28 14.9980000  0  6G18G11G19G 2G16G 6
  21753836.787     6623613.323 6   5161241.99122
  22620526.8654   -8389584.15346  -6537310.16561
  20480938.2094    -660488.76346   -514668.78262
  21351219.772   -13924986.423 7 -10807494.94622
  22865925.5684   -6728945.63946  -5180030.18061
  22789653.5844   -7573002.75645  -5732737.69561
 91  5 14 19 28 29.9980000  0  6G18G11G19G 2G16G 6
  21760718.936     6659776.461 6   5189420.98122
  22618195.9824   -8401839.01346  -6546859.35561
  20481753.2254    -656219.38546   -511341.99962
  21343405.006   -13966043.912 7 -10839487.75222
  22863937.6864   -6739385.51146  -5188165.18861
  22782068.232    -7612912.724 6  -5763836.30221
 91  5 14 19 28 44.9980000  0  6G18G11G19G 2G16G 6
  21767615.037     6696019.644 6   5217662.34822
  22615894.7254   -8413939.21746  -6556288.00861
  20482573.9674    -651893.86146   -507971.46662
  21335608.787   -14007018.318 7 -10871415.81422
  22861977.9284   -6749684.69346  -5196190.54561
  22774468.4674   -7652799.80546  -5794917.10661
 91  5 14 19 28 59.9980000  0  6G18G11G19G 2G16G 6
  21774525.154     6732340.631 6   5245964.33722
  22613619.4594   -8425886.44246  -6565597.46961
  20483410.4674    -647514.07046   -504558.64862
  21327826.428   -14047911.271 7 -10903280.40522
  22860047.248    -6759844.866 6  -5204107.60321
  22766884.420    -7692665.905 6  -5825981.55221
 91  5 14 19 29 14.9980000  0  6G18G11G19G 2G16G 6
  21781454.576     6768743.131 6   5274329.84322
  22611378.2954   -8437676.85746  -6574784.73861
  20484252.8264    -643076.20846   -501100.58062
  21320059.678   -14088718.797 7 -10935078.43122
  22858141.5924   -6769862.29246  -5211913.42861
  22759300.1154   -7732507.17245  -5857026.66061
 91  5 14 19 29 29.9980000  0  6G18G11G19G 2G16G 6
  21788397.209     6805226.269 6   5302758.19021
  22609162.6154   -8449311.14346  -6583850.35161
  20485109.6704    -638580.77646   -497597.65462
  21312312.990   -14129441.635 7 -10966810.46522
  22856261.3974   -6779737.58346  -5219608.49661
  22751725.2484   -7772324.30545  -5888052.96461
 91  5 14 19 29 44.9980000  0  6G18G11G19G 2G16G 6
  21795353.279     6841786.813 6   5331246.84922
  22606975.670    -8460792.003 6  -6592796.41021
  20485972.1074    -634030.75746   -494052.19962
  21304577.537   -14170082.701 7 -10998478.77922
  22854412.1704   -6789473.74846  -5227195.15461
  22744157.9674   -7812120.19946  -5919062.70961
 91  5 14 19 29 59.9980000  0  6G18G11G19G 2G16G 6
  21802326.154     6878426.655 6   5359797.29822
  22604822.7404   -8472117.12946  -6601621.12561
  20486851.936     -629423.814 6   -490462.38222
  21296860.2174  -14210639.61847 -11030081.53362
  22852582.787    -6799068.777 6  -5234671.85021
  22736580.811    -7851892.700 5  -5950054.24021
 91  5 14 19 30 14.9980000  0  6G18G11G19G 2G16G 6
  21809315.4124    6915145.79846   5388409.55462
  22602699.5144   -8483286.25746  -6610324.28061
  20487737.4124    -624759.77646   -486828.07662
  21289158.1314  -14251112.20047 -11061618.56962
  22850781.154    -6808522.256 6  -5242038.23521
  22729019.2254   -7891641.65145  -5981027.40761
 91  5 14 19 30 29.9980000  0  6G18G11G19G 2G16G 6
  21816317.803     6951945.616 6   5417084.64922
  22600602.5614   -8494298.00046  -6618904.79661
  20488639.443     -620037.407 6   -483148.32322
  21281473.076   -14291498.776 7 -11093088.58822
  22849008.217    -6817833.033 6  -5249293.43021
  22721460.0454   -7931365.63346  -6011981.12961
 91  5 14 19 30 44.9980000  0  6G18G11G19G 2G16G 6
  21823335.022     6988817.254 6   5445815.72222
  22598537.982    -8505160.847 6  -6627369.29221
  20489544.7404    -615265.11046   -479429.66162
  21273801.936   -14331807.823 7 -11124498.18322
  22847267.881    -6827009.933 6  -5256444.30221
  22713908.834    -7971073.274 6  -6042922.12321
 91  5 14 19 30 59.9980000  0  6G18G11G19G 2G16G 6
  21830363.732     7025762.202 6   5474603.91721
  22596497.9594   -8515872.79746  -6635716.20561
  20490463.889     -610440.911 6   -475670.55822
  21266146.857   -14372037.498 7 -11155845.94122
  22845544.428    -6836050.702 6  -5263489.10621
  22706354.7794   -8010762.71646  -6073848.92461
 91  5 14 19 31 14.9980000  0  6G18G11G19G 2G16G 6
  21837408.787     7062787.363 6   5503454.61422
  22594488.2724   -8526426.78646  -6643940.02861
  20491392.1154    -605557.85546   -471865.58962
  21258507.1624  -14412180.80247 -11187126.38962
  22843851.553    -6844948.509 6  -5270422.51121
  22698800.9824   -8050426.99545  -6104756.11761
 91  5 14 19 31 29.9980000  0  6G18G11G19G 2G16G 6
  21844468.6394    7099894.24746   5532369.00161
  22592510.7794   -8536820.78746  -6652039.20161
  20492335.920     -600614.148 6   -468013.36222
  21250885.686   -14452235.748 7 -11218338.00022
  22842188.7644   -6853701.54746  -5277243.08861
  22691259.5844   -8090064.14446  -6135642.17961
 91  5 14 19 31 44.9980000  0  6G18G11G19G 2G16G 6
  21851545.350     7137078.363 6   5561343.55721
  22590563.8814   -8547059.38946  -6660017.26461
  20493285.186     -595614.217 6   -464117.32622
  21243276.951   -14492206.903 7 -11249484.30323
  22840551.4514   -6862314.53846  -5283954.55461
  22683724.4594   -8129678.79346  -6166510.70761
 91  5 14 19 31 59.9980000  0  6G18G11G19G 2G16G 6
  21858637.084     7174338.491 6   5590377.34121
  22588643.389    -8557143.249 6  -6667874.77221
  20494249.0764    -590558.74046   -460178.00162
  21235689.076   -14532094.766 7 -11280565.70922
  22838933.1154   -6870788.21846  -5290557.46061
  22676188.9044   -8169271.64746  -6197362.24161
 91  5 14 19 32 14.9980000  0  6G18G11G19G 2G16G 6
  21865745.0064    7211674.86546   5619470.55261
  22586753.943    -8567071.888 6  -6675611.31121
  20495219.498     -585447.312 6   -456195.08322
  21228114.3974  -14571898.89747 -11311581.87862
  22837348.1004   -6879122.39046  -5297051.65761
  22668659.6624   -8208842.39146  -6228196.55761
 91  5 14 19 32 29.9980000  0  6G18G11G19G 2G16G 6
  21872859.912     7249085.574 6   5648621.67021
  22584891.7954   -8576846.91146  -6683228.15861
  20496203.568     -580281.409 6   -452169.71422
  21220557.6704  -14611620.91647 -11342534.07662
  22835789.818    -6887318.870 6  -5303438.56721
  22661132.5764   -8248392.77746  -6259014.99961
 91  5 14 19 32 44.9980000  0  6G18G11G19G 2G16G 6
  21879994.600     7286572.073 6   5677831.86021
  22583060.467    -8586466.522 6  -6690723.90521
  20497194.5684    -575059.45546   -448100.66662
  21213013.2014  -14651258.98647
  22834254.9754   -6895375.70346  -5309716.65061
  22653608.2564   -8287921.01546
 91  5 14 19 32 59.9980000  0  6G18G11G19G 2G16G 6
  21887144.186     7324135.835 6   5707102.24121
  22581261.1934   -8595929.11946  -6698097.29661
  20498203.2404    -569779.81946   -443986.66862
  21205484.5224  -14690811.50647
  22832747.428    -6903291.755 6  -5315885.04421
  22646092.4824   -8327425.54846
 91  5 14 19 33 14.9980000  0  6G18G11G19G 2G16G 6
  21894305.209     7361780.181 6   5736435.42121
  22579493.725    -8605231.138 6  -6705345.57221
  20499216.4364    -564438.93246   -439824.94262
  21197977.2954  -14730274.87247
  22831269.6704   -6911063.48846  -5321940.97361
  22638579.6474   -8366902.91746
 91  5 14 19 33 29.9980000  0  6G18G11G19G 2G16G 6
  21901485.240     7399500.577 6   5765827.86021
  22577750.162    -8614376.564 6  -6712471.81721
  20500246.7404    -559040.95046   -435618.72562
  21190482.2484  -14769653.03647 -11465675.85463
  22829815.717    -6918694.824 6  -5327887.49121
  22631070.1234   -8406357.18246  -6382103.98561
 91  5 14 19 33 44.9980000  0  6G18G11G19G 2G16G 6
  21908674.982     7437291.697 6   5795275.40321
  22576038.982    -8623370.514 6  -6719480.03721
  20501283.1234    -553591.01746   -431372.03862
  21183007.1864  -14808951.34347 -11496297.87363
  22828393.061    -6926191.189 6  -5333728.85821
  22623566.2404   -8445793.64946  -6412833.66461
 91  5 14 19 33 59.9980000  0  6G18G11G19G 2G16G 6
  21915880.857     7475151.496 6   5824776.46421
  22574357.2794   -8632214.86146  -6726371.67961
  20502329.7794    -548091.04346   -427086.35262
  21175542.0764  -14848171.60347 -11526859.07763
  22826990.8504   -6933554.72046  -5339466.72161
  22616068.475    -8485214.123 6  -6443550.86621
 91  5 14 19 34 14.9980000  0  6G18G11G19G 2G16G 6
  21923098.8424    7513084.34046   5854334.45861
  22572705.389    -8640905.094 6  -6733143.25021
  20503384.342     -542536.509 6   -422758.15622
  21168095.1154  -14887309.22047 -11557355.88062
  22825614.451    -6940780.875 6  -5345097.51421
  22608571.131    -8524614.309 6  -6474252.26421
 91  5 14 19 34 29.9980000  0  6G18G11G19G 2G16G 6
  21930329.725     7551087.464 6   5883947.19121
  22571077.4204   -8649443.48346  -6739796.48161
  20504454.0144    -536929.66546   -418389.19562
  21160660.5064  -14926366.49347 -11587790.08063
  22824260.9594   -6947872.14446  -5350623.22161
  22601077.186    -8563996.423 6  -6504939.57421
 91  5 14 19 34 44.9980000  0  6G18G11G19G 2G16G 6
  21937576.514     7589166.277 6   5913618.91321
  22569482.326    -8657824.329 6  -6746326.96121
  20505530.061     -531264.748 6   -413974.98922
  21153245.7094  -14965337.63347 -11618157.16463
  22822941.8574   -6954823.07746  -5356039.55561
  22593586.623    -8603354.728 6  -6535608.35621
 91  5 14 19 34 59.9980000  0  6G18G11G19G 2G16G 6
  21944836.654     7627318.212 6   5943347.60721
  22567919.764    -8666049.949 6  -6752736.50121
  20506618.889     -525544.214 6   -409517.44522
  21145847.1394  -15004225.01247 -11648458.98262
  22821644.1394   -6961635.79946  -5361348.21361
  22586102.365    -8642691.746 6  -6566260.53921
 91  5 14 19 35 14.9980000  0  6G18G11G19G 2G16G 6
  21952111.092     7665551.480 6   5973139.68421
  22566386.490    -8674112.039 6  -6759018.60321
  20507718.881     -519759.624 6   -405009.98722
  21138461.8504  -15043020.14947 -11678688.92562
  22820373.201    -6968302.106 6  -5366542.74721
  22578619.5374   -8681999.12846  -6596889.61461
 91  5 14 19 35 29.9980000  0  6G18G11G19G 2G16G 6
  21959401.334     7703855.444 6   6002986.84821
  22564879.873    -8682020.705 6  -6765181.15521
  20508832.8504    -513921.26646   -400460.62862
  21131094.9984  -15081733.31947 -11708854.99062
  22819135.2644   -6974832.73446  -5371631.59461
  22571144.436    -8721287.201 6  -6627503.64121
 91  5 14 19 35 44.9980000  0  6G18G11G19G 2G16G 6
  21966702.0844    7742227.00146   6032886.67461
  22563403.5294   -8689778.75946  -6771226.35461
  20509949.295     -508032.019 6   -395871.61922
  21123747.1314  -15120367.17447 -11738959.25563
  22817920.7484   -6981230.38946  -5376616.81761
  22563671.8114   -8760558.67846  -6658104.75661
 91  5 14 19 35 59.9980000  0  6G18G11G19G 2G16G 6
  21974020.0924    7780670.19146   6062842.32961
  22561954.100    -8697381.956 6  -6777150.88521
  20511082.0064    -502087.50146   -391239.54262
  21116406.2324  -15158917.47947 -11768998.41862
  22816726.9364   -6987490.94246  -5381495.19761
  22556201.412    -8799809.449 6  -6688689.73121
 91  5 14 19 36 14.9980000  0  6G18G11G19G 2G16G 6
  21981350.412     7819189.213 6   6092857.06821
  22560536.982    -8704825.753 6  -6782951.20621
  20512224.272     -496083.140 6   -386560.83222
  21109089.3574  -15197379.81947 -11798969.03762
  22815561.912    -6993610.005 6  -5386263.34521
  22548735.686    -8839035.089 6  -6719255.11321
 91  5 14 19 36 29.9980000  0  6G18G11G19G 2G16G 6
  21988693.107     7857774.882 6   6122923.73621
  22559151.3034   -8712119.39046  -6788634.52861
  20513379.8734    -490028.22646   -381842.73462
  21101785.0374  -15235763.38547 -11828878.27162
  22814421.1624   -6999596.91646  -5390928.50761
  22541276.131    -8878244.855 6  -6749808.13021
 91  5 14 19 36 44.9980000  0  6G18G11G19G 2G16G 6
  21996048.3894    7896422.81446   6153038.91761
  22557791.576    -8719266.806 6  -6794203.92021
  20514538.686     -483926.606 6   -377088.24022
  21094494.1544  -15274072.05147 -11858729.14362
  22813306.3114   -7005455.64646  -5395493.77761
  22533815.811    -8917442.660 6  -6780351.83121
 91  5 14 19 36 59.9980000  0  6G18G11G19G 2G16G 6
  22003415.5764    7935137.80246   6183206.35461
  22556464.4124   -8726263.21846  -6799655.63461
  20515713.084     -477773.625 6   -372293.72622
  21087219.8734  -15312300.92447 -11888517.83763
  22812216.357    -7011181.828 6  -5399955.79021
  22526359.5684   -8956623.73346  -6810882.49061
 91  5 14 19 37 14.9980000  0  6G18G11G19G 2G16G 6
  22010795.7324    7973922.96846   6213428.47361
  22555159.2324   -8733104.80946  -6804986.71361
  20516890.131     -471565.638 6   -367456.35022
  21079960.8504  -15350446.37347 -11918241.53063
  22811155.5374   -7016771.66246  -5404311.53561
  22518913.1704   -8995784.35646  -6841397.22461
 91  5 14 19 37 29.9980000  0  6G18G11G19G 2G16G 6
  22018188.5534    8012776.12346   6243703.57761
  22553888.1004   -8739793.53046  -6810198.68061
  20518083.920     -465304.487 6   -362577.54422
  21072719.3734  -15388510.12947 -11947901.56062
  22810116.975    -7022227.266 6  -5408562.70321
  22511460.139    -9034926.569 6  -6871897.60421
 91  5 14 19 37 44.9980000  0  6G18G11G19G 2G16G 6
  22025592.9514    8051697.13446   6274031.54061
  22552641.186    -8746329.169 6  -6815291.35821
  20519282.467     -458989.791 6   -357657.02022
  21065491.4124  -15426491.87147 -11977497.68662
  22809101.9674   -7027548.36145  -5412709.04761
  22504010.1394   -9074050.04846  -6902383.39661
 91  5 14 19 37 59.9980000  0  6G18G11G19G 2G16G 6
  22033014.1394    8090687.11246   6304413.25661
  22551426.920    -8752710.636 6  -6820263.91421
  20520496.9124    -452620.42946   -352693.89362
  21058276.1624  -15464390.52847 -12007029.06862
  22808116.2094   -7032733.96245  -5416749.82361
  22496573.115    -9113153.879 6  -6932853.86721
 91  5 14 19 38 14.9980000  0  6G18G11G19G 2G16G 6
  22040448.8034    8129745.58046   6334848.32861
  22550243.4284   -8758938.03446  -6825116.39361
  20521717.201     -446196.617 6   -347688.33722
  21051081.7874  -15502206.43047 -12036495.97262
  22807155.740    -7037784.273 5  -5420685.17421
  22489138.865    -9152238.180 6  -6963309.12221
 91  5 14 19 38 29.9980000  0  6G18G11G19G 2G16G 6
  22047892.5764    8168871.53946   6365335.99261
  22549086.4904   -8765012.19346  -6829849.47161
  20522952.1624    -439719.25046   -342641.05362
  21043901.1314  -15539940.19947 -12065898.87362
  22806222.5844   -7042700.59245  -5424516.10561
  22481702.865    -9191303.821 6  -6993749.84521
 91  5 14 19 38 44.9980000  0  6G18G11G19G 2G16G 6
  22055349.522     8208064.025 6   6395875.49421
  22547959.537    -8770933.795 6  -6834463.69021
  20524194.6234    -433188.86446   -337552.45162
  21036737.3184  -15577592.43147 -12095238.23963
  22805311.006    -7047483.937 5  -5428243.43621
  22474270.4124   -9230351.46746  -7024176.52861
 91  5 14 19 38 59.9980000  0  6G18G11G19G 2G16G 6
  22062819.4674    8247315.50746   6426460.97561
  22546861.0844   -8776709.96646  -6838964.56761
  20525445.990     -426612.581 6   -332428.09022
  21029585.3894  -15615170.14347 -12124519.53962
  22804421.3974   -7052141.07345  -5431872.42361
  22466844.2484   -9269388.27446  -7054594.76961
 91  5 14 19 39 14.9980000  0  6G18G11G19G 2G16G 6
  22070300.998     8286634.351 6   6457098.94021
  22545789.6704   -8782332.20546  -6843345.51661
  20526707.0144    -419982.02446   -327261.43362
  21022450.1074  -15652664.99347 -12153736.26962
  22803564.897    -7056663.717 5  -5435396.61621
  22459420.8114   -9308405.87946  -7084998.07361
 91  5 14 19 39 29.9980000  0  6G18G11G19G 2G16G 6
  22077799.0534    8326018.06746   6487787.44561
  22544749.6394   -8787802.76046  -6847608.25161
  20527982.3184    -413299.28746   -322054.11162
  21015330.2014  -15690078.99647 -12182890.00262
  22802729.873    -7061054.239 5  -5438817.84921
  22451998.131    -9347406.392 6  -7115388.04221
 91  5 14 19 39 44.9980000  0  6G18G11G19G 2G16G 6
  22085303.1544    8365468.05846   6518527.61261
  22543736.311    -8793120.125 6  -6851751.64021
  20529259.6314    -406562.78546   -316804.90162
  21008226.6394  -15727410.66647 -12211979.57862
  22801916.803    -7065311.596 5  -5442135.31221
  22444582.123    -9386388.230 6  -7145763.42721
 91  5 14 19 39 59.9980000  0  6G18G11G19G 2G16G 6
  22092822.6544    8404985.62846   6549320.41861
  22542755.4674   -8798282.49146  -6855774.22761
  20530554.3814    -399770.88546   -311512.51362
  21001138.9434  -15764658.26247 -12241003.63562
  22801131.7484   -7069434.02945  -5445347.63361
  22437167.967    -9425349.759 6  -7176123.00621
 91  5 14 19 40 14.9980000  0  6G18G11G19G 2G16G 6
  22100354.8814    8444567.13246   6580163.06161
  22541803.084    -8803293.170 6  -6859678.63221
  20531854.2254    -392927.09846   -306179.70162
  20994066.8504  -15801825.10147 -12269964.77463
  22800369.8424   -7073424.93245  -5448457.48361
  22429755.3504   -9464294.43646  -7206469.47361
 91  5 14 19 40 29.9980000  0  6G18G11G19G 2G16G 6
  22107901.5064    8484215.06046   6611057.44461
  22540875.631    -8808149.316 6  -6863462.60921
  20533169.6154    -386028.31046   -300804.02662
  20987010.6704  -15838908.22547 -12298860.67663
  22799639.951    -7077281.498 5  -5451462.66021
  22422343.7794   -9503219.51946  -7236800.65961
 91  5 14 19 40 44.9980000  0  6G18G11G19G 2G16G 6
  22115455.850     8523927.733 6   6642002.27621
  22539984.5374   -8812852.46646  -6867127.38561
  20534491.7324    -379076.19846   -295386.80162
  20979969.6004  -15875909.20347 -12327692.57363
  22798932.467    -7081005.247 5  -5454364.33421
  22414943.8034   -9542126.38846  -7267117.62561
 91  5 14 19 40 59.9980000  0  6G18G11G19G 2G16G 6
  22123026.3894    8563707.93046   6672999.74561
  22539116.1234   -8817399.85846  -6870670.77061
  20535826.3264    -372067.63546   -289925.59062
  20972943.686   -15912825.186 7 -12356458.23323
  22798246.975    -7084593.359 5  -5457160.30421
  22407547.5924   -9581012.25946  -7297418.27561
 91  5 14 19 41 14.9980000  0  6G18G11G19G 2G16G 6
  22130611.2874    8603549.85846   6704045.29761
  22538280.686    -8821797.077 6  -6874097.14621
  20537167.2724    -365008.24346   -284424.77362
  20965932.9204  -15949661.60147 -12385161.90163
  22797586.186    -7088052.028 5  -5459855.42221
  22400143.795    -9619882.706 6  -7327706.90121
 91  5 14 19 41 29.9980000  0  6G18G11G19G 2G16G 6
  22138204.639     8643462.149 6   6735145.68521
  22537474.5144   -8826035.03346  -6877399.42861
  20538524.3574    -357888.92946   -278877.26062
  20958941.2094  -15986409.27247 -12413796.41463
  22796955.4754   -7091371.99845  -5462442.45061
  22392750.607    -9658728.608 6  -7357976.37821
 91  5 14 19 41 44.9980000  0  6G18G11G19G 2G16G 6
  22145810.8184    8683431.95946   6766290.88061
  22536696.1074   -8830126.36246  -6880587.44861
  20539886.178     -350722.335 6   -273292.91022
  20951961.8574  -16023081.03947 -12442371.78163
  22796346.975    -7094566.202 5  -5464931.47521
  22385365.8504   -9697562.69346  -7388236.66161
 91  5 14 19 41 59.9980000  0  6G18G11G19G 2G16G 6
  22153429.178     8723468.359 6   6797487.98021
  22535945.928    -8834061.911 6  -6883654.08121
  20541260.8574    -343499.27046   -267664.55362
  20945001.2644  -16059667.56247 -12470880.72463
  22795768.779    -7097625.813 5  -5467315.64421
  22377977.225    -9736375.884 6  -7418480.65721
 91  5 14 19 42 14.9980000  0  6G18G11G19G 2G16G 6
  22161058.686     8763565.623 6   6828732.49221
  22535226.022    -8837846.904 6  -6886603.40521
  20542646.2014    -336224.87346   -261996.19962
  20938052.943   -16096174.034 7 -12499327.27823
  22795209.6394   -7100556.15345  -5469599.05561
  22370598.381    -9775173.376 6  -7448712.42721
 91  5 14 19 42 29.9980000  0  6G18G11G19G 2G16G 6
  22168701.1474    8803725.94846   6860026.15161
  22534538.467    -8841479.014 6  -6889433.60121
  20544043.0614    -328896.78746   -256286.00562
  20931124.4044  -16132598.12547 -12527709.65563
  22794677.2174   -7103354.68545  -5471779.77261
  22363216.1474   -9813952.74646  -7478930.07961
 91  5 14 19 42 44.9980000  0  6G18G11G19G 2G16G 6
  22176355.022     8843944.780 6   6891365.38621
  22533873.818    -8844962.781 6  -6892148.19521
  20545443.029     -321519.443 6   -250537.43922
  20924204.3344  -16168944.40447 -12556031.38963
  22794170.951    -7106026.234 5  -5473861.53921
  22355841.357    -9852718.528 6  -7509137.13621
 91  5 14 19 42 59.9980000  0  6G18G11G19G 2G16G 6
  22184022.6154    8884230.68946   6922756.90661
  22533240.467    -8848289.152 6  -6894740.15321
  20546859.4284    -314083.80646   -244743.43762
  20917306.272   -16205203.460 7 -12584285.15623
  22793689.3114   -7108561.86046  -5475837.39961
  22348465.857    -9891461.641 6  -7539326.52521
 91  5 14 19 43 14.9980000  0  6G18G11G19G 2G16G 6
  22191700.732     8924576.692 6   6954195.24121
  22532632.850    -8851464.894 6  -6897214.74121
  20548282.6784    -306596.83846   -238909.44062
  20910422.4204  -16241382.33247 -12612476.44563
  22793227.576    -7110968.440 5  -5477712.69821
  22341095.318    -9930188.998 6  -7569503.64321
 91  5 14 19 43 29.9980000  0  6G18G11G19G 2G16G 6
  22199388.2644    8964981.31646   6985679.24261
  22532058.318    -8854491.355 6  -6899572.99621
  20549717.2484    -299059.64246   -233036.31162
  20903552.1864  -16277482.08147 -12640606.08363
  22792799.623    -7113247.729 6  -5479488.81621
  22333732.467    -9968901.819 6  -7599669.43521
 91  5 14 19 43 44.9980000  0  6G18G11G19G 2G16G 6
  22207089.272     9005449.121 6   7017212.49821
  22531510.4204   -8857363.56146  -6901811.05261
  20551162.4284    -291467.20646   -227120.13362
  20896698.1154  -16313497.72747 -12668670.19063
  22792388.631    -7115394.401 6  -5481161.58421
  22326365.662   -10007595.221 6  -7629820.08921
 91  5 14 19 43 59.9980000  0  6G18G11G19G 2G16G 6
  22214801.967     9045982.858 6   7048797.11121
  22530996.209    -8860078.742 6  -6903926.75721
  20552619.7174    -283816.69346   -221158.69762
  20889861.7644  -16349426.40447 -12696666.52663
  22792002.678    -7117405.980 5  -5482729.10021
  22319004.7254  -10046266.26246  -7659953.33161
 91  5 14 19 44 14.9980000  0  6G18G11G19G 2G16G 6
  22222527.967     9086570.894 6   7080424.04221
  22530507.193    -8862648.113 6  -6905928.83921
  20554082.2724    -276119.21446   -215160.67062
  20883039.2404  -16385279.36147 -12724603.85763
  22791647.8974   -7119293.97245  -5484200.30561
  22311650.772   -10084926.245 6  -7690077.95921
 91  5 14 19 44 29.9980000  0  6G18G11G19G 2G16G 6
  22230261.381     9127219.626 6   7112098.26221
  22530047.201    -8865065.031 6  -6907812.10921
  20555560.4364    -268368.28646   -209120.99362
  20876231.982   -16421050.063 7 -12752477.08523
  22791310.1314   -7121051.69845  -5485570.02261
  22304297.3734  -10123568.58346  -7720188.83061
 91  5 14 19 44 44.9980000  0  6G18G11G19G 2G16G 6
  22238009.9754    9167930.84146   7143821.17861
  22529615.9754   -8867327.50746  -6909575.05061
  20557043.248     -260561.646 6   -203037.91122
  20869440.5374  -16456736.26947 -12780284.47963
  22791001.2014   -7122677.45745  -5486836.90861
  22296950.6544  -10162191.20246  -7750284.33961
 91  5 14 19 44 59.9980000  0  6G18G11G19G 2G16G 6
  22245766.529     9208699.682 6   7175588.99721
  22529210.9754   -8869440.13646  -6911221.21561
  20558539.568     -252704.015 6   -196915.09522
  20862664.0224  -16492342.41547 -12808029.49063
  22790713.7794   -7124175.88345  -5488004.55861
  22289602.7484  -10200798.61546  -7780367.99361
 91  5 14 19 45 14.9980000  0  6G18G11G19G 2G16G 6
  22253535.3974    9249530.37146   7207404.99661
  22528842.1234   -8871398.64746  -6912747.28661
  20560043.811     -244791.038 6   -190749.15222
  20855905.2644  -16527864.31847 -12835708.85463
  22790454.779    -7125542.875 5  -5489069.80321
  22282258.7724  -10239386.61746  -7810436.50461
 91  5 14 19 45 29.9980000  0  6G18G11G19G 2G16G 6
  22261318.654     9290426.590 6   7239272.07321
  22528502.2874   -8873199.26646  -6914150.33461
  20561564.459     -236818.767 6   -184537.01122
  20849160.068   -16563298.107 7 -12863319.56023
  22790220.5294   -7126774.71445  -5490029.73261
  22274920.506   -10277951.300 6  -7840486.85021
 91  5 14 19 45 44.9980000  0  6G18G11G19G 2G16G 6
  22269111.850     9331375.806 6   7271180.44121
  22528184.967    -8874853.941 6  -6915439.66021
  20563087.279     -228799.044 6   -178287.89222
  20842432.9984  -16598655.55247 -12890870.77363
  22790007.7954   -7127883.51245  -5490893.78161
  22267583.3424  -10316504.71346  -7870528.43361
 91  5 14 19 45 59.9980000  0  6G18G11G19G 2G16G 6
  22276915.506     9372386.692 6   7303136.86321
  22527898.420    -8876353.890 6  -6916608.41021
  20564625.834     -220723.259 6   -171995.08722
  20835722.357   -16633928.131 7 -12918355.85223
  22789822.139    -7128860.596 5  -5491655.20221
  22260248.975   -10355038.038 6  -7900554.36821
 91  5 14 19 46 14.9980000  0  6G18G11G19G 2G16G 6
  22284728.9984    9413457.92946   7335140.30861
  22527641.8184   -8877700.45446  -6917657.64061
  20566172.326     -212592.486 6   -165659.43622
  20829026.342   -16669116.700 7 -12945775.47423
  22789662.9984   -7129707.58045  -5492315.24561
  22252920.881   -10393552.544 6  -7930565.61721
 91  5 14 19 46 29.9980000  0  6G18G11G19G 2G16G 6
  22292557.873     9454587.714 6   7367189.36821
  22527415.467    -8878895.034 6  -6918588.45421
  20567730.178     -204408.068 6   -159281.98822
  20822348.139   -16704222.865 7 -12973130.88623
  22789526.732    -7130425.817 6  -5492874.96621
  22245594.7484  -10432049.49646  -7960563.19461
 91  5 14 19 46 44.9980000  0  6G18G11G19G 2G16G 6
  22300396.2954    9495779.85446   7399287.02461
  22527216.8114   -8879933.53546  -6919397.63561
  20569295.779     -196165.924 6   -152859.55122
  20815682.8654  -16739242.59347 -13000418.94563
  22789415.811    -7131011.120 5  -5493331.08721
  22238272.8034  -10470524.89746  -7990544.00061
 91  5 14 19 46 59.9980000  0  6G18G11G19G 2G16G 6
  22308245.912     9537024.509 6   7431425.60721
  22527047.3814   -8880825.63646  -6920092.73961
  20570875.764     -187875.675 6   -146399.63822
  20809031.6624  -16774185.25647 -13027646.95463
  22789325.1704   -7131473.70745  -5493691.60061
  22230953.279   -10508988.344 6  -8020515.46921
 91  5 14 19 47 14.9980000  0  6G18G11G19G 2G16G 6
  22316109.272     9578333.685 6   7463614.46221
  22526908.748    -8881559.136 6  -6920664.26021
  20572463.9904    -179525.12846   -139892.73462
  20802400.9984  -16809038.51847 -13054805.30463
  22789269.006    -7131801.175 6  -5493946.82921
  22223637.3424  -10547427.58746  -8050468.08361
 91  5 14 19 47 29.9980000  0  6G18G11G19G 2G16G 6
  22323977.7874    9619699.44446   7495847.40061
  22526799.3424   -8882141.78346  -6921118.23161
  20574064.545     -171122.001 6   -133344.86422
  20795782.5374  -16843810.19147 -13081900.07663
  22789231.506    -7132001.881 6
  22216327.303   -10585850.372 6  -8080407.87621
 91  5 14 19 47 44.9980000  0  6G18G11G19G 2G16G 6
  22331857.7014    9661122.02346   7528124.61161
  22526714.2794   -8882573.23746  -6921454.39761
  20575671.459     -162665.496 6   -126755.40022
  20789181.3734  -16878499.73947 -13108930.85663
  22789212.7014   -7132075.23646
  22209018.865   -10624256.141 6  -8110334.40121
 91  5 14 19 47 59.9980000  0  6G18G11G19G 2G16G 6
  22339754.6074    9702599.18346   7560444.35661
  22526661.7724   -8882855.53046  -6921674.33961
  20577292.654     -154157.614 6   -120125.89422
  20782595.748   -16913109.137 7 -13135899.17723
  22789223.3654   -7132023.50645
  22201714.3894  -10662646.94446  -8140249.25861
 91  5 14 19 48 14.9980000  0  6G18G11G19G 2G16G 6
  22347657.8734    9744136.54246   7592811.00961
  22526635.857    -8882982.891 6
  20578921.162     -145592.678 6   -113451.93322
  20776026.0294  -16947632.50447 -13162800.46163
  22789261.5684   -7131840.50646
  22194413.131   -10701016.990 6  -8170147.95221
 91  5 14 19 48 29.9980000  0  6G18G11G19G 2G16G 6
  22355571.217     9785724.303 6   7625216.93921
  22526639.772    -8882964.657 6
  20580561.990     -136979.882 6   -106740.67722
  20769471.537   -16982079.246 7 -13189642.03623
  22789315.7874   -7131536.29746
  22187112.1154  -10739375.63146  -8200037.76261
 91  5 14 19 48 44.9980000  0  6G18G11G19G 2G16G 6
  22363496.6864    9827365.89646   7657664.81561
  22526672.5454   -8882797.09146
  20582210.154     -128315.544 6    -99989.26122
  20762933.1784  -17016445.53247 -13216420.92363
  22789396.631    -7131107.179 6  -5493406.36321
  22179813.162   -10777719.064 6  -8229915.71021
 91  5 14 19 48 59.9980000  0  6G18G11G19G 2G16G 6
  22371432.2014    9869066.01946   7690158.30561
  22526733.2874   -8882475.50546
  20583870.373     -119594.802 6    -93193.89522
  20756407.8114  -17050726.62747 -13243133.42463
  22789505.592    -7130548.648 6  -5492971.19721
  22172525.436   -10816042.532 6  -8259778.10221
 91  5 14 19 49 14.9980000  0  6G18G11G19G 2G16G 6
  22379377.8114    9910825.63646   7722698.14661
  22526825.3034   -8881998.86846  -6921006.67161
  20585539.943     -110816.575 6    -86353.73422
  20749901.6704  -17084921.38047 -13269778.65063
  22789636.068    -7129859.702 6  -5492434.39921
  22165233.943   -10854344.976 6  -8289624.12121
 91  5 14 19 49 29.9980000  0  6G18G11G19G 2G16G 6
  22387334.1934    9952640.02946   7755280.67661
  22526944.3654   -8881371.41846  -6920517.71361
  20587222.232     -101984.974 6    -79471.98322
  20743409.9044  -17119033.90647 -13296359.79963
  22789791.732    -7129044.804 6  -5491799.47221
  22157947.8974  -10892630.60146  -8319457.03261
 91  5 14 19 49 44.9980000  0  6G18G11G19G 2G16G 6
  22395304.9674    9994518.71246   7787913.28461
  22527091.061    -8880583.499 6  -6919903.73421
  20588913.709      -93090.307 6    -72541.08822
  20736935.225   -17153054.584 7 -13322869.37323
  22789970.8114   -7128094.46946  -5491059.00761
  22150669.678   -10930889.670 6  -8349269.25921
 91  5 14 19 49 59.9980000  0  6G18G11G19G 2G16G 6
  22403285.092    10036457.997 6   7820593.13321
  22527270.8114   -8879638.65846  -6919167.45761
  20590619.0294     -84136.06446    -65563.77062
  20730477.9284  -17186986.69247 -13349309.94163
  22790177.7874   -7127012.11746  -5490215.67361
  22143393.873   -10969125.678 6  -8379063.49321
 91  5 14 19 50 14.9980000  0  6G18G11G19G 2G16G 6
  22411276.8424   10078453.66646   7853316.90261
  22527482.803    -8878541.229 6  -6918312.29821
  20592329.9124     -75126.28846    -58543.17962
  20724037.8184  -17220834.60647 -13375684.89763
  22790406.022    -7125802.229 6  -5489272.95121
  22136119.9044  -11007342.81046  -8408843.04361
 91  5 14 19 50 29.9980000  0  6G18G11G19G 2G16G 6
  22419280.9204   10120503.32446   7886082.74561
  22527717.467    -8877293.150 6
  20594056.084      -66062.946 6    -51480.84922
  20717612.6784  -17254600.16047 -13401995.67563
  22790660.615    -7124466.714 6
  22128848.1934  -11045542.81946  -8438609.24361
 91  5 14 19 50 44.9980000  0  6G18G11G19G 2G16G 6
  22427291.4124   10162606.37746   7918890.20261
  22527986.803    -8875894.778 6
  20595790.693      -56946.211 6    -44376.91622
  20711202.6154  -17288283.59347 -13428242.47163
  22790940.678    -7123006.417 6
  22121586.5064  -11083726.15146  -8468362.42461
 91  5 14 19 50 59.9980000  0  6G18G11G19G 2G16G 6
  22435315.2174   10204763.43146   7951739.72261
  22528278.061    -8874345.281 6
  20597537.740      -47775.268 6    -37230.74022
  20704807.842   -17321883.970 7 -13454424.54023
  22791241.592    -7121420.350 6
  22114316.8114  -11121891.87146  -8498101.90461
 91  5 14 19 51 14.9980000  0  6G18G11G19G 2G16G 6
  22443349.9284   10246977.94246   7984634.03461
  22528604.279    -8872641.154 6
  20599292.061      -38546.402 6    -30039.43322
  20698431.0374  -17355397.73847 -13480539.12263
  22791568.928    -7119705.376 6
  22107061.8574  -11160036.45446  -8527824.92361
 91  5 14 19 51 29.9980000  0  6G18G11G19G 2G16G 6
  22451390.818    10289241.959 6   8017566.89921
  22528954.4364   -8870790.00746
  20601058.1474     -29267.22446    -22808.91162
  20692068.857   -17388832.441 7 -13506592.09923
  22791918.209    -7117869.063 6
  22099807.287   -11198167.463 6  -8557537.36021
 91  5 14 19 51 44.9980000  0  6G18G11G19G 2G16G 6
  22459444.0224   10331561.79546   8050543.27361
  22529336.615    -8868785.315 6
  20602835.3424     -19931.10246    -15534.02662
  20685723.904   -17422181.544 7 -13532578.36523
  22792293.920    -7115904.961 6
  22092550.232   -11236278.195 6  -8587233.98721
 91  5 14 19 51 59.9980000  0  6G18G11G19G 2G16G 6
  22467507.1474   10373939.48346   8083564.72361
  22529748.803    -8866625.152 6
  20604627.717      -10535.936 6     -8213.13222
  20679392.615   -17455442.768 7 -13558496.15923
  22792691.623    -7113811.233 6
  22085307.842   -11274366.810 6  -8616913.38721
 91  5 14 19 52 14.9980000  0  6G18G11G19G 2G16G 6
  22475580.756    10416362.896 6   8116621.79821
  22530185.4044   -8864321.29446  -6907231.71961
  20606420.209       -1093.458 6      -855.37222
  20673077.420   -17488627.832 7 -13584354.60423
  22793112.232    -7111599.793 6  -5478206.49921
  22078064.1864  -11312444.71346  -8646584.43861
 91  5 14 19 52 29.9980000  0  6G18G11G19G 2G16G 6
  22483662.3734   10458833.67346   8149715.78561
  22530653.576    -8861871.717 6  -6905322.94821
  20608227.467        8398.490 6      6540.94022
  20666777.5144  -17521734.64547 -13610152.08463
  22793556.959    -7109268.654 6  -5476390.08521
  22070819.889   -11350509.991 6  -8676245.65321
 91  5 14 19 52 44.9980000  0  6G18G11G19G 2G16G 6
  22491754.5614   10501354.33346   8182848.64161
  22531145.7564   -8859273.90146  -6903298.66561
  20610041.193       17942.615 6     13977.90222
  20660493.0064  -17554760.78047 -13635886.69763
  22794022.225    -7106815.704 6  -5474478.73821
  22063575.0614  -11388559.99746  -8705894.95361
 91  5 14 19 52 59.9980000  0  6G18G11G19G 2G16G 6
  22499854.568    10543925.957 6   8216021.19921
  22531669.5844   -8856526.74446  -6901158.01761
  20611867.2954      27540.08546     21456.44062
  20654223.092   -17587704.943 7 -13661557.43123
  22794507.772    -7104239.612 6  -5472471.45621
  22056340.904   -11426593.506 6  -8735531.40521
 91  5 14 19 53 14.9980000  0  6G18G11G19G 2G16G 6
  22507963.170    10586545.009 6   8249230.73121
  22532220.748    -8853633.325 6  -6898903.39021
  20613705.607       37187.875 6     28974.18622
  20647968.537   -17620570.076 7 -13687166.58223
  22795023.318    -7101543.984 6  -5470371.01621
  22049104.4044  -11464613.42846  -8765157.28361
 91  5 14 19 53 29.9980000  0  6G18G11G19G 2G16G 6
  22516082.037    10629217.166 6   8282481.63221
  22532801.240    -8850587.959 6  -6896530.37821
  20615553.256       46891.990 6     36535.82022
  20641733.264   -17653350.566 7 -13712709.78023
  22795560.022    -7098722.917 6  -5468172.82821
  22041869.2014  -11502614.16346  -8794768.18861
 91  5 14 19 53 44.9980000  0  6G18G11G19G 2G16G 6
  22524215.897    10671941.785 6   8315773.41021
  22533408.1314   -8847391.19146  -6894039.37561
  20617406.279       56651.920 6     44140.94822
  20635509.3114  -17686046.59947 -13738187.17363
  22796124.232    -7095777.341 6  -5465877.62121
  22034647.5064  -11540596.10346  -8824364.45561
 91  5 14 19 53 59.9980000  0  6G18G11G19G 2G16G 6
  22532356.0454   10714720.78246   8349107.57161
  22534044.881    -8844040.929 6  -6891428.77621
  20619279.889       66469.799 6     51791.22922
  20629304.7014  -17718655.89547 -13763596.97863
  22796707.9044   -7092705.06746  -5463483.71561
  22027421.3814  -11578557.00246  -8853944.33961
 91  5 14 19 54 14.9970000  0  6G18G11G19G 2G16G 6
  22540505.360    10757546.836 6   8382478.39021
  22534712.095    -8840541.593 6  -6888702.00121
  20621153.649       76340.814 6     59482.91422
  20623115.0954  -17751180.45547 -13788940.74963
  22797317.8684   -7089510.59446  -5460994.57061
  22020202.4234  -11616498.46146  -8883509.05361
 91  5 14 19 54 29.9970000  0  6G18G11G19G 2G16G 6
  22548665.126    10800421.956 6   8415887.44121
  22535406.3684   -8836896.06746  -6885861.33561
  20623045.665       86263.250 6     67214.66222
  20616940.9314  -17783628.09847 -13814224.59263
  22797945.4854   -7086197.03046  -5458412.63561
  22012980.251   -11654428.767 6  -8913065.07521
 91  5 14 19 54 44.9970000  0  6G18G11G19G 2G16G 6
  22556832.892    10843342.044 6   8449331.52721
  22536126.9854   -8833105.78146  -6882907.85561
  20624939.087       96235.150 6     74984.96322
  20610779.6574  -17815997.78947 -13839447.68463
  22798601.040    -7082766.072 6  -5455739.18321
  22005769.3214  -11692346.52746  -8942611.35461
 91  5 14 19 54 59.9970000  0  6G18G11G19G 2G16G 6
  22565008.251    10886312.146 6   8482814.59921
  22536877.564    -8829165.533 6  -6879837.52321
  20626850.618      106261.997 6     82798.07522
  20604637.8534  -17848284.07047 -13864605.78763
  22799277.2984   -7079212.41346  -5452970.16861
  21998556.548   -11730246.417 6  -8972143.68421
 91  5 14 19 55 14.9970000  0  6G18G11G19G 2G16G 6
  22573194.462    10929327.770 6   8516333.12521
  22537655.1104   -8825079.79546  -6876653.83661
  20628765.423      116339.472 6     90650.64222
  20598508.1184  -17880491.04147 -13889702.08863
  22799970.2204   -7075540.64945  -5450109.09561
  21991345.4234  -11768132.62246  -9001665.35861
 91  5 14 19 55 29.9970000  0  6G18G11G19G 2G16G 6
  22581387.314    10972396.532 6   8549893.07021
  22538462.8684   -8820840.39646  -6873350.40361
  20630696.774      126475.704 6     98548.98822
  20592395.462   -17912610.819 7 -13914730.44323
  22800694.142    -7071742.696 5  -5447149.69321
  21984142.220   -11805997.307 6  -9031170.26821
 91  5 14 19 55 44.9970000  0  6G18G11G19G 2G16G 6
  22589599.634    11015520.766 6   8583496.23321
  22539297.4314   -8816445.24746  -6869925.62161
  20632634.1344     136672.97446    106494.89962
  20586300.673   -17944640.998 7 -13939688.98223
  22801440.634    -7067816.456 5  -5444090.34821
  21976941.978   -11843837.876 6  -9060656.37621
 91  5 14 19 55 59.9970000  0  6G18G11G19G 2G16G 6
  22597812.321    11058694.109 6   8617137.66521
  22540159.6814   -8811900.58446  -6866384.33261
  20634588.735      146925.210 6    114483.63722
  20580221.743   -17976587.714 7 -13964582.48223
  22802214.9704   -7063768.53646  -5440936.18361
  21969740.1574  -11881660.55046  -9090128.55061
 91  5 14 19 56 14.9970000  0  6G18G11G19G 2G16G 6
  22606038.009    11101915.391 6   8650816.43621
  22541054.9234   -8807207.22346  -6862727.16461
  20636547.618      157231.800 6    122514.72622
  20574159.345   -18008451.597 7 -13989411.43823
  22803009.2514   -7059599.94946  -5437687.98761
  21962547.071   -11919466.067 6  -9119587.37221
 91  5 14 19 56 29.9970000  0  6G18G11G19G 2G16G 6
  22614270.0244   11145177.99246   8684527.43261
  22541975.2044   -8802371.71546  -6858959.24261
  20638519.274      167586.362 6    130583.20322
  20568109.220   -18040239.258 7 -14014181.00423
  22803820.853    -7055317.173 6  -5434350.81121
  21955354.774   -11957260.883 6  -9149037.81421
 91  5 14 19 56 44.9970000  0  6G18G11G19G 2G16G 6
  22622512.853    11188490.557 6   8718277.34821
  22542921.9624   -8797385.26946  -6855073.69561
  20640499.978      177997.779 6    138695.98122
  20562076.712   -18071941.710 7 -14038884.16423
  22804659.915    -7050911.508 5  -5430917.89721
  21948163.571   -11995035.890 6  -9178472.84821
 91  5 14 19 56 59.9970000  0  6G18G11G19G 2G16G 6
  22630763.618    11231855.868 5   8752068.36321
  22543905.2744   -8792244.76146  -6851068.11761
  20642492.853      188469.197 6    146855.51622
  20556059.556   -18103555.817 7 -14063518.49123
  22805520.056    -7046380.062 5  -5427386.94321
  21940982.4394  -12032788.22946  -9207890.21161
 91  5 14 19 57 14.9970000  0  6G18G11G19G 2G16G 6
  22639023.1574   11275270.04245   8785897.43561
  22544910.1424   -8786954.07146  -6846945.49261
  20644496.704      198997.021 6    155058.99722
  20550061.3534  -18135085.39447 -14088086.95563
  22806410.157    -7041726.451 5  -5423760.80621
  21933800.548   -12070521.306 6  -9237292.57121
 91  5 14 19 57 29.9970000  0  6G18G11G19G 2G16G 6
  22647298.095    11318734.144 6   8819765.43021
  22545946.3684   -8781511.94946  -6842704.88361
  20646510.829      209582.537 6    163307.43722
  20544078.1344  -18166528.91447 -14112588.36263
  22807315.134    -7036949.839 5  -5420038.83021
  21926625.821   -12108233.998 6  -9266679.04221
 91  5 14 19 57 44.9970000  0  6G18G11G19G 2G16G 6
  22655578.173    11362248.844 6   8853672.84921
  22547009.8604   -8775917.53246  -6838345.59761
  20648537.126      220226.879 6    171601.71722
  20538109.4074  -18197885.54547 -14137022.06063
  22808249.7284   -7032049.39545  -5416220.34961
  21919451.821   -12145925.132 6  -9296048.70921
 91  5 14 19 57 59.9970000  0  6G18G11G19G 2G16G 6
  22663866.9624   11405802.48646   8887610.60361
  22548102.5564   -8770182.25146  -6833876.54561
  20650570.657      230918.582 6    179932.89922
  20532158.4314  -18229166.45247 -14161396.75663
  22809201.985    -7027036.599 5  -5412314.32921
  21912285.5244  -12183606.05046  -9325410.42461
 91  5 14 19 58 14.9970000  0  6G18G11G19G 2G16G 6
  22672165.6494   11449407.66046   8921588.53861
  22549221.7044   -8764293.34446  -6829287.78561
  20652615.056      241670.623 6    188311.09522
  20526221.1424  -18260358.73747 -14185702.39363
  22810183.548    -7021898.829 5  -5408310.92721
  21905117.251   -12221263.865 6  -9354754.12921
 91  5 14 19 58 29.9970000  0  6G18G11G19G 2G16G 6
  22680471.8534   11493056.36146   8955600.35761
  22550369.3844   -8758258.88546  -6824585.62161
  20654674.798      252474.979 6    196730.05422
  20520299.0244  -18291470.36647 -14209945.18763
  22811182.3764   -7016644.25945  -5404216.51461
  21897956.009   -12258906.480 6  -9384085.99221
 91  5 14 19 58 44.9970000  0  6G18G11G19G 2G16G 6
  22688785.009    11536749.441 5   8989646.77521
  22551545.6264   -8752077.81646  -6819769.19461
  20656738.962      263332.980 6    205190.81722
  20514396.626   -18322500.190 7 -14234124.22823
  22812203.1034   -7011272.07845  -5400030.46661
  21890793.368   -12296532.785 6  -9413405.13521
 91  5 14 19 58 59.9970000  0  6G18G11G19G 2G16G 6
  22697109.2044   11580491.31245   9023731.19161
  22552751.6034   -8745745.61346  -6814835.01061
  20658817.876      274249.334 6    213697.04822
  20508509.181   -18353443.597 7 -14258235.92923
  22813250.392    -7005777.836 5  -5395749.29621
  21883639.2904  -12334138.07246  -9442707.91261
 91  5 14 19 59 14.9970000  0  6G18G11G19G 2G16G 6
  22705439.853    11624279.968 5   9057852.08321
  22553984.5094   -8739263.90846  -6809784.32761
  20660901.282      285222.405 6    222247.48222
  20502634.329   -18384302.077 7 -14282281.46523
  22814317.6494   -7000163.51645  -5391374.55761
  21876486.0954  -12371723.86446  -9471995.49961
 91  5 14 19 59 29.9970000  0  6G18G11G19G 2G16G 6
  22713783.9234   11668106.37145   9092002.38061
  22555245.2674   -8732641.78446  -6804624.23361
  20663000.696      296243.237 6    230835.11822
  20496777.3144  -18415084.72347 -14306267.90163
  22815406.9074   -6994437.95045  -5386913.13661
  21869335.9394  -12409299.13246  -9501274.89061
 91  5 14 19 59 44.9970000  0  6G18G11G19G 2G16G 6
  22722128.4464   11711977.71145   9126187.69061
  22556536.2284   -8725872.11746  -6799349.18361
  20665107.173      307319.501 6    239465.96122
  20490935.5324  -18445784.16947 -14330189.51163
  22816521.8374   -6988594.05445  -5382359.51861
  21862190.9854  -12446856.43546  -9530540.28661
 91  5 14 19 59 59.9970000  0  6G18G11G19G 2G16G 6
  22730489.7434   11755897.27145   9160410.57961
  22557849.8764   -8718951.10846  -6793956.18861
  20667228.751      318455.077 6    248143.01422
  20485111.9784  -18476396.60947 -14354043.33363
  22817657.2824   -6982628.39145  -5377711.00361
  21855045.571   -12484392.062 6  -9559788.80321
 91  5 14 20  0 14.9970000  0  6G18G11G19G 2G16G 6
  22738856.415    11799861.629 5   9194668.38021
  22559195.6574   -8711882.09946  -6788447.86861
  20669358.939      329646.733 6    256863.76622
  20479302.6814  -18506925.07047 -14377831.70763
  22818812.8214   -6976544.60245  -5372970.44161
  21847908.204   -12521909.010 6  -9589022.73421
 91  5 14 20  0 29.9970000  0  6G18G11G19G 2G16G 6
  22747227.0174   11843865.36145   9228956.83061
  22560567.853    -8704670.442 6  -6782828.38521
  20671498.306      340889.103 6    265624.04022
  20473507.8844  -18537374.78847 -14401558.73063
  22819992.618    -6970347.739 5  -5368141.77021
  21840769.298   -12559412.521 6  -9618246.20521
 91  5 14 20  0 44.9970000  0  6G18G11G19G 2G16G 6
  22755611.3604   11887907.84145   9263275.50861
  22561967.3764   -8697316.57046  -6777098.09861
  20673648.071      352181.934 6    274423.63022
  20467727.6034  -18567745.98647 -14425224.56363
  22821194.3684   -6964038.43546  -5363225.49561
  21833635.1184  -12596902.92246  -9647459.46961
 91  5 14 20  0 59.9970000  0  6G18G11G19G 2G16G 6
  22763997.6654   11931997.12845   9297630.64561
  22563395.2434   -8689812.25546  -6771250.57961
  20675804.337      363533.575 6    283269.05122
  20461963.9394  -18598030.50947 -14448822.85863
  22822415.9314   -6957608.89845  -5358215.52861
  21826507.259   -12634371.933 6  -9676656.05021
 91  5 14 20  1 14.9970000  0  6G18G11G19G 2G16G 6
  22772394.001    11976133.690 5   9332022.62621
  22564852.290    -8682157.078 6  -6765285.49121
  20677978.907      374944.658 6    292160.78722
  20456217.8844  -18628227.54847 -14472352.98463
  22823662.6184   -6951058.23445  -5353111.18761
  21819379.8764  -12671818.78546  -9705835.38261
 91  5 14 20  1 29.9970000  0  6G18G11G19G 2G16G 6
  22780806.853    12020311.859 5   9366447.01721
  22566337.235    -8674356.369 6  -6759207.00321
  20680162.6574     386410.01846    301094.82162
  20450487.7204  -18658342.49547 -14495819.14163
  22824931.454    -6944391.994 5  -5347916.76021
  21812255.712   -12709248.806 6  -9735001.58821
 91  5 14 20  1 44.9970000  0  6G18G11G19G 2G16G 6
  22789220.939    12064533.999 5   9400905.68921
  22567849.6344   -8666407.99446  -6753013.47261
  20682351.407      397931.996 6    310072.97022
  20444772.8994  -18688373.26147 -14519219.70563
  22826221.126    -6937608.456 5  -5342630.96021
  21805137.4154  -12746659.57746  -9764152.78861
 91  5 14 20  1 59.9970000  0  6G18G11G19G 2G16G 6
  22797644.704    12108796.888 5   9435396.10821
  22569389.048    -8658314.835 6  -6746707.10421
  20684560.1184     409507.90546    319093.15162
  20439072.6964  -18718322.57147 -14542556.79363
  22827536.2594   -6930710.40245  -5337255.92561
  21798023.759   -12784053.910 6  -9793291.18721
 91  5 14 20  2 14.9970000  0  6G18G11G19G 2G16G 6
  22806076.4624   12153107.55345   9469923.73861
  22570959.4624   -8650069.80646  -6740282.39561
  20686769.353      421144.955 6    328160.96422
  20433390.2354  -18748183.16247 -14565824.75663
  22828871.095    -6923690.937 5  -5331786.27321
  21790911.024   -12821424.531 6  -9822411.10221
 91  5 14 20  2 29.9970000  0  6G18G11G19G 2G16G 6
  22814512.5404   12197457.50145   9504481.98761
  22572555.2204   -8641681.08146  -6733745.73261
  20688993.1654     432835.22746    337270.25762
  20427722.2124  -18777962.90047 -14589029.70663
  22830225.0244   -6916558.33045  -5326228.45961
  21783803.665   -12858779.286 6  -9851518.65621
 91  5 14 20  2 44.9970000  0  6G18G11G19G 2G16G 6
  22822964.071    12241849.259 5   9539072.81021
  22574179.165    -8633146.071 6  -6727095.05021
  20691227.821      444581.555 6    346423.22222
  20422072.8684  -18807658.97747 -14612169.47263
  22831602.853    -6909309.965 5  -5320580.44621
  21776697.470   -12896115.643 6  -9880611.86921
 91  5 14 20  2 59.9970000  0  6G18G11G19G 2G16G 6
  22831418.564    12286283.604 5   9573696.82221
  22575831.8994   -8624463.84346  -6720329.67461
  20693473.7514     456385.01046    355620.70262
  20416438.1034  -18837270.39747 -14635243.27263
  22833008.6654   -6901945.07245  -5314841.65861
  21769596.5644  -12933432.31646  -9909689.75361
 91  5 14 20  3 14.9970000  0  6G18G11G19G 2G16G 6
  22839882.9074   12330757.74745   9608351.85661
  22577510.196    -8615637.118 6  -6713451.69421
  20695731.431      468242.835 6    364860.55222
  20410819.3994  -18866799.82547 -14658253.17863
  22834433.032    -6894466.497 5  -5309014.24321
  21762499.1424  -12970732.12846  -9938754.50561
 91  5 14 20  3 29.9970000  0  6G18G11G19G 2G16G 6
  22848352.7284   12375269.73845   9643036.36761
  22579216.399    -8606667.818 6  -6706462.60421
  20697997.478      480153.368 6    374141.47122
  20405215.2904  -18896248.94147 -14681200.51263
  22835874.251    -6886876.314 5  -5303099.89521
  21755402.915   -13008016.535 6  -9967807.24521
 91  5 14 20  3 44.9970000  0  6G18G11G19G 2G16G 6
  22856830.8144   12419821.02245   9677751.50161
  22580950.9464   -8597554.34946  -6699361.19561
  20700274.056      492118.344 6    383464.80822
  20399625.8214  -18925615.99347 -14704083.89363
  22837344.0714   -6879172.88645  -5297097.31161
  21748312.407   -13045283.849 6  -9996846.65621
 91  5 14 20  3 59.9970000  0  6G18G11G19G 2G16G 6
  22865315.1814   12464408.16445   9712494.57861
  22582713.212    -8588299.983 6  -6692149.98021
  20702562.165      504134.890 6    392828.33022
  20394054.1654  -18954904.08147 -14726905.74263
  22838828.946    -6871359.636 5  -5291009.13521
  21741221.3604  -13082537.08846 -10025875.12761
 91  5 14 20  4 14.9970000  0  6G18G11G19G 2G16G 6
  22873806.8604   12509038.91245   9747271.63461
  22584500.6264   -8578897.02146  -6684822.97061
  20704858.212      516210.852 6    402238.15622
  20388496.0324  -18984105.37747 -14749659.95763
  22840334.0404   -6863429.01345  -5284829.51361
  21734136.1964  -13119768.50246 -10054886.55761
 91  5 14 20  4 29.9970000  0  6G18G11G19G 2G16G 6
  22882307.532    12553706.461 5   9782077.34721
  22586317.8064   -8569351.83246  -6677385.14161
  20707171.446      528339.922 6    411689.36222
  20382954.4464  -19013226.31947 -14772351.56263
  22841867.907    -6855387.529 5  -5278563.49721
  21727056.5094  -13156984.23146 -10083885.79661
 91  5 14 20  4 44.9970000  0  6G18G11G19G 2G16G 6
  22890815.884    12598413.271 5   9816913.68321
  22588161.712    -8559661.836 6  -6669834.47021
  20709486.735      540524.894 6    421184.13222
  20377427.9704  -19042264.11747 -14794978.37664
  22843420.923    -6847232.624 5  -5272209.09821
  21719976.892   -13194181.587 6 -10112870.70021
 91  5 14 20  4 59.9970000  0  6G18G11G19G 2G16G 6
  22899333.774    12643161.630 5   9851782.38021
  22590034.7434   -8549824.83546  -6662169.24261
  20711818.767      552768.223 6    430724.36822
  20371920.407   -19071216.382 7 -14817538.54023
  22844993.618    -6838962.008 5  -5265764.54721
  21712900.064   -13231358.037 6 -10141839.31521
 91  5 14 20  5 14.9970000  0  6G18G11G19G 2G16G 6
  22907856.7124   12687951.39245   9886683.33061
  22591930.8374   -8539840.96546  -6654389.59161
  20714158.446      565069.917 6    440310.09122
  20366426.2824  -19100083.16647 -14840032.09663
  22846589.0324   -6830576.13246  -5259230.15961
  21705831.048   -13268513.681 6 -10170791.72721
 91  5 14 20  5 29.9970000  0  6G18G11G19G 2G16G 6
  22916385.321    12732784.469 5   9921618.04221
  22593864.509    -8529707.943 6  -6646493.72121
  20716508.704      577432.476 6    449943.23922
  20360947.9234  -19128861.82647 -14862456.98863
  22848210.6574   -6822072.86146  -5252604.30661
  21698765.134   -13305645.978 6 -10199725.93421
 91  5 14 20  5 44.9970000  0  6G18G11G19G 2G16G 6
  22924922.3994   12777658.98945   9956585.04761
  22595819.415    -8519427.456 6  -6638482.90621
  20718875.814      589854.499 6    459622.72122
  20355489.6344  -19157554.00247 -14884814.49163
  22849846.9234   -6813453.83146  -5245888.22261
  21691702.3454  -13342756.31146 -10228643.03561
 91  5 14 20  5 59.9970000  0  6G18G11G19G 2G16G 6
  22933471.2354   12822567.62945   9991578.64361
  22597799.6574   -8509006.84646  -6630362.92561
  20721248.759      602328.679 6    469342.84622
  20350045.0714  -19186166.82247 -14907110.15663
  22851512.0564   -6804726.40946  -5239087.71261
  21684645.407   -13379852.051 6 -10257548.76721
 91  5 14 20  6 14.9970000  0  6G18G11G19G 2G16G 6
  22942023.368    12867509.751 5  10026598.32321
  22599814.1964   -8498446.77346  -6622134.27161
  20723630.517      614854.531 6    479103.23222
  20344614.7594  -19214700.76747 -14929344.35563
  22853191.7744   -6795891.33346  -5232203.28961
  21677586.6894  -13416933.36046 -10286443.24061
 91  5 14 20  6 29.9970000  0  6G18G11G19G 2G16G 6
  22950580.7434   12912487.90245  10061646.08461
  22601845.345    -8487744.535 6  -6613794.83821
  20726029.017      627434.947 6    488906.13522
  20339202.2904  -19243153.07747 -14951514.94863
  22854890.9624   -6786946.07646  -5225233.00361
  21670534.8604  -13453997.58146 -10315324.42361
 91  5 14 20  6 44.9970000  0  6G18G11G19G 2G16G 6
  22959148.118    12957499.868 5  10096720.18321
  22603908.329    -8476902.291 6  -6605346.31321
  20728426.782      640068.038 6    498750.08522
  20333801.7284  -19271525.89647 -14973623.59964
  22856615.9234   -6777893.03546  -5218178.76261
  21663485.345   -13491046.655 6 -10344193.78821
 91  5 14 20  6 59.9970000  0  6G18G11G19G 2G16G 6
  22967722.2354   13002551.85845  10131825.47761
  22605999.298    -8465913.699 6  -6596783.74721
  20730846.126      652760.250 6    508640.09922
  20328419.1734  -19299812.64747 -14995665.18463
  22858361.8994   -6768726.01946  -5211035.68161
  21656439.337   -13528073.792 6 -10373046.05221
 91  5 14 20  7 14.9970000  0  6G18G11G19G 2G16G 6
  22976301.4784   13047643.35945  10166961.56561
  22608119.509    -8454779.144 6  -6588107.44521
  20733269.485      665511.612 6    518576.20622
  20323050.071   -19328013.393 7 -15017639.75023
  22860125.4314   -6759445.34646  -5203804.05361
  21649395.837   -13565079.418 6 -10401881.56421
 91  5 14 20  7 29.9970000  0  6G18G11G19G 2G16G 6
  22984888.7514   13092766.98645  10202122.68061
  22610266.196    -8443506.135 6  -6579323.27821
  20735708.501      678314.849 6    528552.73122
  20317697.3604  -19356135.62047 -15039553.13763
  22861916.423    -6750058.546 6  -5196489.73421
  21642359.2284  -13602070.82846 -10430705.98261
 91  5 14 20  7 44.9970000  0  6G18G11G19G 2G16G 6
  22993480.462    13137923.510 5  10237309.41721
  22612436.1424   -8432093.59546  -6570430.36061
  20738152.470      691171.046 6    538570.52422
  20312363.5094  -19384177.95747 -15061404.26763
  22863723.3214   -6740564.88846  -5189092.11661
  21635321.415   -13639046.555 6 -10459518.18921
 91  5 14 20  7 59.9970000  0  6G18G11G19G 2G16G 6
  23002082.2904   13183120.83845  10272527.94761
  22614634.4074   -8420533.40446  -6561422.38761
  20740611.759      704088.467 6    548636.03522
  20307043.8604  -19412132.36147 -15083186.88663
  22865548.064    -6730956.118 5  -5181604.84721
  21628288.478   -13675998.450 6 -10488311.83521
 91  5 14 20  8 14.9970000  0  6G18G11G19G 2G16G 6
  23010686.8924   13228349.31445  10307770.76761
  22616864.7044   -8408835.20546  -6552306.90061
  20743078.126      717057.698 6    558741.90722
  20301740.1734  -19440008.26547 -15104908.33263
  22867396.392    -6721242.166 6  -5174035.58621
  21621259.970   -13712935.799 6 -10517094.13221
 91  5 14 20  8 29.9970000  0  6G18G11G19G 2G16G 6
  23019304.8994   13273614.58045  10343042.24761
  22619118.001    -8396993.405 6  -6543079.51021
  20745560.540      730084.721 6    568892.81922
  20296451.6034  -19467799.88347 -15126564.09563
  22869266.0484   -6711417.29445  -5166379.88861
  21614236.024   -13749852.954 6 -10545860.70521
 91  5 14 20  8 44.9970000  0  6G18G11G19G 2G16G 6
  23027924.728    13318907.881 5  10378335.56521
  22621394.9154   -8385016.54946  -6533746.85861
  20748044.517      743161.266 6    579082.31822
  20291177.774   -19495515.655 7 -15148160.76123
  22871155.9934   -6701490.13745  -5158644.49861
  21607210.587   -13786758.216 6 -10574618.00921
 91  5 14 20  8 59.9970000  0  6G18G11G19G 2G16G 6
  23036549.6894   13364235.79445  10413655.84861
  22623701.306    -8372897.859 6  -6524303.71221
  20750549.165      756294.202 6    589315.75922
  20285919.3994  -19523148.60547 -15169692.89363
  22873065.2044   -6691454.04545  -5150824.24061
  21600189.9624  -13823644.59146 -10603360.59861
 91  5 14 20  9 14.9970000  0  6G18G11G19G 2G16G 6
  23045184.9784   13409604.07545  10449007.60461
  22626036.556    -8360631.608 6  -6514745.58121
  20753055.649      769489.402 6    599597.72322
  20280679.3684  -19550692.83747 -15191155.89163
  22874998.384    -6681303.458 5  -5142914.76621
  21593178.7284  -13860505.96046 -10632083.69861
 91  5 14 20  9 29.9970000  0  6G18G11G19G 2G16G 6
  23053820.360    13455001.101 5  10484381.74321
  22628395.376    -8348229.405 6  -6505081.50221
  20755578.868      782735.490 6    609919.33922
  20275451.4314  -19578159.81947 -15212558.69663
  22876952.1104   -6671050.13345  -5134925.22561
  21586166.876   -13897353.835 6 -10660796.28621
 91  5 14 20  9 44.9970000  0  6G18G11G19G 2G16G 6
  23062469.1574   13500434.13645  10519783.96161
  22630785.0174   -8335683.74446  -6495305.63261
  20758109.493      796040.253 6    620286.67622
  20270239.7124  -19605541.56247 -15233895.07763
  22878916.7514   -6660686.57845  -5126849.80961
  21579158.0404  -13934180.48546 -10689492.33661
 91  5 14 20  9 59.9970000  0  6G18G11G19G 2G16G 6
  23071120.368    13545902.935 5  10555214.02021
  22633199.509    -8322994.887 6  -6485418.18921
  20760654.782      809403.453 6    630699.54722
  20265044.0484  -19632838.30147 -15255165.23563
  22880914.4934   -6650213.16645  -5118688.77361
  21572155.642   -13970985.923 6 -10718171.85521
 91  5 14 20 10 14.9970000  0  6G18G11G19G 2G16G 6
  23079777.9234   13591404.51145  10590669.63661
  22635638.4544   -8310165.65446  -6475421.35961
  20763204.6734     822822.48746    641155.92962
  20259867.9314  -19660052.86747 -15276371.36163
  22882926.0874   -6639632.98145  -5110444.53661
  21565156.149   -14007772.895 6 -10746836.97921
 91  5 14 20 10 29.9970000  0  6G18G11G19G 2G16G 6
  23088444.634    13636937.863 5  10626150.02221
  22638109.384    -8297196.838 6  -6465315.77221
  20765773.868      836297.020 6    651655.55322
  20254704.1264  -19687185.88847 -15297513.94063
  22884961.8684   -6628946.69746  -5102117.64161
  21558155.712   -14044541.806 6 -10775488.03321
 91  5 14 20 10 44.9970000  0  6G18G11G19G 2G16G 6
  23097119.3764   13682507.88445  10661658.96861
  22640603.6184   -8284083.66646  -6455097.69961
  20768346.5404     849832.01546    662202.29462
  20249558.1424  -19714232.44147 -15318589.14063
  22887014.4854   -6618149.64546  -5093704.43161
  21551165.649   -14081287.716 6 -10804121.16421
 91  5 14 20 10 59.9970000  0  6G18G11G19G 2G16G 6
  23105797.423    13728109.708 5  10697192.69421
  22643123.8924   -8270830.99546  -6444770.92061
  20770936.392      863422.676 6    672792.40322
  20244423.9464  -19741197.10347 -15339600.53363
  22889090.6184   -6607246.62145  -5085208.64261
  21544176.360   -14118015.155 6 -10832739.89521
 91  5 14 20 11 14.9970000  0  6G18G11G19G 2G16G 6
  23114479.157    13773741.424 5  10732749.73121
  22645672.009    -8257440.352 6  -6434336.62521
  20773527.173      877067.863 6    683425.00422
  20239311.0484  -19768081.05147 -15360549.02963
  22891187.0794   -6596239.21446  -5076631.51361
  21537189.8534  -14154725.30446 -10861345.17561
 91  5 14 20 11 29.9970000  0  6G18G11G19G 2G16G 6
  23123171.3534   13819402.89245  10768329.93661
  22648246.9314   -8243912.23546  -6423795.22961
  20776135.048      890767.249 6    694099.83722
  20234210.3144  -19794884.73247 -15381434.97863
  22893298.892    -6585128.205 5  -5067973.64021
  21530209.110   -14191418.743 6 -10889937.42021
 91  5 14 20 11 44.9970000  0  6G18G11G19G 2G16G 6
  23131868.1104   13865101.22845  10803938.87461
  22650849.6344   -8230239.03246
  20778753.353      904528.608 6
  20229125.1574  -19821600.59647 -15402252.50263
  22895432.704    -6573906.239 5  -5059229.33121
  21523229.1424  -14228087.51846 -10918510.45361
 91  5 14 20 11 59.9970000  0  6G18G11G19G 2G16G 6
  23140568.548    13910838.250 5  10839577.93721
  22653478.0714   -8216419.08046
  20781384.907      918353.774 6
  20224056.931   -19848226.508 7 -15422999.94023
  22897591.7984   -6562571.73345  -5050397.35961
  21516254.814   -14264729.582 6 -10947062.66121
 91  5 14 20 12 14.9970000  0  6G18G11G19G 2G16G 6
  23149276.595    13956601.984 5  10875237.85821
  22656136.220    -8202464.314 6  -6391498.09521
  20784023.704      932231.335 6    726409.47121
  20219007.439   -19874774.233 7 -15443686.45422
  22899768.9934   -6551136.61145  -5041486.95761
  21509287.9544  -14301356.53446 -10975603.11461
 91  5 14 20 12 29.9970000  0  6G18G11G19G 2G16G 6
  23157984.040    14002391.627 5  10910917.95021
  22658815.806    -8188375.384 6  -6380519.69721
  20786677.2434     946160.74446    737263.54862
  20213969.4784  -19901244.35547 -15464312.48363
  22901962.1034   -6539601.41645  -5032498.57061
  21502320.360   -14337969.047 6 -11004132.28821
 91  5 14 20 12 44.9970000  0  6G18G11G19G 2G16G 6
  23166708.9394   14048213.01645  10946622.76461
  22661522.837    -8174146.353 6  -6369432.12621
  20789338.681      960148.029 6    748162.71722
  20208949.3764  -19927630.82947 -15484873.34463
  22904175.071    -6527960.277 5  -5023427.61721
  21495355.478   -14374560.858 6 -11032645.34721
 91  5 14 20 12 59.9970000  0  6G18G11G19G 2G16G 6
  23175432.4234   14094066.44945  10982352.56161
  22664256.532    -8159776.763 6  -6358235.02721
  20792013.368      974193.969 6    759107.59422
  20203942.4934  -19953933.08547 -15505368.58163
  22906415.962    -6516213.051 5  -5014274.01421
  21488398.9934  -14411131.20846 -11061141.69161
 91  5 14 20 13 14.9970000  0  6G18G11G19G 2G16G 6
  23184162.5484   14139946.07345  11018102.74761
  22667017.915    -8145272.433 6  -6346932.93821
  20794694.001      988292.976 6    770093.81422
  20198953.0014  -19980156.60347 -15525802.46163
  22908669.939    -6504365.378 5  -5005042.13621
  21481443.5794  -14447685.64246 -11089625.62061
 91  5 14 20 13 29.9970000  0  6G18G11G19G 2G16G 6
  23192903.2124   14185857.16345  11053877.46161
  22669805.6424   -8130628.32946  -6335521.94561
  20797387.962     1002450.254 6    781125.44922
  20193980.0874  -20006296.29247 -15546171.02163
  22910947.329    -6492412.579 5  -4995728.34321
  21474488.970   -14484219.030 6 -11118093.15722
 91  5 14 20 13 44.9970000  0  6G18G11G19G 2G16G 6
  23201646.415    14231801.427 5  11089678.04921
  22672615.603    -8115842.193 6  -6324000.26421
  20800095.7744    1016668.26846    792204.41062
  20189021.1814  -20032349.62947 -15566472.29363
  22913235.4624   -6480352.41445  -4986330.90661
  21467541.7904  -14520728.72146 -11146542.22761
 91  5 14 20 13 59.9970000  0  6G18G11G19G 2G16G 6
  23210393.923    14277773.130 5  11125499.98921
  22675457.501    -8100919.852 6  -6312372.44621
  20802813.782     1030941.589 6    803326.45922
  20184078.774   -20058322.280 8 -15586710.69923
  22915555.1574   -6468190.67745  -4976854.33061
  21460597.2594  -14557220.34246 -11174977.21862
 91  5 14 20 14 14.9970000  0  6G18G11G19G 2G16G 6
  23219143.5324   14323778.52645  11161348.18861
  22678322.204    -8085855.078 6  -6300633.65221
  20805535.649     1045276.590 6    814496.57822
  20179153.5094  -20084207.69647 -15606881.12663
  22917889.4934   -6455920.96645  -4967293.58161
  21453660.728   -14593687.431 6 -11203393.08722
 91  5 14 20 14 29.9970000  0  6G18G11G19G 2G16G 6
  23227907.2204   14369813.50645  11197219.44461
  22681219.8294   -8070651.90146  -6288787.01761
  20808280.079     1059669.486 6    825711.80522
  20174241.5794  -20110009.89547 -15626986.70963
  22920239.595    -6443547.755 5  -4957652.20521
  21446724.267   -14630133.659 6 -11231792.69822
 91  5 14 20 14 44.9970000  0  6G18G11G19G 2G16G 6
  23236671.5324   14415879.77145  11233115.09061
  22684134.8454   -8055308.63446  -6276831.21361
  20811024.681     1074122.164 6    836973.61621
  20169349.1424  -20135727.03747 -15647026.01663
  22922614.7044   -6431069.37545  -4947928.86261
  21439793.837   -14666557.187 6 -11260174.62722
 91  5 14 20 14 59.9970000  0  6G18G11G19G 2G16G 6
  23245449.462    14461982.547 5  11269039.17621
  22687082.556    -8039820.020 6  -6264762.14321
  20813788.376     1088640.258 6    848286.39722
  20164472.532   -20161353.591 8 -15666994.73023
  22925013.071    -6418480.655 5  -4938119.53121
  21432865.6574  -14702952.40346 -11288534.49462
 91  5 14 20 15 14.9970000  0  6G18G11G19G 2G16G 6
  23254222.5794   14508113.36645  11304985.10061
  22690058.1574   -8024194.42646  -6252586.34761
  20816561.439     1103215.601 6    859643.79222
  20159610.767   -20186897.725 7 -15686899.22923
  22927425.790    -6405789.765 5  -4928230.60921
  21425945.6034  -14739327.37246 -11316878.59762
 91  5 14 20 15 29.9970000  0  6G18G11G19G 2G16G 6
  23263006.501    14554271.427 5  11340952.24621
  22693055.7904   -8008432.58146  -6240304.38961
  20819348.720     1117847.575 6    871045.31622
  20154766.7204  -20212359.96348 -15706739.90763
  22929858.931    -6392997.829 5  -4918262.91221
  21419024.1964  -14775682.51546 -11345207.24162
 91  5 14 20 15 44.9970000  0  6G18G11G19G 2G16G 6
  23271796.728    14600460.343 5  11376943.45521
  22696082.712    -7992530.701 6  -6227913.29421
  20822143.087     1132540.221 6    882494.10722
  20149938.0174  -20237736.40248 -15726513.72863
  22932314.228    -6380101.438 5  -4908213.86721
  21412113.556   -14812014.014 6 -11373517.46022
 91  5 14 20 15 59.9970000  0  6G18G11G19G 2G16G 6
  23280594.899    14646677.970 5  11412957.02621
  22699135.704    -7976491.018 6  -6215414.84321
  20824950.0324    1147291.42746    893988.54162
  20145123.915   -20263029.183 8 -15746222.36423
  22934786.1264   -6367102.50545  -4898084.92361
  21405202.1264  -14848323.68246 -11401810.66662
 91  5 14 20 16 14.9970000  0  6G18G11G19G 2G16G 6
  23289394.7594   14692921.10045  11448990.48361
  22702214.204    -7960316.414 6  -6202811.23821
  20827768.579     1162098.638 6    905526.61322
  20140325.4624  -20288240.95548 -15765867.87263
  22937280.212    -6354004.006 5  -4887878.38621
  21398296.0644  -14884614.17446 -11430088.94062
 91  5 14 20 16 29.9970000  0  6G18G11G19G 2G16G 6
  23298202.345    14739191.146 5  11485044.89621
  22705317.5244   -7944005.71346  -6190101.58961
  20830596.767     1176963.549 6    917109.64122
  20135546.329   -20313370.237 8 -15785449.10523
  22939798.017    -6340804.955 5  -4877593.47721
  21391395.009   -14920884.004 6 -11458351.09922
 91  5 14 20 16 44.9970000  0  6G18G11G19G 2G16G 6
  23307007.689    14785491.388 5  11521122.81521
  22708448.235    -7927555.495 6  -6177283.22821
  20833436.1814    1191889.67746    928740.37661
  20130779.360   -20338413.399 8 -15804963.24123
  22942324.923    -6327501.817 5  -4867227.50021
  21384499.001   -14957129.372 6 -11486594.20522
 91  5 14 20 16 59.9970000  0  6G18G11G19G 2G16G 6
  23315823.790    14831815.819 5  11557219.63721
  22711604.548    -7910971.554 6  -6164360.66221
  20836293.681     1206871.494 6    940414.49621
  20126029.790   -20363376.062 8 -15824414.63323
  22944872.087    -6314100.684 5  -4856785.14921
  21377602.1264  -14993356.01446 -11514822.71962
 91  5 14 20 17 14.9970000  0  6G18G11G19G 2G16G 6
  23324646.704    14878166.923 5  11593337.22121
  22714785.6104   -7894251.73846  -6151332.22461
  20839150.376     1221911.374 6    952133.86622
  20121295.2904  -20388255.85748 -15843801.46063
  22947441.845    -6300599.429 5  -4846264.80921
  21370714.384   -15029561.266 6 -11543034.55922
 91  5 14 20 17 29.9970000  0  6G18G11G19G 2G16G 6
  23333471.1264   14924546.46845  11629476.92061
  22717991.0644   -7877393.90146  -6138196.24761
  20842026.470     1237011.786 6    963900.40622
  20116576.314   -20413050.547 8 -15863121.97323
  22950031.0174   -6286995.98045  -4835664.82861
  21363829.314   -15065742.829 6 -11571227.94022
 91  5 14 20 17 44.9970000  0  6G18G11G19G 2G16G 6
  23342298.6034   14970948.47145  11665634.18861
  22721224.048    -7860404.058 6  -6124957.39321
  20844907.517     1252167.061 6    975709.69222
  20111872.439   -20437766.012 8 -15882380.75223
  22952641.478    -6273296.282 5  -4824989.80221
  21356948.0404  -15101906.46446 -11599407.35462
 91  5 14 20 17 59.9970000  0  6G18G11G19G 2G16G 6
  23351136.4314   15017373.25545  11701809.16961
  22724482.282    -7843281.912 6  -6111615.45421
  20847801.806     1267377.703 6    987562.12922
  20107184.149   -20462401.731 8 -15901577.39023
  22955270.2514   -6259500.11345  -4814239.61461
  21350070.517   -15138051.384 6 -11627572.19122
 91  5 14 20 18 14.9970000  0  6G18G11G19G 2G16G 6
  23359973.845    15063829.285 5  11738008.53621
  22727770.0644   -7826019.07446  -6098163.88261
  20850709.337     1282652.231 6    999464.34222
  20102514.0324  -20486949.01448 -15920705.11763
  22957912.493    -6245599.301 5  -4803407.95721
  21343195.306   -15174169.166 6 -11655715.87322
 91  5 14 20 18 29.9970000  0  6G18G11G19G 2G16G 6
  23368824.751    15110319.153 5  11774234.19621
  22731081.1424   -7808612.80246  -6084600.54361
  20853628.517     1297993.632 6   1011418.66522
  20097857.876   -20511404.809 8 -15939761.55723
  22960573.3994   -6231591.10945  -4792492.54261
  21336328.5244  -15210256.59846 -11683835.90962
 91  5 14 20 18 44.9970000  0  6G18G11G19G 2G16G 6
  23377676.0324   15156832.41245  11810478.10761
  22734418.485    -7791073.370 6  -6070933.44721
  20856558.7594    1313391.97146   1023417.36062
  20093220.1894  -20535779.25748 -15958754.60764
  22963256.954    -6217486.199 5  -4781501.80021
  21329465.384   -15246323.574 6 -11711939.99722
 91  5 14 20 18 59.9970000  0  6G18G11G19G 2G16G 6
  23386532.3684   15203371.81245  11846742.42561
  22737786.3994   -7773398.09146  -6057160.50161
  20859504.282     1328850.272 6   1035462.77422
  20088598.5954  -20560069.71348 -15977682.20763
  22965960.6494   -6203281.74645  -4770433.46461
  21322606.329   -15282367.346 6 -11740026.00522
 91  5 14 20 19 14.9970000  0  6G18G11G19G 2G16G 6
  23395389.9704   15249935.63745  11883025.77061
  22741169.7354   -7755588.72546  -6043283.06761
  20862453.118     1344366.947 6   1047553.67821
  20083993.704   -20584277.622 8 -15996545.49123
  22968690.095    -6188979.264 5  -4759288.75121
  21315751.259   -15318389.394 6 -11768095.08822
 91  5 14 20 19 29.9970000  0  6G18G11G19G 2G16G 6
  23404256.673    15296523.420 5  11919327.73621
  22744584.1894   -7737645.37446  -6029301.23361
  20865416.4394    1359942.09546   1059690.14762
  20079401.657   -20608402.834 8 -16015344.33324
  22971428.642    -6174579.339 5  -4748068.09621
  21308901.735   -15354389.413 6 -11796147.00722
 91  5 14 20 19 44.9970000  0  6G18G11G19G 2G16G 6
  23413125.228    15343125.062 5  11955640.53021
  22748023.7124   -7719578.20346  -6015222.91161
  20868389.884     1375565.898 6   1071864.52222
  20074824.087   -20632455.290 8 -16034086.48423
  22974181.587    -6160091.777 5  -4736779.16821
  21302051.6654  -15390377.31846 -11824189.48562
 91  5 14 20 19 59.9970000  0  6G18G11G19G 2G16G 6
  23421995.360    15389749.424 5  11991971.06121
  22751487.1574   -7701378.41446  -6001041.26361
  20871375.751     1391247.455 6   1084083.89721
  20070263.087   -20656426.138 8 -16052765.04123
  22976956.017    -6145507.932 5  -4725415.20621
  21295208.306   -15426343.989 6 -11852215.42022
 91  5 14 20 20 14.9970000  0  6G18G11G19G 2G16G 6
  23430874.9704   15436393.73445  12028317.06661
  22754975.7824   -7683048.73046  -5986758.38361
  20874367.4784    1406984.08546   1096346.19062
  20065715.235   -20680317.938 8 -16071382.01124
  22979754.024    -6130830.705 5  -4713978.45021
  21288368.235   -15462291.848 6 -11880226.69522
 91  5 14 20 20 29.9970000  0  5G18G11G19G 2G 6
  23439757.1034   15483064.37345  12064683.64961
  22758490.8604   -7664582.83846  -5972369.38061
  20877375.220     1422782.443 6   1108656.58422
  20061184.767   -20704124.060 8 -16089932.20823
  21281531.595   -15498214.367 6 -11908218.22622
 91  5 14 20 20 44.9970000  0  6G18G11G19G 2G16G 6
  23448638.9854   15529758.23745  12101068.31161
  22762027.532    -7645983.858 6  -5957876.66321
  20880393.860     1438639.723 6   1121012.88421
  20056671.290   -20727847.296 8 -16108417.82423
  22985393.4464      14873.01145
  21274699.993   -15534114.164 6 -11936192.04622
 91  5 14 20 20 59.9970000  0  6G18G11G19G 2G16G 6
  23457527.181    15576476.741 5  12137472.17021
  22765594.2124   -7627250.30746  -5943279.08561
  20883422.860     1454557.881 6   1133416.63222
  20052172.415   -20751486.067 8 -16126837.62123
  22988241.8144      29843.74545
  21267875.0714  -15569989.52246 -11964146.82962
 91  5 14 20 21 14.9970000  0  6G18G11G19G 2G16G 6
  23466426.9154   15623215.44745  12173891.76461
  22769181.3064   -7608386.47546  -5928580.00361
  20886461.431     1470532.600 6   1145864.44221
  20047690.064   -20775044.549 8 -16145194.85723
  22991103.7904      44907.75145        -0.39971
  21261049.689   -15605844.579 6 -11992085.79122
 91  5 14 20 21 29.9970000  0  6G18G11G19G 2G16G 6
  23475322.032    15669972.445 5  12210325.60921
  22772797.4544   -7589394.25046  -5913780.86661
  20889514.618     1486562.320 6   1158355.11421
  20043221.845   -20798524.202 8 -16163490.66523
  22993987.462       60063.201 5     11808.94421
  21254231.071   -15641680.673 6 -12020009.98022
 91  5 14 20 21 44.9970000  0  6G18G11G19G 2G16G 6
  23484225.9074   15716749.25245  12246774.90861
  22776435.5404   -7570272.02046  -5898880.41861
  20892571.454     1502649.060 6   1170890.22221
  20038769.696   -20821923.296 8 -16181723.70523
  22996889.360       75311.498 5     23690.66621
  21247417.2204  -15677496.08146 -12047918.04762
 91  5 14 20 21 59.9970000  0  6G18G11G19G 2G16G 6
  23493132.837    15763546.329 5  12283240.01921
  22780101.5714   -7551019.25246  -5883878.27261
  20895646.384     1518793.404 6   1183470.20721
  20034333.306   -20845241.181 8 -16199893.46123
  22999819.3604      90653.04345     35645.03561
  21240603.845   -15713289.795 6 -12075809.21122
 91  5 14 20 22 14.9970000  0  6G18G11G19G 2G16G 6
  23502044.3764   15810362.43845  12319719.91161
  22783786.3144   -7531637.30646  -5868775.45261
  20898725.970     1534994.290 6   1196094.25522
  20029912.267   -20868479.071 8 -16218000.88723
  23002749.6894     106086.71445     47671.19961
  21233795.485   -15749062.978 6 -12103684.37622
 91  5 14 20 22 29.9970000  0  6G18G11G19G 2G16G 6
  23510948.689    15857197.618 5  12356214.70321
  22787502.4544   -7512125.97146  -5853571.82961
  20901823.767     1551252.256 6   1208762.78021
  20025504.439   -20891636.552 8 -16236045.65523
  23005704.681      121612.808 5     59769.40221
  21226992.4784  -15784815.02746 -12131543.08062
 91  5 14 20 22 44.9970000  0  6G18G11G19G 2G16G 6
  23519867.5874   15904056.00045  12392727.55161
  22791238.2514   -7492481.39446  -5838264.34961
  20904927.845     1567571.598 6   1221479.12921
  20021111.274   -20914709.438 7 -16254024.50824
  23008676.954      137234.849 5     71942.33421
  21220192.751   -15820541.835 6 -12159382.10622
 91  5 14 20 22 59.9970000  0  6G18G11G19G 2G16G 6
  23528789.579    15950935.114 5  12429256.55421
  22795001.1104   -7472705.89446  -5822854.87361
  20908047.157     1583950.325 6   1234241.74821
  20016737.540   -20937699.841 7 -16271939.08124
  23011671.9704     152950.54345     84188.24661
  21213401.9074  -15856245.31246 -12187202.96562
 91  5 14 20 23 14.9970000  0  5G11G19G 2G16G 6
  22798792.0954   -7452800.37145  -5807344.06461
  20911170.368     1600387.624 6   1247050.01521
  20012377.821   -20960608.373 7 -16289789.86523
  23014675.9464     168758.73045     96506.23561
  21206611.9074  -15891925.98646 -12215006.04462
 91  5 14 20 23 29.9970000  0  5G11G19G 2G16G 6
  22802605.2354   -7432758.09246  -5791726.70361
  20914313.767     1616890.429 6   1259909.31821
  20008035.7904  -20983428.12047 -16307571.46164
  23017702.517      184666.200 5    108901.60321
  21199827.040   -15927576.938 6 -12242785.96722
 91  5 14 20 23 44.9970000  0  5G11G19G 2G16G 6
  22806441.2904   -7412592.55346  -5776013.30461
  20917460.564     1633445.658 6   1272809.47021
  20003707.704   -21006172.398 7 -16325294.25124
  23020747.6654     200659.26345    121363.68261
  21193046.6494  -15963211.27646 -12270552.94562
 91  5 14 20 23 59.9970000  0  5G11G19G 2G16G 6
  22810304.0244   -7392300.91046  -5760201.63461
  20920624.501     1650056.560 6   1285753.01421
  19999395.603   -21028838.036 7 -16342955.76624
  23023809.985      216740.963 5    133894.79121
  21186268.3144  -15998825.81746 -12298304.50462
 91  5 14 20 24 14.9970000  0  5G11G19G 2G16G 6
  22814187.3994   -7371881.17845  -5744290.15261
  20923796.360     1666725.297 6   1298741.62121
  19995096.384   -21051423.068 7 -16360554.46924
  23026884.774      232913.194 5    146496.44621
  21179496.1734  -16034418.24546 -12326038.82462
 91  5 14 20 24 29.9970000  0  5G11G19G 2G16G 6
  22818099.1494   -7351325.11745  -5728272.45061
  20926981.712     1683460.314 6   1311781.87121
  19990818.2044  -21073918.81248 -16378083.59364
  23029983.6104     249183.98445    159174.90461
  21172726.4784  -16069979.97246 -12353749.22762
 91  5 14 20 24 44.9970000  0  5G11G19G 2G16G 6
  22822035.7674   -7330645.99246  -5712158.85061
  20930175.899     1700248.687 6   1324863.69621
  19986548.853   -21096338.513 7 -16395553.47024
  23033093.3454     265540.14345    171919.90861
  21165965.1344  -16105523.97546 -12381445.81662
 91  5 14 20 24 59.9970000  0  5G11G19G 2G16G 6
  22825993.5954   -7309841.90045  -5695947.87661
  20933382.415     1717092.553 6   1337988.76921
  19982299.7204  -21118679.98247 -16412962.37964
  23036222.524      281983.450 5    184732.76521
  21159203.7204  -16141048.03446 -12409126.86462
 91  5 14 20 25 14.9970000  0  5G11G19G 2G16G 6
  22829976.0874   -7288903.85245  -5679632.51361
  20936599.3214    1734001.27646   1351164.36961
  19978062.407   -21140934.109 7 -16430303.23724
  23039373.8844     298522.46345    197620.22261
  21152448.1814  -16176542.82646 -12436785.10662
 91  5 14 20 25 29.9970000  0  5G11G19G 2G16G 6
  22833988.3994   -7267833.34245  -5663213.94561
  20939829.274     1750973.443 6   1364389.42121
  19973845.1034  -21163102.12247 -16447576.98364
  23042538.9464     315156.05245    210581.38161
  21145702.2514  -16212009.57446 -12464421.50262
 91  5 14 20 25 44.9970000  0  5G11G19G 2G16G 6
  22838022.142    -7246633.212 5  -5646694.36221
  20943068.9854    1768006.61746   1377661.99761
  19969643.228   -21185186.735 7 -16464785.75224
  23045720.1344     331880.99245    223613.72261
  21138954.5874  -16247450.72246 -12492037.94062
 91  5 14 20 25 59.9970000  0  5G11G19G 2G16G 6
  22842082.3294   -7225304.60846  -5630074.67261
  20946320.501     1785099.931 6   1390981.44121
  19965456.540   -21207188.809 7 -16481930.20124
  23048916.087      348696.408 5    236716.55921
  21132216.3994  -16282867.02946 -12519635.03662
 91  5 14 20 26 14.9970000  0  5G11G19G 2G16G 6
  22846162.8844   -7203850.77145  -5613357.39461
  20949584.774     1802250.338 6   1404345.37421
  19961284.587   -21229111.343 7 -16499012.67224
  23052133.306      365598.702 6    249887.09221
  21125481.7514  -16318261.42246 -12547215.04562
 91  5 14 20 26 29.9970000  0  5G11G19G 2G16G 6
  22850269.2044   -7182272.43246  -5596543.10361
  20952864.610     1819457.553 6   1417753.57521
  19957126.649   -21250954.712 7 -16516033.45424
  23055369.4784     382587.28846    263124.86561
  21118750.1964  -16353634.25046 -12574778.25362
 91  5 14 20 26 44.9970000  0  5G11G19G 2G16G 6
  22854401.2674   -7160564.83946  -5579628.08561
  20956145.220     1836726.601 6   1431209.95221
  19952986.962   -21272714.074 7 -16532988.77624
  23058621.384      399666.729 5    276433.44621
  21112024.657   -16388980.362 6 -12602320.63022
 91  5 14 20 26 59.9970000  0  5G11G19G 2G16G 6
  22858556.587    -7138727.641 5  -5562612.08521
  20959446.946     1854058.139 6   1444715.02821
  19948862.6264  -21294388.88047 -16549878.20564
  23061889.6654     416837.17346    289812.94061
  21105303.6574  -16424299.20846 -12629841.77862
 91  5 14 20 27 14.9970000  0  5G11G19G 2G16G 6
  22862735.204    -7116768.474 5  -5545501.05221
  20962750.329     1871444.890 6   1458263.12721
  19944752.704   -21315986.441 7 -16566707.45024
  23065171.9464     434091.16145    303257.53461
  21098584.4314  -16459597.89046 -12657347.20762
 91  5 14 20 27 29.9970000  0  5G11G19G 2G16G 6
  22866935.290    -7094685.013 5  -5528293.14921
  20966071.0714    1888889.23946
  19940658.595   -21337504.133 7 -16583474.45824
  23068470.517      451431.100 5
  21091871.8534  -16494873.75146 -12684834.84862
 91  5 14 20 27 44.9970000  0  5G11G19G 2G16G 6
  22871163.868    -7072478.386 5  -5510989.30321
  20969402.790     1906390.528 6
  19936577.376   -21358943.004 7 -16600180.04824
  23071785.321      468855.790 5
  21085162.610   -16530127.671 6 -12712305.39222
 91  5 14 20 27 59.9970000  0  5G11G19G 2G16G 6
  22875411.0874   -7050151.61045  -5493591.79861
  20972745.274     1923945.927 6
  19932512.259   -21380305.820 7 -16616826.37524
  23075117.821      486362.229 5
  21078459.1104  -16565362.18646 -12739760.82162
 91  5 14 20 28 14.9970000  0  5G11G19G 2G16G 6
  22879684.5874   -7027701.20545  -5476097.99961
  20976096.1034    1941559.26946
  19928462.407   -21401588.866 7 -16633410.53824
  23078466.376      503953.631 5
  21071759.181   -16600573.671 6 -12767198.29222
 91  5 14 20 28 29.9970000  0  5G11G19G 2G16G 6
  22883979.9624   -7005124.77045  -5458505.96261
  20979459.337     1959233.196 6
  19924427.993   -21422789.566 7 -16649930.53924
  23081825.110      521632.316 5
  21065064.1494  -16635759.21346 -12794615.55862
 91  5 14 20 28 44.9970000  0  5G11G19G 2G16G 6
  22888298.7514   -6982426.31045  -5440818.84361
  20982831.689     1976964.072 6
  19920409.329   -21443911.743 7 -16666389.35624
  23085207.392      539394.082 5
  21058371.876   -16670922.609 6 -12822015.56222
 91  5 14 20 28 59.9970000  0  5G11G19G 2G16G 6
  22892642.8534   -6959603.68545  -5423034.97861
  20986219.4074    1994754.40946
  19916403.939   -21464953.073 7 -16682785.17724
  23088605.282      557241.085 5
  21051686.610   -16706061.262 7 -12849396.29122
 91  5 14 20 29 14.9970000  0  5G11G19G 2G16G 6
  22897007.0174   -6936658.56445  -5405155.66661
  20989613.759     2012602.670 6
  19912414.9544  -21485914.98047 -16699119.10164
  23092021.579      575171.749 5
  21045004.532   -16741176.503 6 -12876758.76922
 91  5 14 20 29 29.9970000  0  5G11G19G 2G16G 6
  22901397.0644   -6913590.91945  -5387180.87261
  20993027.220     2030509.172 6   1582209.10322
  19908442.3214  -21506797.11547 -16715390.87164
  23095447.7204     593186.19545    427227.02461
  21038325.3844  -16776267.97246 -12904102.73362
 91  5 14 20 29 44.9970000  0  5G11G19G 2G16G 6
  22905812.2354   -6890400.53745  -5369110.44961
  20996439.048     2048474.552 6   1596208.07721
  19904484.853   -21527598.944 7 -16731600.06024
  23098889.837      611284.101 5    441329.21621
  21031652.024   -16811335.037 6 -12931427.67522
 91  5 14 20 29 59.9970000  0  5G11G19G 2G16G 6
  22910248.4464   -6867084.93245  -5350942.44961
  20999873.2354    2066501.58446   1610255.08662
  19900540.735   -21548317.792 7 -16747744.59424
  23102349.103      629468.246 5    455498.61121
  21024984.3844  -16846374.76946 -12958731.32462
 91  5 14 20 30 14.9970000  0  5G11G19G 2G16G 6
  22914707.4784   -6843649.86445  -5332681.35761
  21003312.071     2084584.732 6   1624345.82621
  19896612.7674  -21568959.21947 -16763828.79564
  23105826.9934     647732.61745    469730.50961
  21018321.2284  -16881392.49747 -12986017.82462
 91  5 14 20 30 29.9970000  0  5G11G19G 2G16G 6
  22919188.7594   -6820091.60545  -5314324.27261
  21006767.2284    2102728.03946   1638483.43462
  19892700.689   -21589519.417 8 -16779849.70124
  23109319.064      666081.113 5    484027.94421
  21011661.1344  -16916384.24847 -13013284.08962
 91  5 14 20 30 44.9970000  0  5G11G19G 2G16G 6
  22923695.4234   -6796414.12345  -5295874.28261
  21010229.1814    2120927.87546   1652665.09662
  19888804.1264  -21610002.21048 -16795810.29564
  23112824.189      684509.269 5    498387.47021
  21005008.3144  -16951353.81047 -13040533.06662
 91  5 14 20 30 59.9970000  0  5G11G19G 2G16G 6
  22928227.3764   -6772619.50945  -5277333.03561
  21013701.9934    2139182.34346   1666889.33362
  19884919.142   -21630409.254 8 -16811711.86324
  23116344.6734     703015.30345    512807.66661
  20998356.4624  -16986302.71247 -13067765.93562
 91  5 14 20 31 14.9970000  0  5G11G19G 2G16G 6
  22932775.8924   -6748702.34645  -5258696.28961
  21017186.267     2157497.178 6   1681160.60322
  19881053.978   -21650734.761 8 -16827549.89524
  23119882.064      721604.680 5    527292.79421
  20991711.3684  -17021225.21047 -13094978.23862
 91  5 14 20 31 29.9970000  0  5G11G19G 2G16G 6
  22937352.7124   -6724664.39245  -5239965.42961
  21020686.243     2175871.097 6   1695477.91922
  19877199.548   -21670980.331 8 -16843325.63824
  23123431.9704     740275.17645    541841.14461
  20985071.0794  -17056122.56747 -13122170.95362
 91  5 14 20 31 44.9970000  0  5G11G19G 2G16G 6
  22941947.0564   -6700505.57845  -5221140.38361
  21024190.7434    2194304.39846   1709841.49962
  19873362.1104  -21691145.72848 -16859038.90864
  23127002.7984     759027.05845    556452.88961
  20978434.3294  -17090994.35947 -13149343.73262
 91  5 14 20 31 59.9970000  0  5G11G19G 2G16G 6
  22946565.6814   -6676233.19045  -5202226.83161
  21027711.337     2212790.123 6   1724245.93422
  19869539.884   -21711237.907 8 -16874695.12723
  23130585.728      777853.144 5    571122.49321
  20971803.8064  -17125847.49447 -13176501.98762
 91  5 14 20 32 14.9970000  0  5G11G19G 2G16G 6
  22951207.3994   -6651838.56745  -5183218.03661
  21031239.048     2231337.192 6   1738698.16922
  19865729.274   -21731248.226 7 -16890287.55924
  23134185.329      796761.886 5    585856.46621
  20965175.0174  -17160673.03347 -13203638.73362
 91  5 14 20 32 29.9970000  0  5G11G19G 2G16G 6
  22955875.6344   -6627324.23345  -5164115.96261
  21034781.103     2249943.465 6   1753196.54122
  19861937.4784  -21751178.75048 -16905817.80864
  23137796.571      815750.688 5    600652.85621
  20958553.8684  -17195473.07447 -13230755.61862
 91  5 14 20 32 44.9970000  0  5G11G19G 2G16G 6
  22960558.853    -6602694.322 5  -5144923.83721
  21038329.6734    2268605.11446   1767738.05262
  19858161.1104  -21771033.34847 -16921288.89763
  23141425.7044     834815.39945    615508.41361
  20951933.6424  -17230251.28747 -13257855.48662
 91  5 14 20 32 59.9970000  0  5G11G19G 2G16G 6
  22965270.892    -6577944.081 5  -5125637.95121
  21041896.0644    2287327.08746   1782326.57962
  19854397.6104  -21790807.08948 -16936696.97863
  23145069.1264     853960.74345    630426.77461
  20945321.212   -17265002.545 7 -13284934.36122
 91  5 14 20 33 14.9970000  0  5G11G19G 2G16G 6
  22970003.1964   -6553073.11345  -5106257.98261
  21045468.0954    2306110.12546   1796962.68662
  19850650.5094  -21810499.48047 -16952041.67063
  23148729.579      873187.009 5    645408.20621
  20938715.7904  -17299726.10347 -13311991.64462
 91  5 14 20 33 29.9970000  0  5G11G19G 2G16G 6
  22974756.751    -6528085.098 5  -5086786.81521
  21049053.1424    2324950.83846   1811643.73662
  19846917.4394  -21830113.94747 -16967325.64363
  23152404.868      892490.343 5    660449.65821
  20932111.8214  -17334425.29147 -13339029.93862
 91  5 14 20 33 44.9970000  0  5G11G19G 2G16G 6
  22979534.1104   -6502979.56645  -5067224.07661
  21052648.0644    2343850.06646   1826370.37662
  19843198.860   -21849649.557 7 -16982548.17123
  23156091.056      911871.530 5    675551.84921
  20925512.6264  -17369099.15547 -13366048.50062
 91  5 14 20 33 59.9970000  0  5G11G19G 2G16G 6
  22984335.774    -6477754.564 5  -5047568.23421
  21056261.634     2362810.203 6   1841144.48222
  19839497.024   -21869104.033 7 -16997707.47523
  23159786.689      931332.344 5    690716.00321
  20918921.0324  -17403745.31547 -13393045.47862
 91  5 14 20 34 14.9970000  0  5G11G19G 2G16G 6
  22989158.7044   -6452411.08345  -5027820.07561
  21059877.1184    2381830.49146   1855965.46562
  19835810.8534  -21888478.31148 -17012804.29163
  23163512.9544     950871.70045    705941.34861
  20912331.9704  -17438364.44747 -13420021.39662
 91  5 14 20 34 29.9970000  0  5G11G19G 2G16G 6
  22994005.5244   -6426944.81145  -5007976.26661
  21063510.7594    2400915.46946   1870836.83661
  19832137.4394  -21907768.18547 -17027835.33163
  23167245.235      970493.908 5    721231.26821
  20905750.9704  -17472951.86547 -13446972.60062
 91  5 14 20 34 44.9970000  0  5G11G19G 2G16G 6
  22998871.7044   -6401359.19345  -4988039.42161
  21067151.6894    2420061.82146   1885756.04661
  19828484.1964  -21926976.68947 -17042802.97263
  23170997.962      990195.247 5    736582.86321
  20899175.4624  -17507510.71347 -13473901.54062
 91  5 14 20 34 59.9970000  0  5G11G19G 2G16G 6
  23003763.3294   -6375656.33445  -4968011.22761
  21070808.5484    2439267.88746   1900721.77962
  19824843.485   -21946105.514 8 -17057708.52023
  23174755.735     1009973.724 5    751994.55521
  20892602.8764  -17542042.70847 -13500809.55462
 91  5 14 20 35 14.9970000  0  5G11G19G 2G16G 6
  23008679.415    -6349837.332 5  -4947892.54621
  21074472.9394    2458532.99946   1915733.52662
  19821217.868   -21965155.469 7 -17072552.61823
  23178532.5874    1029828.26645    767465.49961
  20886038.3374  -17576548.40947 -13527697.08362
 91  5 14 20 35 29.9970000  0  5G11G19G 2G16G 6
  23013613.3844   -6323905.78245  -4927686.16061
  21078150.837     2477853.898 6   1930788.74622
  19817608.1104  -21984130.04848 -17087337.97663
  23182330.423     1049755.096 5    782992.80821
  20879473.8374  -17611030.97447 -13554566.58462
 91  5 14 20 35 44.9970000  0  5G11G19G 2G16G 6
  23018567.907    -6297863.464 5  -4907393.46621
  21081835.7824    2497229.07346   1945886.25362
  19814012.4394  -22003030.68848 -17102065.71963
  23186135.9234    1069752.34445    798574.94761
  20872915.3294  -17645491.87647 -13581419.20262
 91  5 14 20 35 59.9970000  0  5G11G19G 2G16G 6
  23023545.681    -6271703.588 5  -4887009.16821
  21085535.3294    2516665.59746   1961031.56262
  19810430.673   -22021850.371 8 -17116730.38023
  23189951.3924    1089826.54345    814217.13761
  20866363.2204  -17679923.90247 -13608249.31762
 91  5 14 20 36 14.9970000  0  5G11G19G 2G16G 6
  23028545.907    -6245426.757 5  -4866533.73321
  21089244.6574    2536163.12546   1976224.41462
  19806865.806   -22040589.464 8 -17131332.24623
  23193787.2354    1109977.27245    829918.90661
  20859818.2514  -17714327.31947 -13635057.14462
 91  5 14 20 36 29.9970000  0  5G11G19G 2G16G 6
  23033568.548    -6219042.020 5  -4845974.21921
  21092966.7674    2555713.01046   1991458.05462
  19803311.071   -22059256.670 8 -17145878.10023
  23197636.0484    1130195.46845    845673.25761
  20853275.5714  -17748710.68547 -13661849.34862
 91  5 14 20 36 44.9970000  0  5G11G19G 2G16G 6
  23038611.079    -6192544.370 5  -4825326.71921
  21096695.5404    2575320.51646   2006736.60261
  19799773.962   -22077846.958 8 -17160364.01123
  23201497.6894    1150486.30345    861484.20861
  20846737.7044  -17783068.64747 -13688621.75462
 91  5 14 20 36 59.9970000  0  5G11G19G 2G16G 6
  23043673.9074   -6165931.07945  -4804589.11561
  21100443.1654    2594988.61946   2022062.35662
  19796251.774   -22096357.435 8 -17174787.73523
  23205371.7984    1170852.09745    877353.57561
  20840203.9234  -17817398.14047 -13715371.98062
 91  5 14 20 37 14.9970000  0  5G11G19G 2G16G 6
  23048760.173    -6139204.007 5  -4783762.84821
  21104193.3844    2614715.92946   2037434.25662
  19792745.235   -22114789.605 8 -17189150.44023
  23209263.3534    1191291.18145    893280.05561
  20833676.5094  -17851700.46547 -13742101.03062
 91  5 14 20 37 29.9970000  0  5G11G19G 2G16G 6
  23053865.923    -6112366.317 5  -4762850.37021
  21107958.7824    2634499.55946   2052850.04261
  19789249.290   -22133146.349 8 -17203454.36923
  23213169.181     1211800.267 5    909261.05021
  20827154.3534  -17885978.39547 -13768811.07662
 91  5 14 20 37 44.9970000  0  5G11G19G 2G16G 6
  23058993.564    -6085418.633 5  -4741852.19721
  21111731.610     2654339.283 6   2068309.52322
  19785771.876   -22151427.965 8 -17217699.76323
  23217081.267     1232379.050 5    925296.38621
  20820635.0954  -17920232.16647 -13795502.29862
 91  5 14 20 37 59.9970000  0  5G11G19G 2G16G 6
  23064145.595    -6058358.293 5  -4720766.24021
  21115523.0714    2674237.96046   2083814.95661
  19782308.251   -22169631.561 8 -17231884.36023
  23221011.8764    1253029.91545    941387.83661
  20814123.7204  -17954458.62847 -13822172.23862
 91  5 14 20 38 14.9960000  0  5G11G19G 2G16G 6
  23069312.5824   -6031184.23645  -4699591.66261
  21119317.7154    2694197.59246   2099367.88061
  19778858.816   -22187752.895 7 -17246004.85323
  23224957.3014    1273753.98545    957536.35261
  20807616.7854  -17988652.34047 -13848816.65762
 91  5 14 20 38 29.9960000  0  5G11G19G 2G16G 6
  23074508.1684   -6003898.96745  -4678330.43961
  21123129.4964    2714214.93446   2114965.76862
  19775425.723   -22205800.355 8 -17260067.78623
  23228910.941     1294547.814 5    973739.22021
  20801112.8794  -18022823.46547 -13875443.47662
 91  5 14 20 38 44.9960000  0  5G11G19G 2G16G 6
  23079720.0824   -5976502.04845  -4656982.20461
  21126945.3484    2734291.01146   2130609.42562
  19772006.254   -22223770.089 8 -17274070.15523
  23232883.629     1315412.378 5    989997.23821
  20794615.3484  -18056967.11147 -13902048.88362
 91  5 14 20 38 59.9960000  0  5G11G19G 2G16G 6
  23084955.660    -5948993.744 5  -4635547.18821
  21130783.7704    2754426.17946   2146299.12962
  19768601.270   -22241661.996 8 -17288011.87623
  23236865.106     1336347.433 5   1006310.17221
  20788124.3244  -18091083.11547 -13928632.75462
 91  5 14 20 39 14.9960000  0  4G11G19G 2G 6
  23090210.652    -5921374.572 5  -4614025.77821
  21134622.7384    2774620.30646   2162034.77662
  19765210.629   -22259476.380 8 -17301893.19123
  20781637.3874  -18125171.54247 -13955195.12962
 91  5 14 20 39 29.9960000  0  4G11G19G 2G 6
  23095489.0204   -5893642.79945  -4592416.61061
  21138479.9414    2794875.25446   2177817.81461
  19761835.363   -22277211.237 8 -17315712.53823
  20775157.3634  -18159230.28947 -13981734.38362
 91  5 14 20 39 44.9960000  0  4G11G19G 2G 6
  23100785.723    -5865800.392 5  -4570721.26021
  21142340.3874    2815189.43346   2193647.00562
  19758477.090   -22294868.336 8 -17329471.29223
  20768678.0824  -18193260.85947 -14008251.67762
 91  5 14 20 39 59.9960000  0  4G11G19G 2G 6
  23106108.5354   -5837848.79845  -4548940.80361
  21146220.9104    2835561.92046   2209521.63561
  19755131.020   -22312449.125 8 -17343170.58523
  20762208.9344  -18227264.38547 -14034747.89762
 91  5 14 20 40 14.9960000  0  4G11G19G 2G 6
  23111448.5124   -5809781.19345  -4527069.98061
  21150111.035     2855999.603 6   2225447.05621
  19751801.809   -22329946.444 8 -17356804.83723
  20755746.3874  -18261233.47947 -14061217.29262
 91  5 14 20 40 29.9960000  0  4G11G19G 2G 6
  23116808.1604   -5781605.91445  -4505115.23361
  21154012.0984    2876494.40846   2241416.99461
  19748486.426   -22347368.291 8 -17370380.28023
  20749285.7934  -18295176.19347 -14087666.12662
 91  5 14 20 40 44.9960000  0  4G11G19G 2G 6
  23122190.2314   -5753324.09845  -4483077.48061
  21157919.473     2897045.715 6   2257430.95622
  19745184.4414  -22364715.54048 -17383897.58863
  20742830.1214  -18329093.13447 -14114094.87462
 91  5 14 20 40 59.9960000  0  4G11G19G 2G 6
  23127591.145    -5724937.040 5  -4460957.72621
  21161842.684     2917652.524 6   2273488.16321
  19741897.9814  -22381989.25148 -17397357.59963
  20736382.2854  -18362985.24147 -14140504.28062
 91  5 14 20 41 14.9960000  0  4G11G19G 2G 6
  23133014.4734   -5696444.42645  -4438755.71061
  21165771.4344    2938315.26146   2289588.95761
  19738625.410   -22399188.840 8 -17410759.85023
  20729938.1684  -18396851.65847 -14166893.66063
 91  5 14 20 41 29.9960000  0  4G11G19G 2G 6
  23138457.1684   -5667843.56545  -4416469.35161
  21169715.3714    2959037.21546   2305735.90062
  19735367.223   -22416311.292 8 -17424101.99823
  20723500.5664  -18430689.32347 -14193260.63462
 91  5 14 20 41 44.9960000  0  4G11G19G 2G 6
  23143918.9104   -5639134.09545  -4394098.34961
  21173671.324     2979818.961 6   2321929.41521
  19732122.4814  -22433356.14448 -17437383.67463
  20717065.0904  -18464497.42147 -14219604.57563
 91  5 14 20 41 59.9960000  0  4G11G19G 2G 6
  23149403.1994   -5610320.04945  -4371645.85861
  21177639.6214    3000656.65446   2338166.54561
  19728893.551   -22450327.112 8 -17450607.78323
  20710635.9024  -18498279.51347 -14245928.24663
 91  5 14 20 42 14.9960000  0  4G11G19G 2G 6
  23154908.504    -5581396.895 5  -4349108.36221
  21181611.7234    3021555.17646   2354451.07461
  19725678.285   -22467219.445 8 -17463770.61623
  20704214.1914  -18532030.77847 -14272227.90063
 91  5 14 20 42 29.9960000  0  4G11G19G 2G 6
  23160433.5904   -5552368.30345  -4326488.69761
  21185604.981     3042511.192 6   2370780.38721
  19722478.379   -22484036.334 8 -17476874.65923
  20697794.5204  -18565754.29047 -14298505.92463
 91  5 14 20 42 44.9960000  0  4G11G19G 2G 6
  23165972.8874   -5523236.98845  -4303789.00161
  21189597.9574    3063522.47746   2387152.77861
  19719291.168   -22500780.315 8 -17489921.89623
  20691380.0204  -18599452.39547 -14324764.15163
 91  5 14 20 42 59.9960000  0  4G11G19G 2G 6
  23171538.613    -5494000.719 5  -4281007.51721
  21193608.0594    3084591.52446   2403570.17661
  19716120.465   -22517448.999 8 -17502910.45923
  20684977.0664  -18633122.31147 -14351000.41763
 91  5 14 20 43 14.9960000  0  4G11G19G 2G 6
  23177122.270    -5464659.573 5  -4258144.30221
  21197627.465     3105718.784 6   2420032.93021
  19712962.613   -22534042.253 8 -17515840.24523
  20678575.8874  -18666763.77347 -14377214.50863
 91  5 14 20 43 29.9960000  0  4G11G19G 2G 6
  23182721.3874   -5435215.24745  -4235200.69761
  21201661.4264    3126902.72746   2436539.85861
  19709817.934   -22550561.466 8 -17528712.34223
  20672177.7854  -18700377.94847 -14403407.33463
 91  5 14 20 43 44.9960000  0  4G11G19G 2G 6
  23188346.4184   -5405667.31745  -4212176.34861
  21205700.856     3148144.096 6   2453091.53521
  19706689.293   -22567006.012 8 -17541526.24623
  20665789.1604  -18733964.06347 -14429578.30263
 91  5 14 20 43 59.9960000  0  4G11G19G 2G 6
  23193991.137    -5376011.723 5  -4189068.11121
  21209760.7464    3169447.32446   2469691.41561
  19703574.715   -22583371.426 8 -17554278.49823
  20659400.3954  -18767517.53947 -14455723.83563
 91  5 14 20 44 14.9960000  0  4G11G19G 2G 6
  23199655.9884   -5346251.31245  -4165878.20461
  21213820.551     3190809.775 6   2486337.43821
  19700476.902   -22599660.450 8 -17566971.22523
  20653023.1214  -18801040.80647 -14481845.83363
 91  5 14 20 44 29.9960000  0  4G11G19G 2G 6
  23205338.8714   -5316385.35645  -4142606.03461
  21217898.590     3212232.663 6   2503030.55421
  19697390.395   -22615871.994 8 -17579603.57523
  20646648.8094  -18834532.71547 -14507943.39363
 91  5 14 20 44 44.9960000  0  4G11G19G 2G 6
  23211037.1374   -5286418.87345  -4119255.55061
  21221985.160     3233711.167 6   2519767.00921
  19694319.559   -22632010.871 8 -17592179.30823
  20640282.2774  -18867997.79847 -14534020.04963
 91  5 14 20 44 59.9960000  0  4G11G19G 2G 6
  23216761.5594   -5256348.83445  -4095824.35761
  21226086.027     3255248.737 6   2536549.49021
  19691263.668   -22648073.770 8 -17604695.83123
  20633919.6294  -18901432.54247 -14560073.06863
 91  5 14 20 45 14.9960000  0  4G11G19G 2G 6
  23222503.1214   -5226179.08945  -4072315.48861
  21230192.059     3276841.772 6   2553375.18521
  19688221.246   -22664064.210 8 -17617155.89423
  20627560.5204  -18934840.42447 -14586105.15363
 91  5 14 20 45 29.9960000  0  4G11G19G 2G 6
  23228264.090    -5195899.874 5  -4048721.32421
  21234316.0044    3298500.54246   2570252.11361
  19685194.098   -22679972.021 8 -17629551.57823
  20621212.895   -18968211.067 7 -14612108.22723
 91  5 14 20 45 44.9960000  0  4G11G19G 2G 6
  23234047.715    -5165514.314 5  -4025044.27021
  21238447.668     3320222.180 6   2587178.01721
  19682179.379   -22695800.303 8 -17641885.28423
  20614865.6454  -19001547.25847 -14638084.44863
 91  5 14 20 45 59.9960000  0  4G11G19G 2G 6
  23239846.3874   -5135025.29345  -4001286.62961
  21242593.066     3342004.036 6   2604150.84721
  19679183.410   -22711551.734 8 -17654159.10823
  20608528.6844  -19034851.55247 -14664035.81763
 91  5 14 20 46 14.9960000  0  4G11G19G 2G 6
  23245672.301    -5104434.656 5  -3977449.78921
  21246750.777     3363844.669 6   2621169.47621
  19676198.895   -22727228.055 8 -17666374.40423
  20602197.5354  -19068125.28147 -14689963.36363
 91  5 14 20 46 29.9960000  0  4G11G19G 2G 6
  23251511.8714   -5073738.40945  -3953530.64761
  21250922.129     3385748.353 6   2638237.22921
  19673232.762   -22742824.956 8 -17678527.81623
  20595871.770   -19101364.047 7 -14715863.67523
 91  5 14 20 46 44.9960000  0  4G11G19G 2G 6
  23257370.426    -5042950.451 5  -3929540.05921
  21255094.098     3407701.694 6   2655343.68521
  19670277.059   -22758355.727 8 -17690629.69723
  20589551.1214  -19134581.26747 -14741747.18663
 91  5 14 20 46 59.9960000  0  4G11G19G 2G 6
  23263246.1374   -5012050.13045  -3905461.88661
  21259285.731     3429725.436 6   2672504.99921
  19667339.559   -22773799.762 8 -17702663.99223
  20583238.348   -19167755.774 7 -14767597.42823
 91  5 14 20 47 14.9960000  0  4G11G19G 2G 6
  23269149.152    -4981049.978 5  -3881305.94921
  21263488.449     3451807.466 6   2689711.72521
  19664413.770   -22789169.238 8 -17714640.18323
  20576933.1064  -19200899.77747 -14793423.88963
 91  5 14 20 47 29.9960000  0  4G11G19G 2G 6
  23275067.738    -4949953.522 5  -3857074.96521
  21267700.9264    3473944.56246   2706961.36661
  19661500.777   -22804467.476 8 -17726560.87023
  20570631.613   -19234016.124 7 -14819228.81323
 91  5 14 20 47 44.9960000  0  4G11G19G 2G 6
  23281003.168    -4918753.995 5  -3832763.65221
  21271924.254     3496143.823 6   2724259.44121
  19658604.137   -22819687.247 8 -17738420.41623
  20564335.0984  -19267097.65747 -14845006.60163
 91  5 14 20 47 59.9960000  0  4G11G19G 2G 6
  23286960.973    -4887451.716 5  -3808372.26621
  21276163.0274    3518405.31145   2741605.99761
  19655724.785   -22834828.685 8 -17750218.91923
  20558046.3634  -19300144.17147 -14870757.10463
 91  5 14 20 48 14.9960000  0  4G11G19G 2G 6
  23292936.8164   -4856049.86445  -3783903.33661
  21280407.481     3540726.258 6   2758998.90421
  19652856.465   -22849894.605 8 -17761958.57823
  20551764.8714  -19333158.45347 -14896482.48863
 91  5 14 20 48 29.9960000  0  4G11G19G 2G 6
  23298928.418    -4824551.525 5  -3759359.17321
  21284667.9184    3563103.78846   2776435.87861
  19650003.926   -22864887.988 8 -17773641.71623
  20545486.559   -19366143.273 7 -14922184.92223
 91  5 14 20 48 44.9960000  0  4G11G19G 2G 6
  23304944.410    -4792956.346 5  -3734739.55321
  21288937.9964    3585538.68646   2793917.56361
  19647165.652   -22879808.124 8
  20539215.5664  -19399097.63647 -14947863.61863
 91  5 14 20 48 59.9960000  0  3G11G19G 6
  23310973.309    -4761262.237 5  -3710042.87921
  21293217.176     3608033.297 6   2811445.78421
  20532950.606   -19432018.882 7 -14973516.50723
 91  5 14 20 49 14.9960000  0  4G11G19G 2G 6
  23317022.738    -4729473.770 5  -3685272.65721
  21297508.293     3630583.184 6   2829017.07821
  19641528.6134     -14774.22748
  20526693.0744  -19464911.32047 -14999146.95263
 91  5 14 20 49 29.9960000  0  4G11G19G 2G 6
  23323087.918    -4697586.968 5  -3660425.81721
  21301811.277     3653192.907 6   2846634.98121
  19638732.418      -29472.276 8
  20520442.2314  -19497770.38347 -15024751.38763
 91  5 14 20 49 44.9960000  0  4G11G19G 2G 6
  23329178.4104   -4665599.66745  -3635500.68061
  21306125.270     3675865.129 6   2864301.59921
  19635950.363      -44092.340 8        -0.01633
  20514194.309   -19530593.404 7 -15050327.74223
 91  5 14 20 49 59.9960000  0  4G11G19G 2G 6
  23335278.145    -4633514.906 5  -3610499.58521
  21310454.309     3698597.059 6   2882014.74821
  19633182.223      -58637.394 8    -11333.80223
  20507951.754   -19563383.054 7 -15075878.09023
 91  5 14 20 50 14.9960000  0  4G11G19G 2G 6
  23341407.5204   -4601332.10945  -3585422.10161
  21314788.856     3721389.347 6   2899774.91921
  19630429.848      -73106.564 7    -22608.46023
  20501721.6454  -19596138.33547 -15101401.66063
 91  5 14 20 50 29.9960000  0  4G11G19G 2G 6
  23347550.4574   -4569050.73945  -3560267.79461
  21319139.731     3744242.940 5   2917582.86821
  19627690.684      -87498.938 8    -33823.27523
  20495492.746   -19628858.183 7 -15126897.62223
 91  5 14 20 50 44.9960000  0  4G11G19G 2G 6
  23353712.1214   -4536676.46445  -3535041.12361
  21323496.707     3767152.491 6   2935434.40621
  19624965.668     -101819.969 7    -44982.49823
  20489274.2464  -19661547.80547 -15152370.02663
 91  5 14 20 50 59.9960000  0  4G11G19G 2G 6
  23359890.231    -4504210.694 5  -3509743.12721
  21327865.676     3790116.894 6   2953328.71121
  19622253.723     -116070.774 7    -56086.99923
  20483057.379   -19694208.064 7 -15177819.55423
 91  5 14 20 51 14.9960000  0  4G11G19G 2G 6
  23366084.668    -4471651.535 5  -3484372.36821
  21332248.0044    3813138.49246   2971267.55961
  19619556.012     -130249.192 8    -67135.09423
  20476848.8094  -19726836.63147 -15203244.38063
 91  5 14 20 51 29.9960000  0  4G11G19G 2G 6
  23372295.793    -4438999.814 5  -3458929.50521
  21336644.066     3836216.956 6   2989250.72821
  19616870.285     -144355.645 8    -78127.11523
  20470645.520   -19759433.802 7 -15228644.75223
 91  5 14 20 51 44.9960000  0  3G11G19G 6
  23378526.5744   -4406252.92645  -3433412.48761
  21341043.6684    3859355.16946   3007280.44961
  20464449.3484  -19791996.49147 -15254018.24463
 91  5 14 20 51 59.9960000  0  4G11G19G 2G 6
  23384777.231    -4373411.568 5  -3407821.82521
  21345459.973     3882552.647 6   3025356.35521
  19611545.0744         -0.12758
  20458258.270   -19824524.954 7 -15279365.07623
 91  5 14 20 52 14.9960000  0  4G11G19G 2G 6
  23391044.473    -4340476.155 5  -3382157.87721
  21349880.496     3905809.170 6   3043478.26621
  19608902.645      -13883.671 8
  20452075.5824  -19857019.17247 -15304685.22063
 91  5 14 20 52 29.9960000  0  4G11G19G 2G 6
  23397328.9414   -4307446.81545  -3356420.76361
  21354319.543     3929125.124 6   3061646.49921
  19606274.457      -27693.108 8        -0.46433
  20445899.8794  -19889478.75047 -15329978.36863
 91  5 14 20 52 44.9960000  0  4G11G19G 2G 6
  23403635.5594   -4274324.25245  -3330610.99961
  21358767.277     3952500.194 6   3079860.79321
  19603660.863      -41428.706 8    -10703.51123
  20439730.1294  -19921903.89747 -15355244.69163
 91  5 14 20 52 59.9960000  0  4G11G19G 2G 6
  23409953.8014   -4241112.34145  -3304731.63461
  21363228.4104    3975930.73746   3098118.29861
  19601060.566      -55094.276 8    -21351.98923
  20433565.426   -19954298.027 7 -15380486.84123
 91  5 14 20 53 14.9960000  0  4G11G19G 2G 6
  23416296.309    -4207804.561 5  -3278777.52221
  21367697.0664    3999423.72846   3116424.48161
  19598473.832      -68682.819 8    -31940.44723
  20427405.6604  -19986654.10147 -15405699.34063
 91  5 14 20 53 29.9960000  0  4G11G19G 2G 6
  23422648.1134   -4174403.07645  -3252750.41661
  21372180.918     4022977.200 6   3134777.78621
  19595903.801      -82196.258 8    -42470.38223
  20421256.473   -20018973.858 7 -15430883.53923
 91  5 14 20 53 44.9960000  0  4G11G19G 2G 6
  23429021.7234   -4140917.28745  -3226657.62761
  21376671.5984    4046582.21646   3153171.25361
  19593343.145      -95643.649 8    -52948.85023
  20415109.934   -20051266.127 7 -15456046.32222
 91  5 14 20 53 59.9960000  0  4G11G19G 2G 6
  23435411.9344   -4107336.21145  -3200490.56161
  21381176.113     4070250.033 6   3171613.65621
  19590800.543     -109013.821 8    -63367.14823
  20408974.3484  -20083519.59847 -15481178.87163
 91  5 14 20 54 14.9960000  0  4G11G19G 2G 6
  23441819.395    -4073666.717 5  -3174254.59021
  21385688.0744    4093974.18746   3190099.95661
  19588267.863     -122313.257 8    -73730.32423
  20402843.098   -20115740.345 7 -15506285.92823
 91  5 14 20 54 29.9960000  0  3G19G 2G 6
  21390218.910     4117758.776 5   3208633.35121
  19585753.106     -135537.903 8    -84035.22723
  20396717.809   -20147924.262 7 -15531364.27622
 91  5 14 20 54 44.9960000  0  3G19G 2G 6
  21394751.715     4141601.951 6   3227212.39721
  19583249.574     -148689.745 8    -94283.40123
  20390601.8404  -20180073.12047 -15556415.31263
 91  5 14 20 54 59.9960000  0  3G19G 2G 6
  21399305.2774    4165503.12645   3245836.62761
  19580760.082     -161769.443 8   -104475.35323
  20384490.5664  -20212187.24047 -15581439.27363
 91  5 14 20 55 14.9960000  0  3G19G 2G 6
  21403859.035     4189461.120 6   3264505.14921
  19578286.457     -174778.258 8   -114612.07823
  20378384.590   -20244267.694 7 -15606437.01023
 91  5 14 20 55 29.9960000  0  3G19G 2G 6
  21408429.629     4213477.277 6   3283218.99621
  19575822.910     -187714.958 8   -124692.60723
  20372288.3164  -20276312.93247 -15631407.29462
 91  5 14 20 55 44.9960000  0  3G19G 2G 6
  21413009.8244    4237550.53746   3301977.32061
  19573375.793     -200580.697 8   -134717.83823
  20366195.1294  -20308323.90547 -15656350.88263
 91  5 14 20 55 59.9960000  0  3G19G 2G 6
  21417605.832     4261681.083 6   3320780.29021
  19570940.137     -213375.312 8   -144687.65423
  20360112.035   -20340300.116 7 -15681267.38523
 91  5 14 20 56 14.9960000  0  3G19G 2G 6
  21422205.098     4285870.482 6   3339629.11721
  19568520.340     -226097.119 8   -154600.73623
  20354030.738   -20372239.783 7 -15706155.41923
 91  5 14 20 56 29.9960000  0  3G19G 2G 6
  21426822.637     4310118.167 5   3358523.36921
  19566111.402     -238747.005 8   -164457.77323
  20347960.418   -20404143.676 7 -15731015.57123
 91  5 14 20 56 44.9960000  0  3G19G 2G 6
  21431442.871     4334423.340 6   3377462.41021
  19563718.9734    -251325.54448   -174259.21963
  20341897.035   -20436012.166 7 -15755848.13723
 91  5 14 20 56 59.9960000  0  3G19G 2G 6
  21436082.512     4358786.304 6   3396446.48121
  19561338.676     -263832.500 8   -184004.88823
  20335839.973   -20467844.708 7 -15780652.69123
 91  5 14 20 57 14.9960000  0  3G19G 2G 6
  21440729.363     4383208.433 6   3415476.66821
  19558971.566     -276266.633 7   -193693.80923
  20329787.754   -20499639.967 7 -15805428.19023
 91  5 14 20 57 29.9960000  0  3G19G 2G 6
  21445392.4104    4407688.80045   3434552.22561
  19556620.551     -288629.100 8   -203326.88423
  20323746.973   -20531398.693 7 -15830175.22723
 91  5 14 20 57 44.9960000  0  3G19G 2G 6
  21450059.5124    4432228.76146   3453674.21261
  19554281.0904    -300918.54147   -212903.06263
  20317708.973   -20563119.247 7 -15854892.51423
 91  5 14 20 57 59.9960000  0  3G19G 2G 6
  21454740.629     4456821.169 6   3472837.08221
  19551955.215     -313142.199 8   -222427.97323
  20311676.988   -20594808.720 7 -15879585.58823
 91  5 14 20 58 14.9960000  0  3G19G 2G 6
  21459431.0124    4481474.93446   3492047.76261
  19549643.113     -325291.224 8   -231894.73423
  20305657.207   -20626458.045 7 -15904247.37323
 91  5 14 20 58 29.9960000  0  3G19G 2G 6
  21464132.7774    4506189.48746   3511305.79361
  19547345.449     -337366.273 8   -241303.84723
  20299640.293   -20658067.525 7 -15928878.11123
 91  5 14 20 58 44.9960000  0  3G19G 2G 6
  21468846.410     4530958.074 6   3530605.93421
  19545060.465     -349374.165 7   -250660.63323
  20293630.9884  -20689643.82347 -15953482.99463
 91  5 14 20 58 59.9960000  0  3G19G 2G 6
  21473574.2624    4555782.33945   3549949.46261
  19542788.645     -361313.270 8   -259963.81923
  20287631.418   -20721185.185 7 -15978060.65023
 91  5 14 20 59 14.9960000  0  3G19G 2G 6
  21478303.1844    4580662.35946   3569336.44061
  19540529.5044    -373183.48948   -269213.33163
  20281635.879   -20752691.270 7 -16002610.82323
 91  5 14 20 59 29.9960000  0  3G19G 2G 6
  21483051.441     4605598.823 6   3588767.39921
  19538284.449     -384984.131 8   -278408.62123
  20275646.2544  -20784161.30247 -16027132.89463
 91  5 14 20 59 44.9960000  0  3G19G 2G 6
  21487808.168     4630596.711 6   3608246.23021
  19536053.418     -396710.296 7   -287545.87823
  20269664.0514  -20815589.84347 -16051622.64163
 91  5 14 20 59 59.9960000  0  3G19G 2G 6
  21492573.066     4655652.372 6   3627770.07121
  19533833.832     -408365.992 8   -296628.22623
  20263692.4024  -20846980.64247 -16076082.97263
 91  5 14 21  0 14.9960000  0  3G19G 2G 6
  21497351.9104    4680763.46246   3647337.10061
  19531629.316     -419953.401 8   -305657.36323
  20257726.0514  -20878335.84647 -16100515.57163
 91  5 14 21  0 29.9960000  0  3G19G 2G 6
  21502146.691     4705936.880 6   3666952.69521
  19529437.707     -431465.680 8   -314627.95623
  20251769.066   -20909648.346 7 -16124914.89623
 91  5 14 21  0 44.9960000  0  3G19G 2G 6
  21506946.910     4731167.759 6   3686613.07621
  19527261.2934    -442907.99948   -323544.03963
  20245816.4264  -20940922.96447 -16149284.70063
 91  5 14 21  0 59.9960000  0  3G19G 2G 6
  21511760.106     4756455.925 6   3706318.09121
  19525097.934     -454280.488 8   -332405.70523
  20239870.801   -20972159.627 7 -16173624.93323
 91  5 14 21  1 14.9960000  0  3G19G 2G 6
  21516578.504     4781795.669 6   3726063.28921
  19522945.332     -465588.769 8   -341217.33723
  20233933.7544  -21003363.85947 -16197939.88463
 91  5 14 21  1 29.9960000  0  3G19G 2G 6
  21521414.9964    4807193.24046   3745853.56161
  19520807.723     -476826.484 8   -349973.98623
  20228001.7384  -21034528.95747 -16222224.35063
 91  5 14 21  1 44.9960000  0  3G19G 2G 6
  21526255.3484    4832649.23046   3765689.33361
  19518682.434     -487993.295 8   -358675.38123
  20222078.6214  -21065654.47447 -16246477.96963
 91  5 14 21  1 59.9960000  0  3G19G 2G 6
  21531113.106     4858163.447 6   3785570.48221
  19516571.324     -499089.490 8   -367321.75123
  20216162.6684  -21096740.44047 -16270700.77163
 91  5 14 21  2 14.9960000  0  3G19G 2G 6
  21535977.7154    4883738.17846   3805498.79161
  19514472.410     -510112.762 8   -375911.29923
  20210255.8094  -21127784.23447 -16294890.71063
 91  5 14 21  2 29.9960000  0  3G19G 2G 6
  21540855.4884    4909370.58545   3825472.03361
  19512389.340     -521066.200 8   -384446.43323
  20204356.3484  -21158788.59347 -16319049.92363
 91  5 14 21  2 44.9960000  0  3G19G 2G 6
  21545744.4964    4935060.16346   3845489.82761
  19510316.629     -531950.208 8   -392927.46423
  20198462.0514  -21189753.67947 -16343178.53663
 91  5 14 21  2 59.9960000  0  3G19G 2G 6
  21550645.879     4960804.427 5   3865550.24421
  19508260.840     -542767.159 8   -401356.24323
  20192578.184   -21220681.801 7 -16367278.34323
 91  5 14 21  3 14.9960000  0  3G19G 2G 6
  21555553.121     4986612.104 6   3885660.06921
  19506215.246     -553508.447 8   -409726.06923
  20186701.2774  -21251564.06347 -16391342.41163
 91  5 14 21  3 29.9960000  0  3G19G 2G 6
  21560473.410     5012480.319 5   3905817.05121
  19504184.637     -564177.347 8   -418039.48423
  20180835.2384  -21282403.34547 -16415372.99563
 91  5 14 21  3 44.9960000  0  3G19G 2G 6
  21565410.231     5038406.726 6   3926019.39921
  19502167.5664    -574775.90948   -426298.09563
  20174972.707   -21313201.629 7 -16439371.62923
 91  5 14 21  3 59.9960000  0  3G19G 2G 6
  21570358.965     5064385.540 5   3946262.57121
  19500162.723     -585310.039 8   -434506.49323
  20169120.020   -21343964.533 7 -16463342.69723
 91  5 14 21  4 14.9960000  0  3G19G 2G 6
  21575307.1764    5090421.27445   3966550.10161
  19498170.637     -595775.418 8   -442661.31923
  20163271.9264  -21374687.30447 -16487282.49363
 91  5 14 21  4 29.9960000  0  3G19G 2G 6
  21580278.652     5116516.487 5   3986883.97021
  19496194.941     -606169.599 8   -450760.67223
  20157432.262   -21405367.371 7 -16511189.01223
 91  5 14 21  4 44.9960000  0  3G19G 2G 6
  21585252.1684    5142668.73845   4007262.28561
  19494229.254     -616495.065 8   -458806.47623
  20151602.770   -21436006.870 7 -16535063.92423
 91  5 14 21  4 59.9960000  0  3G19G 2G 6
  21590242.5204    5168879.14946   4027685.91861
  19492277.082     -626750.448 8   -466797.67123
  20145781.223   -21466604.540 7 -16558906.24223
 91  5 14 21  5 14.9960000  0  3G19G 2G 6
  21595237.8484    5195149.14345   4048155.98561
  19490338.996     -636934.541 8   -474733.31323
  20139967.191   -21497158.717 7 -16582714.66623
 91  5 14 21  5 29.9960000  0  3G19G 2G 6
  21600249.949     5221479.016 5   4068672.70121
  19488413.465     -647047.064 8   -482613.18723
  20134160.465   -21527668.979 7 -16606488.87623
 91  5 14 21  5 44.9960000  0  3G19G 2G 6
  21605270.2074    5247865.98045   4089233.90961
  19486503.152     -657090.732 8   -490439.41223
  20128362.668   -21558137.674 7 -16630230.69123
 91  5 14 21  5 59.9960000  0  3G19G 2G 6
  21610303.801     5274308.391 5   4109838.32721
  19484605.707     -667067.534 8   -498213.52823
  20122572.012   -21588566.648 7 -16653941.55623
 91  5 14 21  6 14.9960000  0  3G19G 2G 6
  21615347.590     5300809.583 5   4130488.53021
  19482719.527     -676974.257 8   -505933.04323
  20116791.324   -21618952.237 7 -16677618.62123
 91  5 14 21  6 29.9960000  0  3G19G 2G 6
  21620401.5204    5327375.47345   4151189.16461
  19480850.137     -686804.925 8   -513593.28923
  20111017.160   -21649288.194 7 -16701257.00123
 91  5 14 21  6 44.9960000  0  3G19G 2G 6
  21625465.2544    5353996.08145   4171932.42661
  19478991.4734    -696569.63648   -521202.14963
  20105251.981   -21679584.302 7 -16724864.33823
 91  5 14 21  6 59.9960000  0  3G19G 2G 6
  21630547.7464    5380673.44345   4192719.91761
  19477143.598     -706266.035 8   -528757.76923
  20099495.551   -21709838.275 7 -16748438.84623
 91  5 14 21  7 14.9960000  0  3G19G 2G 6
  21635628.996     5407403.939 5   4213548.80521
  19475314.418     -715897.795 8   -536263.02523
  20093744.176   -21740053.680 7 -16771983.29623
 91  5 14 21  7 29.9960000  0  3G19G 2G 6
  21640727.895     5434188.242 5   4234419.62521
  19473491.934     -725464.474 8   -543717.56823
  20088002.816   -21770229.544 7 -16795496.94323
 91  5 14 21  7 44.9960000  0  3G19G 2G 6
  21645834.9574    5461032.36245   4255337.04861
  19471685.4734    -734960.22848   -551116.84563
  20082269.402   -21800359.760 7 -16818975.01723
 91  5 14 21  7 59.9960000  0  3G19G 2G 6
  21650953.145     5487930.946 5   4276296.92221
  19469891.426     -744390.492 8   -558465.09023
  20076542.863   -21830449.475 7 -16842421.53223
 91  5 14 21  8 14.9960000  0  3G19G 2G 6
  21656079.2314    5514883.60945   4297298.91561
  19468107.988     -753755.541 8   -565762.51923
  20070826.481   -21860498.822 7 -16865836.59323
 91  5 14 21  8 29.9960000  0  3G19G 2G 6
  21661220.8404    5541889.63845   4318342.50861
  19466339.441     -763056.189 8   -573009.76423
  20065115.754   -21890508.378 7 -16889220.64523
 91  5 14 21  8 44.9960000  0  3G19G 2G 6
  21666371.496     5568952.143 5   4339430.11321
  19464581.090     -772289.515 8   -580204.55023
  20059412.582   -21920474.683 7 -16912570.99723
 91  5 14 21  8 59.9960000  0  3G19G 2G 6
  21671534.1684    5596076.74445   4360566.08161
  19462838.691     -781449.852 8   -587342.46023
  20053716.152   -21950391.999 7 -16935883.17323
 91  5 14 21  9 14.9960000  0  3G19G 2G 6
  21676706.145     5623257.322 5   4381745.69421
  19461107.723     -790543.362 8   -594428.29923
  20048034.660   -21980266.232 7 -16959161.77723
 91  5 14 21  9 29.9960000  0  3G19G 2G 6
  21681889.6524    5650492.02545   4402967.47361
  19459390.473     -799571.803 8   -601463.43223
  20042356.981   -22010098.967 7 -16982408.04723
 91  5 14 21  9 44.9960000  0  3G19G 2G 6
  21687082.387     5677790.339 5   4424238.80621
  19457686.2934    -808525.94548   -608440.67763
  20036689.895   -22039880.620 7 -17005614.51223
 91  5 14 21  9 59.9960000  0  3G19G 2G 6
  21692288.559     5705145.199 5   4445554.21421
  19455994.637     -817412.801 8   -615365.48423
  20031030.816   -22069618.051 7 -17028786.51423
 91  5 14 21 10 14.9960000  0  3G19G 2G 6
  21697503.1604    5732551.91145   4466910.02861
  19454316.316     -826237.183 8   -622241.61223
  20025378.582   -22099315.737 7 -17051927.54723
 91  5 14 21 10 29.9960000  0  3G19G 2G 6
  21702730.457     5760011.566 5   4488307.08821
  19452647.9884    -834998.02547   -629068.22863
  20019736.277   -22128972.376 7 -17075036.60123
 91  5 14 21 10 44.9960000  0  3G19G 2G 6
  21707963.2934    5787527.63545   4509748.11861
  19450994.738     -843691.782 8   -635842.57523
  20014101.395   -22158584.193 7 -17098110.72023
 91  5 14 21 10 59.9960000  0  4G13G19G 2G 6
  22889079.1844         -0.85353
  21713212.8484    5815104.40545   4531236.43561
  19449353.832     -852314.484 8   -642561.54623
  20008476.465   -22188146.767 7 -17121146.47223
 91  5 14 21 11 14.9960000  0  4G13G19G 2G 6
  22875855.7934     -69467.45043
  21718471.7854    5842739.05745   4552769.86161
  19447724.621     -860868.814 8   -649227.24523
  20002859.191   -22217662.647 7 -17144145.84523
 91  5 14 21 11 29.9960000  0  4G13G19G 2G 6
  22862642.0984    -138917.22543
  21723743.2774    5870424.72645   4574343.03461
  19446108.621     -869361.597 8   -655844.98323
  19997250.418   -22247138.646 7 -17167114.13423
 91  5 14 21 11 44.9960000  0  4G13G19G 2G 6
  22849430.8714    -208342.09043
  21729020.9574    5898169.05745   4595961.93161
  19444506.684     -877785.300 8   -662408.89323
  19991649.465   -22276566.725 7 -17190045.08923
 91  5 14 21 11 59.9960000  0  4G13G19G 2G 6
  22836231.2464    -277744.61344
  21734310.2704    5925968.94745   4617624.11361
  19442916.543     -886143.030 8   -668921.39623
  19986058.613   -22305949.759 7 -17212940.94423
 91  5 14 21 12 14.9960000  0  4G13G19G 2G 6
  22823024.9964    -347120.92643
  21739608.426     5953827.933 5   4639332.32921
  19441338.473     -894431.518 8   -675379.94223
  19980479.051   -22335284.115 7 -17235798.87023
 91  5 14 21 12 29.9960000  0  4G13G19G 2G 6
  22809825.5514    -416477.59643
  21744926.074     5981738.712 5   4661080.90321
  19439772.691     -902657.867 8   -681790.07123
  19974902.207   -22364576.695 7 -17258624.24023
 91  5 14 21 12 44.9960000  0  4G13G19G 2G 6
  22796634.7774    -485806.90643
  21750247.762     6009708.980 5   4682875.84221
  19438221.199     -910814.578 8   -688145.93523
  19969337.074   -22393819.822 7 -17281411.07023
 91  5 14 21 12 59.9960000  0  4G13G19G 2G 6
  22783446.1844    -555110.43844
  21755581.6914    6037736.63645   4704715.49261
  19436682.551     -918903.793 8   -694449.20823
  19963782.090   -22423015.196 7 -17304160.69523
 91  5 14 21 13 14.9960000  0  4G13G19G 2G 6
  22770260.566     -624392.260 4
  21760922.754     6065817.114 5   4726596.32321
  19435154.3634    -926929.97348   -700703.36263
  19958234.723   -22452167.181 7 -17326876.50823
 91  5 14 21 13 29.9960000  0  4G13G19G 2G 6
  22757081.621     -693649.807 3        -0.37031
  21766276.754     6093952.554 5   4748519.96721
  19433639.848     -934891.013 8   -706906.75223
  19952695.707   -22481273.438 7 -17349556.68823
 91  5 14 21 13 44.9960000  0  4G13G19G 2G 6
  22743905.777     -762884.381 3    -53949.13921
  21771637.2314    6122141.08645   4770484.96961
  19432137.270     -942788.951 8   -713060.97723
  19947168.4264  -22510335.58447 -17372202.49363
 91  5 14 21 13 59.9960000  0  4G13G19G 2G 6
  22730739.012     -832094.588 3   -107878.90921
  21777017.832     6150383.782 5   4792492.19121
  19430644.0044    -950622.82848   -719165.28463
  19941641.715   -22539352.409 7 -17394812.98023
 91  5 14 21 14 14.9960000  0  4G13G19G 2G 6
  22717575.1454    -901273.60044   -161784.35961
  21782402.6604    6178687.11045   4814546.64961
  19429168.324     -958386.113 8   -725214.58723
  19936131.371   -22568317.341 7 -17417383.03723
 91  5 14 21 14 29.9960000  0  4G13G19G 2G 6
  22704414.2154    -970426.62143   -215669.63061
  21787798.715     6207045.214 5   4836643.78921
  19427704.7774    -966084.54348   -731213.35663
  19930628.738   -22597235.779 7 -17439916.86023
 91  5 14 21 14 44.9960000  0  4G13G19G 2G 6
  22691262.7074   -1039549.20143   -269531.18461
  21793203.629     6235462.029 5   4858786.67921
  19426251.527     -973714.215 8   -737158.54123
  19925134.316   -22626103.468 7 -17462411.14123
 91  5 14 21 14 59.9960000  0  4G13G19G 2G 6
  22678111.707    -1108647.990 3   -323374.17621
  21798624.207     6263930.660 5   4880969.96421
  19424813.0434    -981282.09748   -743055.58663
  19919651.301   -22654927.216 7 -17484871.18623
 91  5 14 21 15 14.9960000  0  4G13G19G 2G 6
  22664966.074    -1177715.781 3   -377192.96921
  21804048.5514    6292457.86345   4903198.89061
  19423384.434     -988781.627 8   -748899.36423
  19914175.793   -22683700.085 7 -17507291.57423
 91  5 14 21 15 29.9960000  0  4G13G19G 2G 6
  22651828.715    -1246751.454 3   -430986.82521
  21809492.7774    6321044.30845   4925473.94061
  19421969.5434    -996212.05048   -754689.29563
  19908709.582   -22712421.100 7 -17529671.56223
 91  5 14 21 15 44.9960000  0  4G13G19G 2G 6
  22638697.9814   -1315762.16144   -484761.19561
  21814940.4104    6349682.57845   4947789.38161
  19420568.0044   -1003580.98748   -760431.31663
  19903251.387   -22741097.594 7 -17552016.86723
 91  5 14 21 15 59.9960000  0  4G13G19G 2G 6
  22625571.1214   -1384741.63943   -538511.23261
  21820398.965     6378378.412 5   4970149.68721
  19419179.4414   -1010882.66148   -766120.92263
  19897803.707   -22769723.415 7 -17574322.67723
 91  5 14 21 16 14.9960000  0  4G13G19G 2G 6
  22612448.8324   -1453691.57643   -592238.23161
  21825870.2704    6407129.63545   4992553.16461
  19417800.4414   -1018119.32248   -771759.86963
  19892366.902   -22798300.510 7 -17596590.51923
 91  5 14 21 16 29.9960000  0  4G13G19G 2G 6
  22599329.106    -1522612.321 3   -645942.47921
  21831358.4734    6435935.35445   5014999.11661
  19416436.2774   -1025291.83648   -777348.83163
  19886937.887   -22826829.673 7 -17618821.01723
 91  5 14 21 16 44.9960000  0  4G13G19G 2G 6
  22586225.301    -1591507.231 3   -699626.59721
  21836845.285     6464791.708 5   5037484.50821
  19415082.473    -1032404.063 8   -782890.81523
  19881518.051   -22855314.336 7 -17641016.83523
 91  5 14 21 16 59.9960000  0  4G13G19G 2G 6
  22573118.5744   -1660367.39743   -753283.66361
  21842351.254     6493707.148 5   5060015.91721
  19413743.4264   -1039447.65848   -788379.32663
  19876108.434   -22883745.860 7 -17663171.24623
 91  5 14 21 17 14.9960000  0  4G13G19G 2G 6
  22560021.262    -1729192.206 3   -806913.13621
  21847861.598     6522682.192 5   5082593.78921
  19412415.3954   -1046422.15648   -793813.99163
  19870708.543   -22912123.576 7 -17685283.73723
 91  5 14 21 17 29.9960000  0  4G13G19G 2G 6
  22546936.449    -1797990.622 4   -860522.05121
  21853389.465     6551707.207 5   5105210.61421
  19411100.2934   -1053337.23148   -799202.35163
  19865314.0044  -22940456.95747 -17707361.66663
 91  5 14 21 17 44.9960000  0  4G13G19G 2G 6
  22533843.8714   -1866762.25344   -914110.15461
  21858919.074     6580782.410 5   5127866.54121
  19409795.8014   -1060192.68048   -804544.25163
  19859930.887   -22968745.599 7 -17729404.74423
 91  5 14 21 17 59.9960000  0  4G13G19G 2G 6
  22520763.9734   -1935500.20744   -967671.99061
  21864461.4024    6609913.88945   5150566.31061
  19408503.4024   -1066982.22748   -809834.79863
  19854556.965   -22996982.816 7 -17751407.75024
 91  5 14 21 18 14.9960000  0  4G13G19G 2G 6
  22507691.074    -2004205.705 4  -1021208.54221
  21870012.731     6639100.324 5   5173308.90121
  19407223.7934   -1073707.40448   -815075.19363
  19849194.535   -23025169.957 7 -17773371.73424
 91  5 14 21 18 29.9960000  0  4G13G19G 2G 6
  22494622.457    -2072874.670 4  -1074716.65021
  21875582.051     6668345.161 5   5196096.99221
  19405955.5594   -1080364.80248   -820262.76663
  19843841.902   -23053303.332 7 -17795293.82723
 91  5 14 21 18 44.9960000  0  4G13G19G 2G 6
  22481558.293    -2141509.504 4  -1128198.12021
  21881155.8094    6697645.54745   5218928.37261
  19404703.3874   -1086957.30648   -825399.77563
  19838497.598   -23081385.414 7 -17817175.95124
 91  5 14 21 18 59.9960000  0  4G13G19G 2G 6
  22468504.9414   -2210111.87044  -1181654.34161
  21886743.316     6726999.263 5   5241801.32621
  19403458.2854   -1093487.19848   -830487.99363
  19833163.512   -23109418.363 7 -17839019.79124
 91  5 14 21 19 14.9960000  0  4G13G19G 2G 6
  22455457.9494   -2278679.21244  -1235083.26861
  21892338.387     6756408.629 5   5264717.60921
  19402229.6454   -1099952.26248   -835525.69763
  19827838.684   -23137399.656 7 -17860823.37723
 91  5 14 21 19 29.9960000  0  4G13G19G 2G 6
  22442417.613    -2347214.111 4  -1288486.90921
  21897951.816     6785870.547 5   5287674.86321
  19401010.1684   -1106355.23748   -840515.01663
  19822523.223   -23165331.851 7 -17882588.70823
 91  5 14 21 19 44.9960000  0  4G13G19G 2G 6
  22429381.0274   -2415714.14844  -1341863.36961
  21903559.3484    6815387.08245   5310674.67061
  19399805.2774   -1112694.35448   -845454.58263
  19817217.418   -23193212.778 7 -17904314.09123
 91  5 14 21 19 59.9960000  0  4G13G19G 2G 6
  22416355.582    -2484179.601 4  -1395212.91421
  21909193.1294    6844957.40645   5333716.39761
  19398609.762    -1118970.379 8   -850344.97823
  19811922.395   -23221043.002 7 -17925999.96323
 91  5 14 21 20 14.9960000  0  4G13G19G 2G 6
  22403337.082    -2552604.389 4  -1448530.72521
  21914827.1914    6874587.19445   5356804.44861
  19397428.1844   -1125177.80548   -855181.92463
  19806636.582   -23248816.764 7 -17947641.83723
 91  5 14 21 20 29.9960000  0  4G13G19G 2G 6
  22390312.9734   -2620991.06944  -1501818.94761
  21920479.3874    6904273.30945   5379936.39961
  19396259.598    -1131319.809 8   -859967.89023
  19801359.0904  -23276536.85547 -17969241.89664
 91  5 14 21 20 44.9960000  0  4G13G19G 2G 6
  22377314.3094   -2689343.82744  -1555080.56061
  21926136.8794    6934011.03645   5403108.56461
  19395102.7934   -1137401.25248   -864706.66663
  19796094.527   -23304207.919 7 -17990803.74724
 91  5 14 21 20 59.9960000  0  4G13G19G 2G 6
  22364315.004    -2757656.673 4  -1608311.21821
  21931810.3484    6963806.15545   5426325.44661
  19393958.004    -1143416.125 8   -869393.57023
  19790840.754   -23331823.643 7 -18012322.47524
 91  5 14 21 21 14.9960000  0  4G13G19G 2G 6
  22351314.3094   -2825930.83644  -1661511.65161
  21937485.2464    6993656.68045   5449585.49661
  19392827.3564   -1149366.44948   -874030.17763
  19785595.629   -23359385.747 7 -18033799.42024
 91  5 14 21 21 29.9960000  0  4G13G19G 2G 6
  22338336.4964   -2894167.89544  -1714683.19561
  21943182.0664    7023561.04845   5472887.50761
  19391706.340    -1155253.853 8   -878617.75223
  19780362.2464  -23386895.67247 -18055235.71463
 91  5 14 21 21 44.9960000  0  4G13G19G 2G 6
  22325357.5904   -2962371.00444  -1767828.27861
  21948874.9264    7053515.33145   5496228.40261
  19390595.6294   -1161082.31948   -883159.40163
  19775134.473   -23414357.072 7 -18076634.19424
 91  5 14 21 21 59.9960000  0  4G13G19G 2G 6
  22312384.856    -3030534.445 4  -1820942.45521
  21954587.6844    7083525.03345   5519612.49861
  19389500.5664   -1166846.39948   -887650.88663
  19769918.988   -23441764.096 7 -18097990.30324
 91  5 14 21 22 14.9960000  0  4G13G19G 2G 6
  22299417.6844   -3098662.86744  -1874029.32961
  21960309.1844    7113585.08145   5543035.82561
  19388414.1374   -1172551.20548   -892096.17863
  19764713.2464  -23469121.74847 -18119307.94463
 91  5 14 21 22 29.9950000  0  4G13G19G 2G 6
  22286463.241    -3166748.854 5  -1927083.13721
  21966042.8984    7143695.48745   5566498.39861
  19387340.5304   -1178194.14948   -896493.27563
  19759517.351   -23496425.749 7 -18140583.77523
 91  5 14 21 22 44.9950000  0  4G13G19G 2G 6
  22273511.9604   -3234800.23444  -1980109.98161
  21971776.249     7173861.196 5   5590004.05821
  19386278.8434   -1183775.26648   -900842.19063
  19754333.257   -23523678.779 7 -18161819.88924
 91  5 14 21 22 59.9950000  0  4G13G19G 2G 6
  22260569.0694   -3302808.80844  -2033103.48361
  21977532.335     7204083.584 5   5613553.86421
  19385227.8664   -1189290.72148   -905139.94463
  19749156.390   -23550875.297 7 -18183011.96623
 91  5 14 21 23 14.9950000  0  4G13G19G 2G 6
  22247637.6324   -3370779.04745  -2086067.10261
  21983290.2964    7234357.82045   5637144.08461
  19384191.7024   -1194745.57048   -909390.46463
  19743990.960   -23578019.869 7 -18204163.56323
 91  5 14 21 23 29.9950000  0  4G13G19G 2G 6
  22234710.437    -3438700.441 5  -2138992.63621
  21989065.358     7264693.688 5   5660782.31621
  19383166.2574   -1200129.92948   -913586.06363
  19738836.374   -23605102.385 7 -18225266.80824
 91  5 14 21 23 44.9950000  0  4G13G19G 2G 6
  22221789.390    -3506581.242 5  -2191886.55321
  21994848.140     7295082.723 5   5684462.00921
  19382152.4374   -1205452.28748   -917733.34863
  19733693.405   -23632131.153 7 -18246328.16223
 91  5 14 21 23 59.9950000  0  4G13G19G 2G 6
  22208882.9764   -3574420.43245  -2244748.03661
  22000642.7964    7325525.47845   5708183.55061
  19381152.2414   -1210712.18248   -921831.95863
  19728560.038   -23659105.333 7 -18267346.99423
 91  5 14 21 24 14.9950000  0  4G13G19G 2G 6
  22195983.952    -3642212.554 5  -2297572.87421
  22006443.2734    7356026.83245   5731950.74361
  19380163.6634   -1215904.74148   -925878.10263
  19723438.7414  -23686019.82347 -18288319.31563
 91  5 14 21 24 29.9950000  0  4G13G19G 2G 6
  22183088.9604   -3709961.57445  -2350364.08461
  22012262.6014    7386582.29545   5755760.09461
  19379188.601    -1221034.326 8   -929875.17223
  19718327.874   -23712878.595 7 -18309248.20524
 91  5 14 21 24 44.9950000  0  4G13G19G 2G 6
  22170208.616    -3777666.014 5  -2403120.59421
  22018083.0154    7417193.05245   5779612.54561
  19378225.2734   -1226099.88048   -933822.34763
  19713226.710   -23739680.419 7 -18330132.72224
 91  5 14 21 24 59.9950000  0  4G13G19G 2G 6
  22157329.491    -3845329.561 4  -2455845.20821
  22023919.718     7447854.930 5   5803504.81021
  19377272.7104   -1231105.58348   -937722.89163
  19708137.530   -23766429.245 7 -18350975.94823
 91  5 14 21 25 14.9950000  0  4G13G19G 2G 6
  22144461.5774   -3912952.38445  -2508538.05661
  22029761.351     7478567.302 5   5827436.44221
  19376330.1554   -1236052.10748   -941577.30863
  19703058.866   -23793125.278 7 -18371778.03124
 91  5 14 21 25 29.9950000  0  4G13G19G 2G 6
  22131605.3354   -3980529.92744  -2561195.68861
  22035622.913     7509334.433 5   5851410.74321
  19375401.1244   -1240935.03948   -945382.18863
  19697988.765   -23819764.180 7 -18392535.59824
 91  5 14 21 25 44.9950000  0  4G13G19G 2G 6
  22118755.4834   -4048059.66845  -2613816.01761
  22041483.8514    7540158.39445   5875429.32161
  19374485.4214   -1245752.41948   -949135.98663
  19692931.851   -23846343.495 7 -18413246.73823
 91  5 14 21 25 59.9950000  0  4G13G19G 2G 6
  22105912.5854   -4115546.78645  -2666403.22161
  22047360.835     7571033.473 5   5899487.74821
  19373577.8044   -1250510.20548   -952843.34363
  19687882.882   -23872868.792 7 -18433915.78523
 91  5 14 21 26 14.9950000  0  4G13G19G 2G 6
  22093073.7334   -4182995.61845  -2718960.51461
  22053241.101     7601954.814 5   5923582.20221
  19372683.3744   -1255213.04848   -956507.89063
  19682843.733   -23899344.486 7 -18454546.18023
 91  5 14 21 26 29.9950000  0  4G13G19G 2G 6
  22080246.851    -4250397.598 4  -2771481.34721
  22059136.452     7632930.057 5   5947718.65621
  19371801.3514   -1259853.21948   -960123.59563
  19677817.491   -23925762.617 7 -18475131.72623
 91  5 14 21 26 44.9950000  0  4G13G19G 2G 6
  22067431.124    -4317750.043 5  -2823963.57821
  22065038.1944    7663961.91845   5971899.23461
  19370929.9134   -1264428.31148   -963688.59763
  19672802.538   -23952120.432 7 -18495670.26523
 91  5 14 21 26 59.9950000  0  4G13G19G 2G 6
  22054623.562    -4385060.193 5  -2876412.87221
  22070963.1634    7695042.52645   5996117.80361
  19370071.5774   -1268946.03748   -967208.89463
  19667795.944   -23978425.399 7 -18516167.62623
 91  5 14 21 27 14.9950000  0  4G13G19G 2G 6
  22041821.7024   -4452325.37945  -2928827.08761
  22076879.8904    7726174.03645   6020376.03561
  19369221.4764   -1273404.15448   -970682.74963
  19662802.015   -24004675.143 7 -18536621.95823
 91  5 14 21 27 29.9950000  0  4G13G19G 2G 6
  22029029.7574   -4519542.93645  -2981204.20761
  22082817.5774    7757358.86145   6044675.78961
  19368386.2734   -1277800.36648   -974108.35563
  19657817.319   -24030866.948 7 -18557031.14023
 91  5 14 21 27 44.9950000  0  4G13G19G 2G 6
  22016251.804    -4586714.403 5  -3033545.43721
  22088757.9994    7788595.27545   6069015.77361
  19367559.4914   -1282136.42148   -977487.09563
  19652843.108   -24057002.361 7 -18577396.37623
 91  5 14 21 27 59.9950000  0  4G13G19G 2G 6
  22003477.476    -4653838.646 5  -3085849.84821
  22094715.585     7819883.681 5   6093396.26321
  19366747.2654   -1286411.95248   -980818.66863
  19647879.616   -24083080.649 7 -18597717.10523
 91  5 14 21 28 14.9950000  0  4G13G19G 2G 6
  21990710.1944   -4720918.44445  -3138119.64561
  22100673.983     7851220.765 5   6117814.66821
  19365944.1164   -1290630.22448   -984105.63063
  19642928.054   -24109104.771 7 -18617995.62823
 91  5 14 21 28 29.9950000  0  5G13G15G19G 2G 6
  21977954.476    -4787945.459 5  -3190348.27521
  22881206.7184         -0.96654
  22106652.5154    7882614.24245   6142277.01661
  19365153.9134   -1294783.42548   -987341.88163
  19637988.069   -24135066.816 7 -18638225.77623
 91  5 14 21 28 44.9950000  0  5G13G15G19G 2G 6
  21965208.1084   -4854918.84945  -3242535.17461
  22875894.6244     -27872.33043
  22112637.7184    7914064.69045   6166783.77361
  19364375.8124   -1298871.09948   -990527.07363
  19633059.882   -24160965.850 7 -18658406.82523
 91  5 14 21 28 59.9950000  0  5G13G15G19G 2G 6
  21952474.4134   -4921842.29345  -3294683.13861
  22870613.0774     -55635.37044
  22118634.2024    7945568.11345   6191331.78861
  19363608.6014   -1302897.42348   -993664.46463
  19628142.093   -24186805.852 7 -18678541.88123
 91  5 14 21 29 14.9950000  0  5G13G15G19G 2G 6
  21939748.8354   -4988713.36445  -3346790.29461
  22865356.8514     -83287.49844
  22124638.726     7977126.441 5   6215922.59321
  19362855.023    -1306860.395 7   -996752.48123
  19623236.476   -24212584.510 7 -18698629.12923
 91  5 14 21 29 29.9950000  0  5G13G15G19G 2G 6
  21927034.4914   -5055537.00145  -3398860.49461
  22860114.8514    -110833.98244
  22130653.4294    8008734.29945   6240552.01061
  19362112.9914   -1310765.38948   -999795.32663
  19618341.6714  -24238306.79247 -18718672.45663
 91  5 14 21 29 44.9950000  0  5G13G15G19G 2G 6
  21914327.148    -5122313.159 5  -3450893.71821
  22854886.6794    -138275.02344        -0.44171
  22136678.765     8040391.009 5   6265219.47021
  19361381.773    -1314612.936 8  -1002793.40723
  19613456.179   -24263973.202 7 -18738672.24023
 91  5 14 21 29 59.9950000  0  5G13G15G19G 2G 6
  21901629.8744   -5189036.12945  -3502885.46061
  22849688.843     -165604.668 4    -21296.18221
  22142707.8194    8072102.13545   6289929.34561
  19360660.4524   -1318397.65448  -1005742.52763
  19608585.8274  -24289577.75047 -18758623.82663
 91  5 14 21 30 14.9950000  0  5G13G15G19G 2G 6
  21888942.8744   -5255706.87845  -3554836.53961
  22844506.9214    -192824.06844    -42506.05161
  22148754.0544    8103865.97045   6314680.27561
  19359951.9994   -1322121.09348  -1008643.90263
  19603725.585   -24315122.073 7 -18778528.48023
 91  5 14 21 30 29.9950000  0  5G13G15G19G 2G 6
  21876262.1634   -5322327.34845  -3606748.40461
  22839348.2654    -219935.61844    -63631.89061
  22154811.788     8135680.291 5   6339470.56221
  19359252.6714   -1325785.63148  -1011499.37863
  19598875.827   -24340608.042 7 -18798387.66023
 91  5 14 21 30 44.9950000  0  5G13G15G19G 2G 6
  21863596.6014   -5388896.83645  -3658620.59861
  22834210.593     -246938.537 4    -84673.04921
  22160871.0234    8167545.45345   6364300.44761
  19358569.1014   -1329390.83248  -1014308.62263
  19594037.0384  -24366035.05747 -18818200.90863
 91  5 14 21 30 59.9950000  0  5G13G15G19G 2G 6
  21850938.952    -5455412.890 5  -3710451.12121
  22829091.616     -273830.526 4   -105627.75621
  22166946.1634    8199463.26445   6389171.37961
  19357895.3824   -1332934.94448  -1017070.26263
  19589210.530   -24391401.051 7 -18837966.59823
 91  5 14 21 31 14.9950000  0  5G13G15G19G 2G 6
  21838292.515    -5521878.602 5  -3762242.42621
  22823998.6404    -300614.56444   -126498.38761
  22173026.5234    8231430.25645   6414080.61661
  19357228.9444   -1336421.39747  -1019786.97263
  19584394.163   -24416709.155 7 -18857687.19223
 91  5 14 21 31 29.9950000  0  5G13G15G19G 2G 6
  21825652.2024   -5588290.25545  -3813991.58561
  22818920.304     -327287.183 4   -147282.18921
  22179124.0694    8263449.57945   6439030.64461
  19356579.2804   -1339847.03148  -1022456.29063
  19579589.015   -24441955.887 7 -18877359.95623
 91  5 14 21 31 44.9950000  0  5G13G15G19G 2G 6
  21813023.2024   -5654649.38745  -3865699.86361
  22813861.9684    -353850.12144   -167980.49761
  22185226.929     8295519.126 5   6464019.79721
  19355936.7654   -1343213.99148  -1025079.89363
  19574795.9444  -24467143.12947 -18896986.36763
 91  5 14 21 31 59.9950000  0  5G13G15G19G 2G 6
  21800408.7024   -5720955.52445  -3917366.79761
  22808836.351     -380303.053 4   -188593.10021
  22191344.7104    8327639.13445   6489048.26061
  19355308.5934   -1346522.06148  -1027657.60763
  19570015.991   -24492270.334 7 -18916565.99323
 91  5 14 21 32 14.9950000  0  5G13G15G19G 2G 6
  21787796.9764   -5787212.05745  -3968995.10361
  22803821.6874    -406649.17644   -209122.49161
  22197455.515     8359805.723 5   6514113.02121
  19354688.6014   -1349775.30647  -1030192.59563
  19565242.0304  -24517341.11447 -18936101.65563
 91  5 14 21 32 29.9950000  0  5G13G15G19G 2G 6
  21775198.913    -5853414.999 5  -4020581.67021
  22798829.999     -432884.785 4   -229565.78521
  22203590.452     8392022.185 5   6539216.64921
  19354082.6714   -1352970.13948  -1032682.06963
  19560484.273   -24542351.781 7 -18955590.46823
 91  5 14 21 32 44.9950000  0  5G13G15G19G 2G 6
  21762613.390    -5919560.173 5  -4072123.20021
  22793851.319     -459006.002 3   -249919.89321
  22209731.468     8424292.286 5   6564362.09221
  19353483.9834   -1356102.96047  -1035123.22363
  19555736.233   -24567298.335 7 -18975029.32423
 91  5 14 21 32 59.9950000  0  5G13G15G19G 2G 6
  21750037.874    -5985647.973 5  -4123620.02121
  22788896.8354    -485013.23143   -270185.18961
  22215879.218     8456615.160 5   6589548.62521
  19352902.1324   -1359174.43748  -1037516.57263
  19551001.851   -24592181.335 7 -18994418.66223
 91  5 14 21 33 14.9950000  0  5G13G15G19G 2G 6
  21737472.452    -6051679.758 5  -4175073.20621
  22783982.5934    -510908.32944   -290363.13461
  22222042.765     8488988.988 5   6614774.88921
  19352325.1944   -1362186.44348  -1039863.58763
  19546278.702   -24617002.411 7 -19013759.74623
 91  5 14 21 33 29.9950000  0  5G13G15G19G 2G 6
  21724917.632    -6117658.919 5  -4226485.43221
  22779073.5154    -536694.40544   -310456.12261
  22228213.648     8521410.057 5   6640037.95721
  19351764.640    -1365142.786 8  -1042167.21923
  19541567.2964  -24641764.90247 -19033055.18163
 91  5 14 21 33 44.9950000  0  5G13G15G19G 2G 6
  21712372.233    -6183583.622 5  -4277855.14521
  22774186.2804    -562369.49144   -330462.61161
  22234390.6634    8553879.93645   6665339.05161
  19351212.8434   -1368041.84748  -1044426.22463
  19536866.312   -24666467.032 7 -19052303.57723
 91  5 14 21 33 59.9950000  0  5G13G15G19G 2G 6
  21699831.3984   -6249453.22945  -4329181.96461
  22769322.9444    -587933.42444   -350382.50461
  22240583.1484    8586398.36844   6690677.99661
  19350673.2264   -1370883.79848  -1046640.72363
  19532176.632   -24691108.752 7 -19071504.90723
 91  5 14 21 34 14.9950000  0  5G13G15G19G 2G 6
  21687311.483    -6315268.836 5  -4380466.70521
  22764475.7574    -613387.41444   -370216.73761
  22246778.210     8618963.895 5   6716053.61821
  19350141.1484   -1373670.21048  -1048811.94563
  19527499.1484  -24715691.25347 -19090660.08963
 91  5 14 21 34 29.9950000  0  5G13G15G19G 2G 6
  21674795.3434   -6381028.63245  -4431708.00161
  22759659.0694    -638729.45744   -389963.68461
  22252985.6084    8651578.24144   6741467.28161
  19349623.7964   -1376399.47748  -1050938.63663
  19522831.913   -24740212.578 7 -19109767.60423
 91  5 14 21 34 44.9950000  0  5G13G15G19G 2G 6
  21662295.7494   -6446729.16645  -4482903.06161
  22754857.5854    -663956.41644   -409621.00661
  22259198.7734    8684244.20545   6766921.15361
  19349114.4444   -1379068.63448  -1053018.49363
  19518179.3044  -24764669.53847 -19128824.97063
 91  5 14 21 34 59.9950000  0  5G13G15G19G 2G 6
  21649804.9444   -6512370.60245  -4534052.10461
  22750077.1874    -689068.87444   -429189.08561
  22265427.999     8716960.840 5   6792414.52621
  19348617.4134   -1381678.50948  -1055052.15863
  19513535.827   -24789062.744 7 -19147832.65323
 91  5 14 21 35 14.9950000  0  5G13G15G19G 2G 6
  21637323.460    -6577948.729 5  -4585151.77921
  22745316.6014    -714062.57043   -448664.66361
  22271662.851     8749732.095 5   6817950.46921
  19348133.6714   -1384225.20648  -1057036.59263
  19508908.663   -24813387.981 7 -19166787.37223
 91  5 14 21 35 29.9950000  0  5G13G15G19G 2G 6
  21624857.155    -6643468.546 5  -4636206.04421
  22740583.8044    -738942.32143   -468051.39861
  22277903.3744    8782552.69845   6843524.85261
  19347659.9994   -1386714.23848  -1058976.09463
  19504290.054   -24837650.320 7 -19185693.07523
 91  5 14 21 35 44.9950000  0  5G13G15G19G 2G 6
  21612400.5774   -6708931.18445  -4687215.76261
  22735871.3274    -763709.56744   -487350.46661
  22284159.1084    8815420.85945   6869136.30661
  19347198.3434   -1389147.26448  -1060871.95063
  19499685.038   -24861851.268 7 -19204550.94423
 91  5 14 21 35 59.9950000  0  5G13G15G19G 2G 6
  21599952.687    -6774335.373 5  -4738179.93921
  22731179.577     -788363.014 4   -506560.90321
  22290423.9374    8848337.52545   6894785.55661
  19346742.0854   -1391523.26948  -1062723.38163
  19495091.476   -24885989.516 7 -19223359.95223
 91  5 14 21 36 14.9950000  0  5G13G15G19G 2G 6
  21587519.7884   -6839676.94945  -4789095.30661
  22726518.319     -812898.753 4   -525679.58821
  22296695.296     8881306.281 4   6920475.36921
  19346304.4134   -1393838.76048  -1064527.65463
  19490510.6794  -24910061.13447 -19242117.04863
 91  5 14 21 36 29.9950000  0  5G13G15G19G 2G 6
  21575096.5544   -6904959.28045  -4839964.53861
  22721866.538     -837320.512 4   -544709.45421
  22302986.858     8914323.289 4   6946202.77221
  19345873.1164   -1396097.50048  -1066287.71063
  19485943.335   -24934069.734 7 -19260825.02923
 91  5 14 21 36 44.9950000  0  5G13G15G19G 2G 6
  21562687.0384   -6970183.13545  -4890788.15661
  22717242.155     -861629.163 5   -563651.21221
  22309272.148     8947387.313 5   6971966.82921
  19345455.6404   -1398300.56148  -1068004.37463
  19481385.116   -24958016.206 7 -19279484.60523
 91  5 14 21 36 59.9950000  0  5G13G15G19G 2G 6
  21550283.3984   -7035345.68945  -4941564.06861
  22712634.0384    -885822.03845   -582502.71161
  22315575.437     8980500.600 5   6997769.26621
  19345046.9294   -1400445.91948  -1069676.08463
  19476840.999   -24981898.121 7 -19298093.87723
 91  5 14 21 37 14.9950000  0  5G13G15G19G 2G 6
  21537896.7574   -7100442.98845  -4992289.07961
  22708060.546     -909894.975 5   -601260.81221
  22321889.929     9013666.775 5   7023612.93221
  19344649.1714   -1402529.82248  -1071299.89863
  19472309.1404  -25005711.30047 -19316649.58663
 91  5 14 21 37 29.9950000  0  5G13G15G19G 2G 6
  21525522.390    -7165476.824 5  -5042964.66021
  22703498.2414    -933850.16044   -619927.10061
  22328212.2654    9046883.58145   7049496.02961
  19344265.2334   -1404554.54048  -1072877.59463
  19467790.6484  -25029457.90347 -19335153.42163
 91  5 14 21 37 44.9950000  0  5G13G15G19G 2G 6
  21513159.249    -7230445.798 5  -5093589.71721
  22698963.1554    -957686.49945   -638500.82161
  22334536.6554    9080151.76945   7075419.17561
  19343890.1014   -1406519.27948  -1074408.55563
  19463284.671   -25053136.885 7 -19353604.56323
 91  5 14 21 37 59.9950000  0  5G13G15G19G 2G 6
  21500807.6714   -7295349.89645  -5144164.22461
  22694450.0544    -981403.95845
  22340882.843     9113470.890 5   7101382.01121
  19343527.1714   -1408424.58848  -1075893.21663
  19458790.163   -25076748.308 7
 91  5 14 21 38 14.9950000  0  5G13G15G19G 2G 6
  21488467.9914   -7360193.88445  -5194691.85761
  22689957.6554   -1005007.55945
  22347230.390     9146835.840 5   7127380.57021
  19343176.3274   -1410275.51748  -1077335.49163
  19454309.983   -25100297.034 7
 91  5 14 21 38 29.9950000  0  5G13G15G19G 2G 6
  21476141.3354   -7424975.70745  -5245171.07061
  22685488.9684   -1028495.29245
  22353585.5694    9180248.26445   7153416.11061
  19342834.7414   -1412070.43148  -1078734.12463
  19449841.0854  -25123781.25147 -19408652.08663
 91  5 14 21 38 44.9950000  0  5G13G15G19G 2G 6
  21463822.765    -7489697.875 5  -5295603.81321
  22681039.6484   -1051869.91045
  22359952.038     9213704.990 5   7179486.15521
  19342502.2334   -1413812.35148  -1080091.46063
  19445384.0854  -25147203.66147 -19426903.30463
 91  5 14 21 38 59.9950000  0  5G13G15G19G 2G 6
  21451519.530    -7554356.854 5  -5345987.29521
  22676615.9684   -1075127.31345
  22366329.132     9247209.503 5   7205593.46521
  19342179.7104   -1415497.88648  -1081404.86263
  19440939.827   -25170560.417 7 -19445103.35823
 91  5 14 21 39 14.9950000  0  5G13G15G19G 2G 6
  21439227.6244   -7618949.48545  -5396319.08161
  22672209.5384   -1098264.78245
  22372713.0544    9280764.47345   7231740.06561
  19341872.3984   -1417124.51048  -1082672.36463
  19436506.8664  -25193848.81247 -19463250.15163
 91  5 14 21 39 29.9950000  0  5G13G15G19G 2G 6
  21426948.1324   -7683478.98145  -5446601.67761
  22667827.5464   -1121285.92245        -0.45271
  22379108.3664    9314366.00345   7257922.96361
  19341574.4914   -1418695.97748  -1083896.88163
  19432090.202   -25217072.392 7 -19481346.43223
 91  5 14 21 39 44.9950000  0  5G13G15G19G 2G 6
  21414680.2264   -7747944.80445  -5496834.67761
  22663472.2264   -1144190.47345    -17848.05661
  22385512.726     9348014.084 5   7284142.13421
  19341285.2804   -1420212.18348  -1085078.33663
  19427682.593   -25240230.705 7 -19499391.86123
 91  5 14 21 39 59.9950000  0  5G13G15G19G 2G 6
  21402425.343    -7812348.619 5  -5547019.30821
  22659128.421    -1166980.361 5    -35606.35721
  22391923.608     9381706.479 4   7310395.82021
  19341004.5074   -1421675.47148  -1086218.56063
  19423287.468   -25263325.720 7 -19517387.96123
 91  5 14 21 40 14.9950000  0  5G13G15G19G 2G 6
  21390184.1714   -7876685.09545  -5597151.49961
  22654821.562    -1189650.195 5    -53271.11321
  22398343.233     9415448.231 5   7336687.98621
  19340738.2654   -1423080.75548  -1087313.58763
  19418904.601   -25286352.111 7 -19535330.59723
 91  5 14 21 40 29.9950000  0  5G13G15G19G 2G 6
  21377953.343    -7940953.000 5  -5647230.24421
  22650534.007    -1212198.791 5    -70841.38821
  22404776.8664    9449240.04044   7363019.13961
  19340484.8824   -1424427.27048  -1088362.81363
  19414537.6554  -25309308.89247 -19553218.98563
 91  5 14 21 40 44.9950000  0  5G13G15G19G 2G 6
  21365737.093    -8005158.073 5  -5697260.06021
  22646257.4214   -1234631.92645    -88321.72961
  22411213.491     9483075.805 5   7389384.57021
  19340235.4374   -1425720.88848  -1089370.83063
  19410181.4214  -25332201.77847 -19571057.58763
 91  5 14 21 40 59.9950000  0  5G13G15G19G 2G 6
  21353528.9994   -8069293.56445  -5747235.63461
  22642013.7884   -1256943.08645   -105706.98361
  22417661.7884    9516961.88045   7415789.17261
  19340000.5774   -1426955.44448  -1090332.81963
  19405837.6404  -25355024.13547 -19588841.23463
 91  5 14 21 41 14.9950000  0  5G13G15G19G 2G 6
  21341336.1244   -8133364.98845  -5797161.28261
  22637792.7734   -1279138.22045   -123001.84561
  22424116.5694    9550892.03945   7442228.13561
  19339776.5304   -1428137.23948  -1091253.69163
  19401506.5934  -25377781.91847 -19606574.55963
 91  5 14 21 41 29.9950000  0  5G13G15G19G 2G 6
  21329159.077    -8197368.779 5  -5847034.22121
  22633587.312    -1301213.666 5   -140203.43021
  22430587.819     9584869.381 4   7468703.88721
  19339563.7804   -1429263.08248  -1092130.96963
  19397189.4524  -25400471.66447 -19624254.87163
 91  5 14 21 41 44.9950000  0  5G13G15G19G 2G 6
  21316991.569    -8261310.660 6  -5896858.93721
  22629412.671    -1323175.315 5   -157316.35521
  22437055.788     9618887.668 4   7495211.50121
  19339356.3274   -1430339.08948  -1092969.41663
  19392884.8824  -25423099.31547 -19641886.79863
 91  5 14 21 41 59.9950000  0  5G13G15G19G 2G 6
  21304837.2804   -8325180.08846  -5946627.19361
  22625247.8824   -1345012.78345   -174332.51961
  22443544.9994    9652957.06144   7521758.95461
  19339164.8744   -1431355.02548  -1093761.04963
  19388591.7104  -25445654.41247 -19659462.18463
 91  5 14 21 42 14.9950000  0  5G13G15G19G 2G 6
  21292694.6874   -8388975.67145  -5996337.90561
  22621120.7884   -1366725.06545   -191251.15761
  22450037.1634    9687078.44145   7548346.91761
  19338982.2104   -1432310.16548  -1094505.30663
  19384312.6554  -25468135.91047 -19676980.22463
 91  5 14 21 42 29.9950000  0  5G13G15G19G 2G 6
  21280567.7804   -8452705.54045  -6045997.41261
  22617008.9524   -1388320.14345   -208078.44461
  22456533.210     9721243.199 5   7574968.69021
  19338809.8274   -1433213.06548  -1095208.86163
  19380047.780   -25490551.871 7 -19694447.19223
 91  5 14 21 42 44.9950000  0  5G13G15G19G 2G 6
  21268453.1244   -8516365.23846  -6095602.22761
  22612930.101    -1409793.898 5   -224811.19521
  22463048.9604    9755455.37945   7601627.39761
  19338651.944    -1434059.568 8  -1095868.46523
  19375794.132   -25512898.118 7 -19711859.84323
 91  5 14 21 42 59.9950000  0  5G13G15G19G 2G 6
  21256353.710    -8579951.400 6  -6145149.78721
  22608858.8354   -1431143.08345   -241446.89961
  22469567.6084    9789717.95844   7628325.39961
  19338499.8274   -1434846.86448  -1096481.93963
  19371557.5234  -25535171.31147 -19729215.56463
 91  5 14 21 43 14.9950000  0  5G13G15G19G 2G 6
  21244266.116    -8643463.783 5  -6194639.80021
  22604826.3354   -1452367.38245   -257985.27261
  22476099.593     9824030.613 5   7655062.40221
  19338361.6324   -1435575.09648  -1097049.38863
  19367332.4764  -25557371.29247 -19746514.24563
 91  5 14 21 43 29.9950000  0  5G13G15G19G 2G 6
  21232196.444    -8706906.794 6  -6244075.77321
  22600807.1874   -1473471.29645   -274429.84761
  22482633.983     9858388.661 4   7681834.77221
  19338234.5384   -1436249.01948  -1097574.51963
  19363120.6164  -25579502.70147 -19763759.49663
 91  5 14 21 43 44.9950000  0  5G13G15G19G 2G 6
  21220136.858    -8770282.817 6  -6293459.57721
  22596813.8904   -1494457.61445   -290782.79461
  22489178.093     9892788.976 5   7708640.09521
  19338112.7024   -1436871.75248  -1098059.76463
  19358921.2264  -25601568.32947 -19780953.48063
 91  5 14 21 43 59.9950000  0  5G13G15G19G 2G 6
  21208088.398    -8833585.761 6  -6342786.40621
  22592844.226    -1515320.567 5   -307039.60621
  22495737.476     9927237.427 4   7735482.91221
  19338005.7964   -1437437.35248  -1098500.48463
  19354735.366   -25623562.037 7 -19798091.42123
 91  5 14 21 44 14.9950000  0  5G13G15G19G 2G 6
  21196055.968    -8896814.089 6  -6392055.11621
  22588901.1794   -1536058.51745   -323199.01061
  22502299.765     9961734.822 5   7762363.86821
  19337913.3354   -1437944.84448  -1098895.93363
  19350565.0234  -25645482.48247 -19815172.28063
 91  5 14 21 44 29.9950000  0  5G13G15G19G 2G 6
  21184034.9524   -8959972.99445  -6441269.70261
  22584973.5464   -1556677.09045   -339265.41561
  22508882.374     9996275.523 4   7789278.58121
  19337822.2104   -1438399.73048  -1099250.38663
  19346405.1484  -25667334.97047 -19832200.18263
 91  5 14 21 44 44.9950000  0  5G13G15G19G 2G 6
  21172034.632    -9023057.064 6  -6490425.98221
  22581075.7804   -1577170.63245   -355234.36461
  22515456.1164   10030864.56045   7816230.94961
  19337747.6014   -1438797.05648  -1099559.98863
  19342261.5234  -25689114.15947 -19849170.97163
 91  5 14 21 44 59.9950000  0  5G13G15G19G 2G 6
  21160040.2024   -9086070.12545  -6539526.95261
  22577196.780    -1597543.471 5   -371109.27621
  22522050.765    10065497.717 5   7843217.68921
  19337679.8744   -1439141.36048  -1099828.27163
  19338131.765   -25710824.163 7 -19866087.84223
 91  5 14 21 45 14.9950000  0  5G13G15G19G 2G 6
  21148064.866    -9149009.211 6  -6588570.24921
  22573342.726    -1617792.751 5   -386887.90021
  22528644.015    10100177.492 5   7870240.75721
  19337629.2334   -1439430.00948  -1100053.18863
  19334013.452   -25732462.089 7 -19882948.54923
 91  5 14 21 45 29.9950000  0  5G13G15G19G 2G 6
  21136101.7804   -9211873.09446  -6637554.94261
  22569514.523    -1637917.402 5   -402569.41021
  22535253.132    10134904.319 4   7897300.48021
  19337585.2884   -1439662.22248  -1100234.13563
  19329909.6634  -25754027.09847 -19899752.44163
 91  5 14 21 45 44.9950000  0  5G13G15G19G 2G 6
  21124154.6404   -9274659.68346  -6686479.40661
  22565708.991    -1657915.206 5   -418152.07821
  22541873.015    10169680.176 4   7924398.43021
  19337551.1714   -1439836.12248
  19325820.077   -25775516.969 7 -19916497.77723
 91  5 14 21 45 59.9950000  0  5G13G15G19G 2G 6
  21112223.1324   -9337367.57746  -6735342.55361
  22561925.851    -1677785.021 5   -433635.01021
  22548498.585    10204505.915 4   7951535.23421
  19337529.2804   -1439950.91048
  19321744.0774  -25796930.45747 -19933183.59863
 91  5 14 21 46 14.9950000  0  5G13G15G19G 2G 6
  21100301.9294   -9400001.31846  -6784147.92461
  22558167.7884   -1697531.64245   -449021.94361
  22555135.1244   10239376.56945   7978707.03661
  19337517.3044   -1440011.51748
  19317685.241   -25818272.334 7 -19949813.63023
 91  5 14 21 46 29.9950000  0  5G13G15G19G 2G 6
  21088395.5074   -9462562.02546  -6832896.38561
  22554435.741    -1717156.637 5   -464314.13721
  22561782.077    10274290.374 4   8005912.48221
  19337516.7654   -1440019.60448
  19313635.9684  -25839543.99047 -19966388.92763
 91  5 14 21 46 44.9950000  0  5G13G15G19G 2G 6
  21076504.437    -9525047.674 6  -6881586.36021
  22550723.905    -1736658.094 5   -479510.04221
  22568432.187    10309248.806 4   8033152.68121
  19337524.1324   -1439973.70148
  19309603.6324  -25860743.65947 -19982908.13963
 91  5 14 21 46 59.9950000  0  5G13G15G19G 2G 6
  21064632.687    -9587459.016 6  -6930218.44421
  22547036.718    -1756036.907 5   -494610.37821
  22575092.6084   10344250.82544   8060426.84561
  19337544.5154   -1439874.90148
  19305581.312   -25881871.999 7 -19999371.76523
 91  5 14 21 47 14.9950000  0  5G13G15G19G 2G 6
  21052769.648    -9649791.793 6  -6978789.30121
  22543377.015    -1775288.692 5   -509611.70921
  22581762.3434   10379300.22645   8087737.92461
  19337574.155    -1439719.151 8
  19301572.999   -25902924.923 7 -20015776.63523
 91  5 14 21 47 29.9950000  0  5G13G15G19G 2G 6
  21040922.6944   -9712046.90946  -7027299.62661
  22539734.687    -1794414.857 5   -524515.17821
  22588443.194    10414395.554 4   8115084.79321
  19337615.8434   -1439508.01648
  19297581.8434  -25923903.50047 -20032123.56663
 91  5 14 21 47 44.9950000  0  5G13G15G19G 2G 6
  21029087.210    -9774227.082 6  -7075751.58821
  22536119.1944   -1813417.99545   -539322.74261
  22595127.718    10449533.878 5   8142465.16721
  19337664.6164   -1439244.43848  -1099908.54563
  19293607.194   -25944810.489 7 -20048414.71023
 91  5 14 21 47 59.9950000  0  5G13G15G19G 2G 6
  21017272.155    -9836326.545 6  -7124140.64621
  22532529.6794   -1832292.37345   -554030.03261
  22601827.1014   10484720.19144   8169882.94161
  19337725.7574   -1438923.23348  -1099658.25464
  19289639.4524  -25965640.39147 -20064645.79863
 91  5 14 21 48 14.9950000  0  5G13G15G19G 2G 6
  21005471.288    -9898345.631 6  -7172467.10121
  22528961.296    -1851038.551 5   -568637.40221
  22608528.9374   10519953.97844   8197337.69461
  19337797.0464   -1438544.84948  -1099363.40163
  19285691.843   -25986393.540 7 -20080817.06823
 91  5 14 21 48 29.9950000  0  5G13G15G19G 2G 6
  20993681.7654   -9960290.56546  -7220735.74061
  22525420.124    -1869663.132 5   -583150.03621
  22615240.9684   10555228.39244   8224824.12861
  19337881.0304   -1438116.31648  -1099029.47363
  19281756.312   -26007076.517 7 -20096933.65823
 91  5 14 21 48 44.9950000  0  5G13G15G19G 2G 6
  20981907.827   -10022159.279 6  -7268945.00621
  22521894.9604   -1888164.20245   -597566.37661
  22621958.6404   10590544.98044   8252343.39561
  19337967.4214   -1437636.18248  -1098655.34063
  19277833.9994  -26027687.33747 -20112994.02563
 91  5 14 21 48 59.9950000  0  5G13G15G19G 2G 6
  20970151.0694  -10083946.97446  -7317091.12361
  22518399.3354   -1906537.37045   -611883.09961
  22628693.1404   10625907.93344   8279898.80861
  19338071.3274   -1437099.93848  -1098237.48563
  19273925.0074  -26048221.60647 -20128994.74563
 91  5 14 21 49 14.9950000  0  5G13G15G19G 2G 6
  20958406.3824  -10145653.73046  -7365174.18861
  22514926.7264   -1924782.78645   -626100.27461
  22635425.7494   10661316.95645   8307490.12461
  19338184.2334   -1436507.83848  -1097776.10163
  19270034.890   -26068679.157 7 -20144935.68323
 91  5 14 21 49 29.9950000  0  5G13G15G19G 2G 6
  20946681.679   -10207280.107 6  -7413194.62221
  22511479.069    -1942900.594 5   -640218.00721
  22642174.866    10696771.021 4   8335116.52821
  19338307.0234   -1435860.88948  -1097271.98063
  19266154.5304  -26089060.71147 -20160817.40163
 91  5 14 21 49 44.9950000  0  5G13G15G19G 2G 6
  20934972.9374  -10268826.68746  -7461152.88261
  22508057.1084   -1960892.29045   -654237.45561
  22648928.585    10732268.875 4   8362777.06021
  19338440.1404   -1435160.25548  -1096726.03163
  19262289.421   -26109367.131 7 -20176640.57323
 91  5 14 21 49 59.9950000  0  5G13G15G19G 2G 6
  20923272.5464  -10330290.92846  -7509046.96661
  22504658.483    -1978755.274 5   -668156.62921
  22655694.398    10767812.683 4   8390473.36721
  19338583.3354   -1434403.78748  -1096136.56963
  19258441.069   -26129595.991 7 -20192403.30823
 91  5 14 21 50 14.9950000  0  5G13G15G19G 2G 6
  20911593.937   -10391668.428 6  -7556873.47621
  22501279.773    -1996485.095 5   -681972.02221
  22662466.530    10803406.353 4   8418208.56921
  19338739.6244   -1433587.57048  -1095500.55363
  19254606.054   -26149743.013 7 -20208102.27323
 91  5 14 21 50 29.9950000  0  5G13G15G19G 2G 6
  20899927.952   -10452967.346 6  -7604638.75321
  22497937.648    -2014090.476 5   -695690.45521
  22669250.9604   10839041.13144   8445975.80261
  19338905.9914   -1432720.18948  -1094824.67363
  19250786.3904  -26169816.65547 -20223744.06363
 91  5 14 21 50 44.9950000  0  5G13G15G19G 2G 6
  20888281.5464  -10514182.66746  -7652338.87961
  22494612.890    -2031566.411 5   -709308.02421
  22676038.413    10874721.810 4   8473778.79421
  19339081.4444   -1431796.86748  -1094105.19663
  19246982.6634  -26189811.88647 -20239324.74663
 91  5 14 21 50 59.9950000  0  5G13G15G19G 2G 6
  20876643.7334  -10575316.44846  -7699975.48061
  22491301.1244   -2048915.14745   -722826.48061
  22682841.5624   10910446.01744   8501615.67561
  19339265.7024   -1430820.11648  -1093344.08863
  19243190.733   -26209730.885 7 -20254846.03523
 91  5 14 21 51 14.9950000  0  5G13G15G19G 2G 6
  20865030.983   -10636368.598 6  -7747548.46821
  22488029.3274   -2066136.66045   -736245.82161
  22689643.523    10946213.117 4   8529486.01521
  19339463.0384   -1429790.45848  -1092541.75163
  19239415.968   -26229573.758 7 -20270308.00023
 91  5 14 21 51 29.9950000  0  5G13G15G19G 2G 6
  20853428.929   -10697336.840 6  -7795056.07221
  22484772.327    -2083228.812 4   -749564.35721
  22696464.460    10982024.827 4   8557391.10321
  19339670.2494   -1428705.95248  -1091696.68063
  19235653.4214  -26249338.37347 -20285708.99063
 91  5 14 21 51 44.9950000  0  5G13G15G19G 2G 6
  20841841.9764  -10758222.86946  -7842499.60361
  22481546.7104   -2100193.66745   -762783.65561
  22703280.499    11017879.001 5   8585329.28721
  19339886.8744   -1427568.67448  -1090810.48963
  19231908.968   -26269026.563 7 -20301050.42523
 91  5 14 21 51 59.9950000  0  5G13G15G19G 2G 6
  20830273.023   -10819020.411 6  -7889874.20821
  22478343.710    -2117025.270 5   -775899.22021
  22710117.062    11053781.464 4   8613305.11521
  19340112.9374   -1426372.73448  -1089878.58963
  19228177.968   -26288632.191 7 -20316327.52823
 91  5 14 21 52 14.9950000  0  5G13G15G19G 2G 6
  20818716.5154  -10879732.12046  -7937181.93561
  22475163.3194   -2133726.44945   -788913.07361
  22716952.5544   11089729.06744   8641316.06761
  19340349.0694   -1425121.43848  -1088903.54763
  19224461.0544  -26308158.24947 -20331542.62663
 91  5 14 21 52 29.9950000  0  5G13G15G19G 2G 6
  20807181.507   -10940354.971 6  -7984420.40221
  22472013.7334   -2150294.14845   -801822.92161
  22723802.733    11125724.399 3   8669364.22421
  19340599.8124   -1423812.17248  -1087883.34263
  19220762.108   -26327601.944 7 -20346693.55123
 91  5 14 21 52 44.9950000  0  5G13G15G19G 2G 6
  20795660.452   -11000895.029 6  -8031594.37221
  22468888.187    -2166734.785 5   -814633.78521
  22730667.296    11161761.073 4   8697444.61521
  19340857.5464   -1422451.20148  -1086822.84463
  19217075.7264  -26346969.03247 -20361784.77963
 91  5 14 21 52 59.9950000  0  5G13G15G19G 2G 6
  20784158.265   -11061346.988 6  -8078699.69621
  22465783.077    -2183043.187 5   -827341.60921
  22737526.4684   11197843.80543   8725560.87361
  19341127.7964   -1421033.83447  -1085718.40463
  19213406.3664  -26366254.52847 -20376812.43063
 91  5 14 21 53 14.9950000  0  5G13G15G19G 2G 6
  20772667.3044  -11121723.32046  -8125746.08461
  22462704.1634   -2199232.05345   -839956.28561
  22744400.5854   11233959.59744   8753702.92361
  19341405.8354   -1419572.82347  -1084579.95163
  19209749.8194  -26385470.98247 -20391786.28263
 91  5 14 21 53 29.9950000  0  5G13G15G19G 2G 6
  20761193.8354  -11182013.22846  -8172725.14261
  22459643.0774   -2215290.71845   -852469.50861
  22751281.4684   11270118.93644   8781878.86261
  19341696.6634   -1418057.78847  -1083399.40563
  19206106.3744  -26404607.90647 -20406698.16463
 91  5 14 21 53 44.9950000  0  5G13G15G19G 2G 6
  20749739.773   -11242211.486 6  -8219632.76021
  22456612.999    -2231214.244 5   -864877.42621
  22758171.460    11306326.319 4   8810092.27221
  19341994.7884   -1416484.05647  -1082173.12463
  19202481.9524  -26423660.17147 -20421544.07463
 91  5 14 21 53 59.9950000  0  5G13G15G19G 2G 6
  20738298.702   -11302326.968 6  -8266475.91321
  22453610.8044   -2247011.52145   -877186.96161
  22765074.7804   11342572.54144   8838335.93061
  19342302.2734   -1414860.72347  -1080908.18663
  19198872.4214  -26442636.65547 -20436330.93863
 91  5 14 21 54 14.9950000  0  5G13G15G19G 2G 6
  20726875.788   -11362358.143 6  -8313253.32121
  22450627.335    -2262681.193 5   -889397.08121
  22771977.155    11378858.796 4   8866610.80321
  19342621.9444   -1413186.62547  -1079603.69163
  19195274.6404  -26461535.91547 -20451057.62063
 91  5 14 21 54 29.9950000  0  5G13G15G19G 2G 6
  20715466.9524  -11422304.20046  -8359964.45561
  22447666.9604   -2278223.00545   -901507.54961
  22778883.5384   11415185.26043   8894916.99461
  19342950.0544   -1411461.58047  -1078259.50363
  19191692.8904  -26480357.49547 -20465723.78363
 91  5 14 21 54 44.9950000  0  5G13G15G19G 2G 6
  20704075.7964  -11482165.71146  -8406609.68961
  22444735.9684   -2293637.52645   -913518.84961
  22785809.1794   11451551.09544   8923253.90861
  19343288.5384   -1409686.39547  -1076876.23963
  19188127.8744  -26499102.03847 -20480329.90863
 91  5 14 21 54 59.9950000  0  5G13G15G19G 2G 6
  20692700.812   -11541937.831 6  -8453185.27821
  22441828.2494   -2308919.86145   -925427.12961
  22792738.460    11487960.650 4   8951624.82021
  19343637.5544   -1407856.69047  -1075450.49463
  19184573.6714  -26517764.71347 -20494872.24663
 91  5 14 21 55 14.9950000  0  5G13G15G19G 2G 6
  20681345.733   -11601625.398 6  -8499694.97421
  22438945.679    -2324075.093 5   -937236.36121
  22799676.1484   11524408.61844   8980025.72861
  19343995.0464   -1405977.74147  -1073986.37563
  19181037.4604  -26536350.44347 -20509354.62763
 91  5 14 21 55 29.9950000  0  5G13G15G19G 2G 6
  20670002.7104  -11661218.49246  -8546131.04661
  22436084.741    -2339093.738 5   -948939.19321
  22806621.530    11560904.365 4   9008463.83321
  19344360.1324   -1404040.05047  -1072476.49163
  19177518.1324  -26554849.63147 -20523769.56863
 91  5 14 21 55 44.9950000  0  5G13G15G19G 2G 6
  20658680.1554  -11720725.47746  -8592500.04061
  22433252.304    -2353984.439 5   -960542.30221
  22813570.6244   11597438.78844   9036932.08561
  19344740.6164   -1402052.65847  -1070927.87363
  19174012.8664  -26573270.97347 -20538123.85563
 91  5 14 21 55 59.9950000  0  5G13G15G19G 2G 6
  20647374.7654  -11780141.42946  -8638798.08661
  22430443.257    -2368742.241 5   -972041.87721
  22820528.429    11634016.656 3   9065434.17621
  19345128.8044   -1400010.88247  -1069336.87863
  19170521.9834  -26591609.38247 -20552413.50663
 91  5 14 21 56 14.9950000  0  4G13G15G 2G 6
  20636084.288   -11839472.204 6  -8685029.75021
  22427660.2104   -2383373.34145   -983442.69361
  19345525.3824   -1397920.88747  -1067708.30563
  19167047.3744  -26609870.91747 -20566643.27063
 91  5 14 21 56 29.9950000  0  4G13G15G 2G 6
  20624812.0624  -11898716.45946  -8731194.02861
  22424899.624    -2397876.471 5   -994743.81621
  19345933.1944   -1395781.55147  -1066041.29163
  19163588.5154  -26628054.29647 -20580812.13163
 91  5 14 21 56 44.9950000  0  4G13G15G 2G 6
  20613556.257   -11957867.962 6  -8777286.01421
  22422167.6014   -2412245.38145  -1005940.35061
  19346351.2804   -1393587.19847  -1064331.40663
  19160143.4834  -26646153.52647 -20594915.41863
 91  5 14 21 56 59.9950000  0  4G13G15G 2G 6
  20602313.0234  -12016927.07346  -8823306.01561
  22419454.2334   -2426481.11445  -1017033.08761
  19346780.5074   -1391338.73647  -1062579.35963
  19156714.0544  -26664169.06347 -20608953.48963
 91  5 14 21 57 14.9950000  0  4G13G15G 2G 6
  20591092.4524  -12075894.09746  -8869254.25261
  22416773.1944   -2440584.25645  -1028022.50661
  19347218.0234   -1389037.01947  -1060785.81763
  19153301.7964  -26682101.34147 -20622926.69163
 91  5 14 21 57 29.9950000  0  4G13G15G 2G 6
  20579891.905   -12134766.789 6  -8915128.99221
  22414114.726    -2454552.307 5  -1038906.70921
  19347665.3044   -1386679.92747  -1058949.12263
  19149906.3194  -26699948.17147 -20636833.30363
 91  5 14 21 57 44.9950000  0  4G13G15G 2G 6
  20568703.241   -12193546.304 6  -8960931.11721
  22411484.062    -2468386.913 5  -1049686.89321
  19348124.3434   -1384269.17547  -1057070.61463
  19146527.2184  -26717710.96247 -20650674.43163
 91  5 14 21 57 59.9950000  0  4G13G15G 2G 6
  20557538.2104  -12252232.92246  -9006660.86461
  22408875.937    -2482088.465 5  -1060363.39621
  19348593.4294   -1381805.35747  -1055150.76163
  19143163.0624  -26735390.19247 -20664450.44863
 91  5 14 21 58 14.9950000  0  4G13G15G 2G 6
  20546387.4684  -12310828.53546  -9052319.69961
  22406291.780    -2495658.906 5  -1070937.75321
  19349072.7024   -1379290.51747  -1053191.13663
  19139812.460   -26752987.461 7 -20678162.59423
 91  5 14 21 58 29.9950000  0  4G13G15G 2G 6
  20535257.460   -12369331.021 6  -9097905.96321
  22403735.944    -2509096.475 5  -1081408.53721
  19349561.0624   -1376723.03647  -1051190.50963
  19136481.4834  -26770501.05947 -20691809.54963
 91  5 14 21 58 44.9950000  0  4G13G15G 2G 6
  20524140.3354  -12427741.62146  -9143420.62761
  22401202.4834   -2522402.68845  -1091776.99561
  19350058.1634   -1374104.71347  -1049150.25563
  19133163.4684  -26787932.41947 -20705392.41663
 91  5 14 21 58 59.9950000  0  4G13G15G 2G 6
  20513043.296   -12486055.590 6  -9188860.01121
  22398698.585    -2535572.875 5  -1102039.46621
  19350568.3824   -1371431.06447  -1047066.89563
  19129863.1014  -26805276.66047 -20718907.40363
 91  5 14 21 59 14.9950000  0  4G13G15G 2G 6
  20501961.335   -12544277.685 6  -9234227.78721
  22396216.2334   -2548612.33645  -1112200.08561
  19351086.8744   -1368707.55847  -1044944.68163
  19126578.366   -26822539.241 7 -20732358.75423
 91  5 14 21 59 29.9950000  0  4G13G15G 2G 6
  20490900.577   -12602406.283 6  -9279522.71021
  22393760.0154   -2561519.35145  -1122257.43861
  19351612.8124   -1365932.70047  -1042782.45163
  19123308.9994  -26839718.23347 -20745744.97363
 91  5 14 21 59 44.9950000  0  4G13G15G 2G 6
  20479857.273   -12660435.775 6  -9324740.41521
  22391327.1164   -2574288.64045  -1132207.52061
  19352153.4214   -1363101.37448  -1040576.22363
  19120057.0544  -26856808.14547 -20759061.77663
 91  5 14 21 59 59.9950000  0  4G13G15G 2G 6
  20468835.030   -12718364.514 6  -9369879.60521
  22388925.804    -2586918.501 5  -1142048.93121
  19352703.4604   -1360212.04348  -1038324.79363
  19116822.3744  -26873807.31047 -20772307.86563
 91  5 14 22  0 14.9950000  0  4G13G15G 2G 6
  20457829.108   -12776197.321 6  -9414944.05621
  22386547.5624   -2599414.01745  -1151785.69661
  19353262.6324   -1357270.10048  -1036032.36763
  19113604.2264  -26890721.00947 -20785487.36163
 91  5 14 22  0 29.9950000  0  4G13G15G 2G 6
  20446841.757   -12833937.525 6  -9459936.33321
  22384198.3984   -2611778.99445  -1161420.71061
  19353831.5544   -1354279.51648  -1033702.04463
  19110399.1944  -26907552.75547 -20798602.99863
 91  5 14 22  0 44.9950000  0  4G13G15G 2G 6
  20435871.741   -12891581.970 6  -9504854.00121
  22381865.991    -2624010.350 5  -1170951.59421
  19354411.1794   -1351237.40648  -1031331.57063
  19107212.8984  -26924299.25447 -20811652.21263
 91  5 14 22  0 59.9950000  0  4G13G15G 2G 6
  20424920.788   -12949132.368 6  -9549698.38921
  22379567.101    -2636110.128 5  -1180379.98521
  19354997.8584   -1348145.99848  -1028922.68363
  19104041.7804  -26940962.46247 -20824636.52463
 91  5 14 22  1 14.9950000  0  4G13G15G 2G 6
  20413987.5304  -13006588.55346  -9594469.35461
  22377289.1794   -2648078.42645  -1189705.89561
  19355597.4604   -1345005.26948  -1026475.36663
  19100888.5774  -26957542.31747 -20837555.88763
 91  5 14 22  1 29.9950000  0  4G13G15G 2G 6
  20403072.3984  -13063948.08646  -9639165.01461
  22375038.2104   -2659913.01345  -1198927.63361
  19356204.9054   -1341813.23548  -1023988.06463
  19097749.8354  -26974036.57147 -20850408.54163
 91  5 14 22  1 44.9950000  0  4G13G15G 2G 6
  20392176.3584  -13121204.37346  -9683780.21761
  22372812.468    -2671607.388 5  -1208040.09821
  19356823.2884   -1338563.63548  -1021455.91463
  19094626.3274  -26990438.68547 -20863189.40163
 91  5 14 22  1 59.9950000  0  4G13G15G 2G 6
  20381300.6014  -13178361.24046  -9728317.95161
  22370612.2964   -2683165.45845  -1217046.33961
  19357448.8744   -1335260.82648  -1018882.29163
  19091524.7964  -27006752.60047 -20875901.53663
 91  5 14 22  2 14.9950000  0  4G13G15G 2G 6
  20370442.648   -13235420.864 6  -9772779.92221
  22368438.2414   -2694589.90345  -1225948.47061
  19358089.7184   -1331907.35548  -1016269.20163
  19088436.3434  -27022980.43647 -20888546.59863
 91  5 14 22  2 29.9950000  0  4G13G15G 2G 6
  20359602.8984  -13292380.59546  -9817164.03761
  22366282.4834   -2705878.24745  -1234744.56161
  19358737.9374   -1328500.96448  -1013614.87063
  19085362.9764  -27039119.89347 -20901122.79363
 91  5 14 22  2 44.9950000  0  4G13G15G 2G 6
  20348780.030   -13349237.762 6  -9861468.24421
  22364164.694    -2717027.519 5  -1243432.25721
  19359396.1244   -1325039.11648  -1010917.32263
  19082310.038   -27055168.234 7 -20913627.97923
 91  5 14 22  2 59.9950000  0  4G13G15G 2G 6
  20337979.9764  -13405998.40346  -9905697.22061
  22362069.3124   -2728044.50145  -1252016.90261
  19360064.3194   -1321528.39248  -1008181.69263
  19079273.6714  -27071131.78147 -20926067.10263
 91  5 14 22  3 14.9950000  0  4G13G15G 2G 6
  20327196.999   -13462661.437 6  -9949850.15621
  22359998.187    -2738928.284 5  -1260497.75721
  19360740.9374   -1317967.96848  -1005407.33663
  19076250.6324  -27087009.46847 -20938439.32163
 91  5 14 22  3 29.9950000  0  4G13G15G 2G 6
  20316433.9134  -13519220.22346  -9993921.86061
  22357952.937    -2749672.327 5  -1268869.70221
  19361429.6634   -1314351.78948  -1002589.53363
  19073247.1484  -27102794.75247 -20950739.53263
 91  5 14 22  3 44.9950000  0  4G13G15G 2G 6
  20305694.046   -13575678.681 6 -10037915.37321
  22355932.3584   -2760280.83045  -1277136.04061
  19362127.4374   -1310684.05048   -999731.55963
  19070260.2024  -27118491.66147 -20962970.88263
 91  5 14 22  3 59.9950000  0  4G13G15G 2G 6
  20294963.491   -13632034.628 6 -10081829.01921
  22353941.2884   -2770752.09145  -1285295.43761
  19362835.3434   -1306963.08548   -996832.10963
  19067289.9444  -27134098.32747 -20975131.91563
 91  5 14 22  4 14.9950000  0  4G13G15G 2G 6
  20284262.733   -13688292.627 6 -10125666.34221
  22351972.4764   -2781090.62445  -1293351.38961
  19363551.6014   -1303193.66848   -993894.89963
  19064337.2264  -27149619.36247 -20987226.22663
 91  5 14 22  4 29.9950000  0  4G13G15G 2G 6
  20273576.733   -13744446.480 6 -10169422.50221
  22350035.2104   -2791290.23045  -1301299.07661
  19364281.7334   -1299369.78048   -990915.24363
  19061401.4524  -27165048.42747 -20999248.86963
 91  5 14 22  4 44.9950000  0  4G13G15G 2G 6
  20262907.507   -13800502.860 6 -10213102.71721
  22348118.6944   -2801358.09645  -1309144.16861
  19365017.1874   -1295498.68648   -987898.80563
  19058482.1244  -27180392.59547 -21011205.35763
 91  5 14 22  4 59.9950000  0  4G13G15G 2G 6
  20252260.398   -13856461.073 6 -10256706.44221
  22346228.765    -2811293.792 5  -1316886.25021
  19365762.5384   -1291580.25448   -984845.48063
  19055576.8984  -27195651.37147 -21023095.29863
 91  5 14 22  5 14.9950000  0  4G13G15G 2G 6
  20241631.312   -13912322.136 6 -10300234.45421
  22344358.890    -2821098.593 5  -1324526.31821
  19366516.5154   -1287615.77048   -981756.27263
  19052689.5074  -27210825.53847 -21034919.31363
 91  5 14 22  5 29.9950000  0  4G13G15G 2G 6
  20231020.788   -13968076.377 6 -10343679.24321
  22342518.6554   -2830763.00245  -1332056.99661
  19367280.4834   -1283596.00147   -978623.97663
  19049820.9764  -27225905.70647 -21046670.08563
 91  5 14 22  5 44.9950000  0  4G13G15G 2G 6
  20220428.569   -14023729.743 6 -10387045.42521
  22340708.7184   -2840293.20245  -1339483.08161
  19368057.8044   -1279527.19048   -975453.47363
  19046965.171   -27240897.996 7 -21058352.37923
 91  5 14 22  5 59.9950000  0  4G13G15G 2G 6
  20209859.991   -14079284.210 6 -10430334.53121
  22338919.4684   -2849691.49545  -1346806.40461
  19368840.3514   -1275411.71548   -972246.60163
  19044131.7884  -27255804.59547 -21069967.90163
 91  5 14 22  6 14.9950000  0  4G13G15G 2G 6
  20199309.132   -14134732.850 6 -10473541.19621
  22337153.9834   -2858951.26945  -1354021.77161
  19369632.3354   -1271243.13947   -968998.36063
  19041311.1404  -27270618.80447 -21081511.43763
 91  5 14 22  6 29.9940000  0  4G13G15G 2G 6
  20188774.822   -14190074.688 6 -10516664.62021
  22335424.9004   -2868074.64845  -1361130.87261
  19370435.6194   -1267024.47748   -965711.09263
  19038508.1584  -27285341.98147 -21092984.03363
 91  5 14 22  6 44.9940000  0  4G13G15G 2G 6
  20178263.354   -14245315.387 6 -10559709.24621
  22333712.260    -2877061.292 5  -1368133.45121
  19371249.3934   -1262753.87047   -962383.34063
  19035725.6274  -27299974.52147 -21104386.00663
 91  5 14 22  6 59.9940000  0  4G13G15G 2G 6
  20167770.900   -14300452.334 6 -10602673.01621
  22332024.260    -2885912.319 4  -1375030.31521
  19372069.4084   -1258433.50748   -959016.81963
  19032958.9404  -27314517.13947 -21115717.90863
 91  5 14 22  7 14.9940000  0  4G13G15G 2G 6
  20157296.580   -14355483.910 6 -10645554.68221
  22330374.994    -2894625.978 5  -1381820.16621
  19372902.2524   -1254061.81547   -955610.30463
  19030207.9244  -27328967.98647 -21126978.30563
 91  5 14 22  7 29.9940000  0  4G13G15G 2G 6
  20146847.807   -14410409.770 6 -10688353.97321
  22328737.7294   -2903202.03845  -1388502.80061
  19373744.3544   -1249638.83248   -952163.82063
  19027473.6504  -27343326.92947 -21138167.08663
 91  5 14 22  7 44.9940000  0  4G13G15G 2G 6
  20136416.697   -14465227.251 6 -10731068.81921
  22327132.9714   -2911638.15945  -1395076.38961
  19374595.6664   -1245162.05247   -948675.41663
  19024760.0184  -27357591.01847 -21149281.95363
 91  5 14 22  7 59.9940000  0  4G13G15G 2G 6
  20126003.471   -14519933.923 6 -10773697.31221
  22325552.135    -2919932.416 5  -1401539.43021
  19375460.1114   -1240629.65448   -945143.67863
  19022065.2364  -27371758.26247 -21160321.35763
 91  5 14 22  8 14.9940000  0  4G13G15G 2G 6
  20115614.275   -14574538.102 6 -10816245.94021
  22324002.682    -2928093.266 5  -1407898.54421
  19376328.9714   -1236050.45647   -941575.47163
  19019385.5964  -27385837.35447 -21171292.07363
 91  5 14 22  8 29.9940000  0  4G13G15G 2G 6
  20105244.502   -14629036.570 6 -10858712.19521
  22322476.8384   -2936117.62345  -1414151.24861
  19377209.7834   -1231421.37447   -937968.39063
  19016725.2444  -27399824.80947 -21182191.38163
 91  5 14 22  8 44.9940000  0  4G13G15G 2G 6
  20094893.158   -14683424.923 6 -10901092.65021
  22320975.900    -2944001.260 5  -1420294.33721
  19378102.1354   -1226737.98947   -934318.99663
  19014080.0574  -27413716.32947 -21193015.93363
 91  5 14 22  8 59.9940000  0  4G13G15G 2G 6
  20084562.705   -14737709.516 6 -10943392.25521
  22319499.791    -2951750.754 5  -1426332.90621
  19379001.4944   -1222007.27548   -930632.72663
  19011455.2754  -27427518.47647 -21203770.84663
 91  5 14 22  9 14.9940000  0  4G13G15G 2G 6
  20074256.4164  -14791885.37246 -10985607.12061
  22318053.6194   -2959361.62345  -1432263.42661
  19379912.9004   -1217224.76748   -926906.09463
  19008847.1504  -27441226.37547 -21214452.31963
 91  5 14 22  9 29.9940000  0  4G13G15G 2G 6
  20063965.104   -14845952.039 6 -11027736.90921
  22316630.369    -2966833.277 5  -1438085.48821
  19380830.2524   -1212390.24547   -923138.93863
  19006255.4634  -27454839.57247 -21225060.01063
 91  5 14 22  9 44.9940000  0  4G13G15G 2G 6
  20053698.6744  -14899908.31846 -11069780.66961
  22315238.1044   -2974164.71745  -1443798.28861
  19381762.7214   -1207502.85148   -919330.57363
  19003682.4714  -27468356.89447 -21235592.97563
 91  5 14 22  9 59.9940000  0  4G13G15G 2G 6
  20043450.3934  -14953756.71146 -11111740.37161
  22313868.3774   -2981359.11845  -1449404.32261
  19382701.5104   -1202565.69248   -915483.44063
  19001127.6974  -27481781.23647 -21246053.49863
 91  5 14 22 10 14.9940000  0  4G13G15G 2G 6
  20033224.455   -15007495.956 6 -11153615.02921
  22312528.1504   -2988415.35545  -1454902.65261
  19383650.8384   -1197577.68247   -911596.67663
  18998593.0104  -27495111.23047 -21256440.49863
 91  5 14 22 10 29.9940000  0  4G13G15G 2G 6
  20023020.4404  -15061122.12146 -11195401.55861
  22311205.5184   -2995329.86345  -1460290.57961
  19384611.0104   -1192535.33047   -907667.57163
  18996073.3074  -27508343.16447 -21266751.09263
 91  5 14 22 10 44.9940000  0  4G13G15G 2G 6
  20012835.744   -15114639.650 6 -11237103.45121
  22309920.4404   -3002107.14045  -1465571.56261
  19385581.0414   -1187443.38347   -903699.82063
  18993573.3614  -27521481.58047 -21276988.81063
 91  5 14 22 10 59.9940000  0  4G13G15G 2G 6
  20002671.760   -15168048.893 6 -11278720.96221
  22308653.6744   -3008747.43745  -1470745.83761
  19386556.8384   -1182302.32447   -899693.80663
  18991091.1664  -27534526.89547 -21287153.99163
 91  5 14 22 11 14.9940000  0  4G13G15G 2G 6
  19992530.041   -15221346.828 6 -11320251.73621
  22307416.174    -3015248.364 5  -1475811.45721
  19387545.5964   -1177109.74547   -895647.64463
  18988628.4794  -27547476.27247 -21297244.40863
 91  5 14 22 11 29.9940000  0  4G13G15G 2G 6
  19982408.994   -15274536.771 6 -11361698.36321
  22306207.9794   -3021613.75245  -1480771.52461
  19388543.1664   -1171869.35048   -891564.22063
  18986181.8464  -27560333.01847 -21307262.64163
 91  5 14 22 11 44.9940000  0  4G13G15G 2G 6
  19972308.768   -15327619.259 6 -11403061.26221
  22305021.7604   -3027844.16745  -1485626.38261
  19389550.0184   -1166581.93147   -887444.15663
  18983749.6974  -27573097.86647 -21317209.27363
 91  5 14 22 11 59.9940000  0  4G13G15G 2G 6
  19962225.1194  -15380593.80346 -11444340.03861
  22303860.533    -3033939.204 5  -1490375.73721
  19390563.6504   -1161247.21547   -883287.23463
  18981340.338   -27585770.381 7 -21327083.95123
 91  5 14 22 12 14.9940000  0  4G13G15G 2G 6
  19952168.283   -15433455.648 6 -11485531.01221
  22302725.8464   -3039894.21745  -1495015.98861
  19391590.2364   -1155860.78247   -879090.01763
  18978947.3694  -27598345.75147 -21336882.93463
 91  5 14 22 12 29.9940000  0  4G13G15G 2G 6
  19942129.330   -15486206.282 6 -11526635.32421
  22301618.3224   -3045711.04545  -1499548.60261
  19392624.3384   -1150424.44447   -874853.91963
  18976571.9164  -27610825.58147 -21346607.47063
 91  5 14 22 12 44.9940000  0  4G13G15G 2G 6
  19932111.6904  -15538846.10446 -11567653.28061
  22300538.4324   -3051390.57845  -1503974.19861
  19393665.7524   -1144939.08047   -870579.61163
  18974214.1114  -27623210.71047 -21356258.21663
 91  5 14 22 12 59.9940000  0  4G13G15G 2G 6
  19922117.330   -15591372.104 6 -11608582.55821
  22299481.3934   -3056930.05945  -1508290.64761
  19394722.4714   -1139402.11347   -866265.09063
  18971876.494   -27635497.837 7 -21365832.59022
 91  5 14 22 13 14.9940000  0  4G13G15G 2G 6
  19912142.775   -15643786.386 6 -11649424.77621
  22298456.486    -3062331.676 5  -1512499.67921
  19395785.2684   -1133815.99947   -861912.28363
  18969558.0724  -27647689.26947 -21375332.40363
 91  5 14 22 13 29.9940000  0  4G13G15G 2G 6
  19902190.768   -15696085.709 6 -11690177.42221
  22297453.127    -3067592.446 5  -1516598.98521
  19396857.1504   -1128177.85747   -857518.92863
  18967256.1194  -27659782.27747 -21384755.52163
 91  5 14 22 13 44.9940000  0  4G13G15G 2G 6
  19892257.205   -15748275.320 6 -11730844.57721
  22296481.971    -3072717.946 5  -1520592.86121
  19397937.9554   -1122493.11147   -853089.25863
  18964971.424   -27671781.610 7 -21394105.63922
 91  5 14 22 13 59.9940000  0  4G13G15G 2G 6
  19882350.354   -15800349.387 6 -11771421.69021
  22295532.6434   -3077702.68245  -1524477.06361
  19399030.6824   -1116756.14647   -848618.90463
  18962706.8074  -27683681.84147 -21403378.54562
 91  5 14 22 14 14.9940000  0  4G13G15G 2G 6
  19872459.799   -15852313.716 6 -11811913.29921
  22294613.486    -3082552.533 5  -1528256.16321
  19400131.0724   -1110973.11347   -844112.64863
  18960461.8384  -27695488.67147 -21412578.66162
 91  5 14 22 14 29.9940000  0  4G13G15G 2G 6
  19862594.088   -15904166.230 6 -11852317.78421
  22293711.963    -3087265.405 5  -1531928.53121
  19401241.5724   -1105142.15347   -839569.04963
  18958230.3854  -27707200.22647 -21421704.53862
 91  5 14 22 14 44.9940000  0  4G13G15G 2G 6
  19852746.908   -15955903.273 6 -11892632.28921
  22292844.3304   -3091838.28145  -1535491.80461
  19402361.9864   -1099260.42348   -834985.89463
  18956022.5024  -27718812.97547 -21430753.43162
 91  5 14 22 14 59.9940000  0  4G13G15G 2G 6
  19842926.057   -16007523.530 6 -11932855.79221
  22291995.104    -3096270.051 5  -1538945.15321
  19403488.7364   -1093326.51047   -830362.06763
  18953830.8074  -27730325.56147 -21439724.26862
 91  5 14 22 15 14.9940000  0  4G13G15G 2G 6
  19833123.111   -16059030.511 6 -11972991.02321
  22291179.197    -3100564.581 5  -1542291.53421
  19404628.6434   -1087344.50947   -825700.77563
  18951658.8774  -27741741.91147 -21448620.11763
 91  5 14 22 15 29.9940000  0  4G13G15G 2G 6
  19823344.315   -16110419.377 6 -12013034.21421
  22290395.205    -3104717.210 5  -1545527.34421
  19405776.9324   -1081309.85547   -820998.45463
  18949506.2604  -27753056.80647 -21457436.91162
 91  5 14 22 15 44.9940000  0  4G13G15G 2G 6
  19813588.338   -16161687.028 6 -12052982.95821
  22289625.6824   -3108724.96345  -1548650.26961
  19406934.0184   -1075219.88147   -816253.02563
  18947373.2994  -27764267.71147 -21466172.67562
 91  5 14 22 15 59.9940000  0  4G13G15G 2G 6
  19803854.041   -16212838.742 6 -12092841.36621
  22288892.213    -3112593.470 5  -1551664.67521
  19408102.5414   -1069079.88747   -811468.62163
  18945258.3614  -27775379.64747 -21474831.32362
 91  5 14 22 16 14.9940000  0  4G13G15G 2G 6
  19794143.244   -16263876.909 6 -12132611.29021
  22288180.4164   -3116325.00045  -1554572.35161
  19409279.7834   -1062892.44947   -806647.24363
  18943160.5254  -27786395.06947 -21483414.76262
 91  5 14 22 16 29.9940000  0  4G13G15G 2G 6
  19784452.924   -16314795.617 6 -12172288.13121
  22287502.244    -3119914.326 5  -1557369.22621
  19410468.2294   -1056652.37847   -801784.85363
  18941082.8694  -27797308.36247 -21491918.63062
 91  5 14 22 16 44.9940000  0  4G13G15G 2G 6
  19774783.650   -16365604.255 6 -12211879.19221
  22286841.6974   -3123370.94845  -1560062.67961
  19411664.9404   -1050369.32247   -796888.96663
  18939026.4794  -27808128.86947 -21500350.18662
 91  5 14 22 16 59.9940000  0  4G13G15G 2G 6
  19765138.9244  -16416293.31046 -12251377.09061
  22286209.900    -3126685.970 5  -1562645.83221
  19412869.0254   -1044034.21647   -791952.52963
  18936985.0724  -27818847.40447 -21508702.29062
 91  5 14 22 17 14.9940000  0  4G13G15G 2G 6
  19755513.643   -16466868.282 6 -12290786.08621
  22285607.8384   -3129864.99645  -1565122.98661
  19414084.9634   -1037652.62547   -786979.86363
  18934964.3384  -27829469.58247 -21516979.31262
 91  5 14 22 17 29.9940000  0  4G13G15G 2G 6
  19745913.393   -16517326.128 6 -12330103.80921
  22285030.6274   -3132905.24745  -1567492.00061
  19415307.2834   -1031221.86347   -781968.88563
  18932962.9324  -27839992.15847 -21525178.71562
 91  5 14 22 17 44.9940000  0  4G13G15G 2G 6
  19736330.9714  -16567668.16346 -12369331.30161
  22284479.0494   -3135808.14845  -1569754.00561
  19416540.6114   -1024743.44347   -776920.76863
  18930979.4634  -27850416.63047 -21533301.67562
 91  5 14 22 17 59.9940000  0  4G13G15G 2G 6
  19726775.322   -16617893.622 6 -12408467.95121
  22283952.0414   -3138573.13345  -1571908.53061
  19417782.9554   -1018217.01847   -771835.24063
  18929013.0334  -27860742.20447 -21541347.57262
 91  5 14 22 18 14.9940000  0  4G13G15G 2G 6
  19717239.854   -16667998.537 6 -12447510.66121
  22283451.9004   -3141196.73545  -1573952.90261
  19419034.7684   -1011639.14847   -766709.63363
  18927067.5804  -27870965.24847 -21549313.58162
 91  5 14 22 18 29.9940000  0  4G13G15G 2G 6
  19707726.307   -16717988.305 6 -12486463.66221
  22282977.6974   -3143684.25545  -1575891.19761
  19420294.6504   -1005015.18747   -761548.10163
  18925141.9324  -27881091.04147 -21557203.80162
 91  5 14 22 18 44.9940000  0  4G13G15G 2G 6
  19698238.674   -16767861.198 6 -12525325.57921
  22282528.018    -3146034.499 5  -1577722.55321
  19421564.5254    -998343.91747   -756349.70963
  18923232.9244  -27891117.96747 -21565016.99062
 91  5 14 22 18 59.9940000  0  4G13G15G 2G 6
  19688765.2834  -16817619.70746 -12564098.37261
  22282108.182    -3148249.989 5  -1579448.89821
  19422840.3694    -991628.24847   -751116.72163
  18921344.5574  -27901048.72347 -21572755.24662
 91  5 14 22 19 14.9940000  0  4G13G15G 2G 6
  19679321.0104  -16867260.05646 -12602779.09061
  22281717.3544   -3150327.23845  -1581067.53661
  19424129.4714    -984864.37547   -745846.16763
  18919474.0184  -27910879.28347 -21580415.41862
 91  5 14 22 19 29.9940000  0  4G13G15G 2G 6
  19669899.2294  -16916777.76946 -12641364.25661
  22281343.166    -3152262.337 5  -1582575.39221
  19425426.1114    -978048.32047   -740534.96063
  18917622.6044  -27920605.56147 -21587994.34162
 91  5 14 22 19 44.9940000  0  4G13G15G 2G 6
  19660497.893   -16966171.987 6 -12679853.18021
  22281000.5334   -3154054.38245  -1583971.78661
  19426732.8614    -971179.40147   -735182.55263
  18915792.2444  -27930226.59447 -21595491.24462
 91  5 14 22 19 59.9940000  0  4G13G15G 2G 6
  19651125.260   -17015441.633 6 -12718245.04921
  22280688.650    -3155702.688 5  -1585256.17621
  19428048.4634    -964257.12947   -729788.57463
  18913980.0574  -27939741.60047 -21602905.53762
 91  5 14 22 20 14.9940000  0  4G13G15G 2G 6
  19641768.658   -17064593.473 6 -12756545.10321
  22280400.3464   -3157214.42845  -1586434.14561
  19429376.9864    -957288.18947   -724358.22863
  18912188.1664  -27949157.30547 -21610242.44362
 91  5 14 22 20 29.9940000  0  4G13G15G 2G 6
  19632437.9324  -17113629.02546 -12794754.55761
  22280135.7684   -3158591.26145  -1587506.99061
  19430710.5184    -950274.63047   -718893.12163
  18910416.4864  -27958475.24547 -21617503.17662
 91  5 14 22 20 44.9940000  0  4G13G15G 2G 6
  19623130.3384  -17162541.69146 -12832868.25461
  22279899.4714   -3159827.07245  -1588469.97961
  19432055.1664    -943210.35247   -713388.48963
  18908661.8854  -27967689.31147 -21624682.96662
 91  5 14 22 20 59.9940000  0  4G13G15G 2G 6
  19613845.986   -17211327.691 6 -12870883.24221
  22279698.4324   -3160918.24645  -1589320.23061
  19433410.8074    -936091.63547   -707841.43963
  18906930.1114  -27976795.58647 -21631778.75962
 91  5 14 22 21 14.9940000  0  4G13G15G 2G 6
  19604587.6274  -17259997.47246 -12908807.68461
  22279516.510    -3161875.550 5  -1590066.18221
  19434772.5104    -928929.32647   -702260.42063
  18905215.6434  -27985804.54947 -21638798.72862
 91  5 14 22 21 29.9940000  0  4G13G15G 2G 6
  19595347.4004  -17308543.07546 -12946635.35261
  22279357.8774   -3162691.23345  -1590701.76661
  19436145.9634    -921715.85647   -696639.53963
  18903520.2754  -27994708.40547 -21645736.80062
 91  5 14 22 21 44.9940000  0  4G13G15G 2G 6
  19586133.1904  -17356966.09546 -12984367.50661
  22279230.2914   -3163367.07845  -1591228.42261
  19437528.0254    -914453.00447   -690980.17863
  18901848.0964  -28003508.75847 -21652594.21262
 91  5 14 22 21 59.9940000  0  4G13G15G 2G 6
  19576942.6824  -17405263.04846 -13022001.43261
  22279128.393    -3163899.566 5  -1591643.33721
  19438920.1824    -907137.23147   -685279.57363
  18900192.1904  -28012201.97947 -21659368.15062
 91  5 14 22 22 14.9940000  0  4G13G15G 2G 6
  19567774.893   -17453441.903 6 -13059543.32921
  22279050.018    -3164297.190 5  -1591953.17921
  19440322.2524    -899777.01647   -679544.34663
  18898556.8224  -28020796.06847 -21666064.84162
 91  5 14 22 22 29.9940000  0  4G13G15G 2G 6
  19558629.6114  -17501499.57746 -13096990.80261
  22278999.932    -3164557.233 5  -1592155.82121
  19441730.2994    -892369.55847   -673772.30863
  18896940.5334  -28029288.25147 -21672682.12862
 91  5 14 22 22 44.9940000  0  4G13G15G 2G 6
  19549506.494   -17549436.140 7 -13134343.89621
  22278980.065    -3164680.010 5
  19443150.2604    -884915.38947   -667963.86263
  18895345.7684  -28037678.66147 -21679220.10962
 91  5 14 22 22 59.9940000  0  4G13G15G 2G 6
  19540407.9474  -17597252.99047 -13171603.71961
  22278984.900    -3164667.027 5
  19444576.9004    -877416.18647   -662120.33263
  18893766.0184  -28045968.72347 -21685679.89062
 91  5 14 22 23 14.9940000  0  4G13G15G 2G 6
  19531331.4864  -17644943.26447 -13208764.90761
  22279014.596    -3164511.722 5
  19446012.4324    -869865.17747   -656236.43863
  18892210.3614  -28054151.55747 -21692056.12362
 91  5 14 22 23 29.9940000  0  4G13G15G 2G 6
  19522283.2994  -17692505.96547 -13245826.68861
  22279072.924    -3164213.199 5
  19447459.3074    -862261.59447   -650311.57263
  18890671.0254  -28062226.18047 -21698348.03462
 91  5 14 22 23 44.9940000  0  4G13G15G 2G 6
  19513253.9634  -17739943.73547 -13282791.12561
  22279151.041    -3163774.439 5  -1591545.87421
  19448916.3614    -854608.36247   -644348.02163
  18889156.7684  -28070195.47847 -21704557.87363
 91  5 14 22 23 59.9940000  0  4G13G15G 2G 6
  19504248.854   -17787254.903 7 -13319656.89521
  22279261.1194   -3163194.41445  -1591093.90561
  19450382.5884    -846904.29047   -638344.85563
  18887662.0334  -28078058.07547 -21710684.56862
 91  5 14 22 24 14.9940000  0  4G13G15G 2G 6
  19495271.5254  -17834444.20047 -13356427.72661
  22279396.557    -3162478.117 5  -1590535.75621
  19451856.7214    -839154.41147   -632305.99663
  18886184.3074  -28085818.46847 -21716731.62463
 91  5 14 22 24 29.9940000  0  4G13G15G 2G 6
  19486312.6584  -17881510.64847 -13393102.81161
  22279559.580    -3161624.668 5  -1589870.75421
  19453339.8614    -831357.97647   -626230.85963
  18884726.6114  -28093475.93047 -21722698.47462
 91  5 14 22 24 44.9940000  0  4G13G15G 2G 6
  19477380.5494  -17928454.34347 -13429682.26061
  22279745.8614   -3160634.56245  -1589099.24761
  19454832.8224    -823515.42747   -620119.79663
  18883288.4324  -28101030.54347 -21728585.19162
 91  5 14 22 24 59.9940000  0  4G13G15G 2G 6
  19468473.3854  -17975269.19747 -13466161.29461
  22279969.1354   -3159501.98645  -1588216.70161
  19456334.1354    -815620.90047   -613968.22063
  18881872.8074  -28108476.32347 -21734387.08562
 91  5 14 22 25 14.9940000  0  4G13G15G 2G 6
  19459588.807   -18021959.066 7 -13502542.96221
  22280206.4404   -3158230.83445  -1587226.19461
  19457845.9474    -807678.36347   -607779.24263
  18880475.0964  -28115817.00747 -21740107.09962
 91  5 14 22 25 29.9940000  0  4G13G15G 2G 6
  19450727.432   -18068523.871 7 -13538827.16521
  22280473.7444   -3156821.62145  -1586128.13061
  19459369.2684    -799688.17247   -601553.12563
  18879098.9944  -28123052.66147 -21745745.27063
 91  5 14 22 25 44.9940000  0  4G13G15G 2G 6
  19441888.4004  -18114966.11247 -13575015.85761
  22280771.1044   -3155276.79545  -1584924.35161
  19460895.8614    -791652.88747   -595291.87463
  18877740.5494  -28130185.93147 -21751303.65963
 91  5 14 22 25 59.9940000  0  4G13G15G 2G 6
  19433076.6744  -18161279.09547 -13611103.84161
  22281094.4714   -3153589.78245  -1583609.79461
  19462434.2294    -783566.21847   -588990.57963
  18876403.6824  -28137210.19147 -21756777.10763
 91  5 14 22 26 14.9940000  0  4G13G15G 2G 6
  19424286.1664  -18207460.40147 -13647089.21261
  22281440.7914   -3151758.52845  -1582182.85261
  19463983.9324    -775425.91847   -582647.49763
  18875089.1044  -28144123.05447 -21762163.75863
 91  5 14 22 26 29.9940000  0  4G13G15G 2G 6
  19415525.0724  -18253517.11047 -13682977.49661
  22281816.3384   -3149790.51845  -1580649.35361
  19465540.3694    -767239.35947   -576268.36563
  18873794.8464  -28150931.60147 -21767469.11463
 91  5 14 22 26 44.9940000  0  4G13G15G 2G 6
  19406783.9164  -18299451.97847 -13718770.83861
  22282215.1664   -3147689.05245  -1579011.84261
  19467108.0334    -759009.79447   -569855.72263
  18872515.5024  -28157638.80447 -21772695.50663
 91  5 14 22 26 59.9940000  0  4G13G15G 2G 6
  19398063.830   -18345260.599 7 -13754465.81221
  22282641.166    -3145449.643 5  -1577266.85121
  19468682.1274    -750733.07547   -563406.34363
  18871261.4474  -28164240.25047 -21777839.48863
 91  5 14 22 27 14.9940000  0  4G13G15G 2G 6
  19389374.0964  -18390942.69147 -13790062.18961
  22283092.104    -3143072.621 5  -1575414.63021
  19470266.393     -742409.029 7   -556920.08423
  18870024.3614  -28170735.86247 -21782901.00563
 91  5 14 22 27 29.9940000  0  4G13G15G 2G 6
  19380704.2994  -18436494.31047 -13825556.89961
  22283575.8304   -3140554.19345  -1573452.21661
  19471860.6354    -734033.97347   -550394.07463
  18868808.5884  -28177121.67047 -21787876.96263
 91  5 14 22 27 44.9940000  0  4G13G15G 2G 6
  19372061.2294  -18481916.41147 -13860950.68461
  22284079.275    -3137895.402 5  -1571380.45421
  19473463.6664    -725608.99747   -543829.16563
  18867615.7604  -28183398.58147 -21792768.06062
 91  5 14 22 27 59.9940000  0  4G13G15G 2G 6
  19363443.791   -18527207.080 7 -13896242.06121
  22284611.8614   -3135094.80045  -1569198.15261
  19475075.3854    -717132.48547   -537224.09763
  18866440.8464  -28189564.85347 -21797572.94363
 91  5 14 22 28 14.9940000  0  4G13G15G 2G 6
  19354845.971   -18572378.235 7 -13931440.31121
  22285164.549    -3132164.599 5  -1566914.91821
  19476697.8074    -708616.75147   -530588.47263
  18865286.1194  -28195632.41447 -21802300.91563
 91  5 14 22 28 29.9940000  0  4G13G15G 2G 6
  19346275.8074  -18617421.47547 -13966538.87961
  22285752.0334   -3129096.38445  -1564524.07561
  19478327.8304    -700053.51247   -523915.82362
  18864151.2054  -28201592.87247 -21806945.43363
 91  5 14 22 28 44.9940000  0  4G13G15G 2G 6
  19337726.268   -18662338.931 7 -14001539.44421
  22286364.4474   -3125892.59645  -1562027.62661
  19479965.8224    -691445.18947   -517208.04363
  18863037.7754  -28207448.41747 -21811508.19763
 91  5 14 22 28 59.9940000  0  4G13G15G 2G 6
  19329202.791   -18707125.744 7 -14036438.20121
  22287002.916    -3122548.721 5  -1559422.02721
  19481613.5964    -682787.13147   -510461.50863
  18861946.1194  -28213194.29547 -21815985.50463
 91  5 14 22 29 14.9940000  0  4G13G15G 2G 6
  19320706.8074  -18751788.38947 -14071240.20761
  22287658.057    -3119071.528 5  -1556712.52821
  19483268.7294    -674086.12147   -503681.50363
  18860870.3544  -28218836.93547 -21820382.36963
 91  5 14 22 29 29.9940000  0  4G13G15G 2G 6
  19312231.0254  -18796316.48947 -14105937.37561
  22288348.2444   -3115451.00745  -1553891.34761
  19484934.4164    -665332.02147   -496860.13563
  18859820.6744  -28224366.19847 -21824690.89363
 91  5 14 22 29 44.9940000  0  4G13G15G 2G 6
  19303781.861   -18840714.364 7 -14140533.05921
  22289064.205    -3111691.780 5  -1550962.07521
  19486608.6824    -656529.50547   -490001.03663
  18858787.1044  -28229786.52947 -21828914.52763
 91  5 14 22 29 59.9940000  0  4G13G15G 2G 6
  19295359.8154  -18884985.69747 -14175030.14561
  22289807.119    -3107797.780 5  -1547927.80121
  19488292.7914    -647682.37947   -483107.17263
  18857775.4244  -28235101.34747 -21833055.94663
 91  5 14 22 30 14.9940000  0  4G13G15G 2G 6
  19286960.4324  -18929125.42747 -14209424.68361
  22290573.2524   -3103764.33245  -1544784.84961
  19489988.0104    -638785.92147   -476174.87463
  18856785.4004  -28240306.02247 -21837111.53763
 91  5 14 22 30 29.9940000  0  4G13G15G 2G 6
  19278583.3384  -18973136.05647 -14243718.62261
  22291367.1584   -3099594.12445  -1541535.34461
  19491688.5654    -629842.85147   -469206.24762
  18855815.6044  -28245402.79047 -21841083.04363
 91  5 14 22 30 44.9940000  0  4G13G15G 2G 6
  19270233.7834  -19017016.90747 -14277911.43961
  22292184.6504   -3095286.85045  -1538179.03161
  19493396.9164    -620852.80447   -462201.02462
  18854867.6354  -28250391.31047 -21844970.20863
 91  5 14 22 30 59.9940000  0  4G13G15G 2G 6
  19261910.6194  -19060764.53247 -14312000.44461
  22293030.002    -3090839.369 5  -1534713.44721
  19495117.9244    -611812.46347   -455156.60262
  18853939.4474  -28255268.05647 -21848770.26863
 91  5 14 22 31 14.9940000  0  4G13G15G 2G 6
  19253607.3384  -19104384.01247 -14345989.58761
  22293904.1434   -3086256.76745  -1531142.60561
  19496847.8774    -602727.10047   -448077.10363
  18853030.3614  -28260038.17547 -21852487.24563
 91  5 14 22 31 29.9940000  0  4G13G15G 2G 6
  19245332.5494  -19147875.39547 -14379878.92661
  22294801.666    -3081539.284 5  -1527466.64821
  19498584.3544    -593596.91847   -440962.67462
  18852143.9944  -28264701.69447 -21856121.16063
 91  5 14 22 31 44.9940000  0  4G13G15G 2G 6
  19237079.174   -19191238.129 7 -14413668.01621
  22295722.6584   -3076686.89045  -1523685.55661
  19500330.3304    -584421.70047   -433813.15863
  18851275.7524  -28269258.13847 -21859671.63363
 91  5 14 22 31 59.9940000  0  4G13G15G 2G 6
  19228853.994   -19234470.743 7 -14447355.71321
  22296675.752    -3071698.314 5  -1519798.34721
  19502084.5654    -575200.07747   -426627.47962
  18850430.0024  -28273706.00147 -21863137.50363
 91  5 14 22 32 14.9940000  0  4G13G15G 2G 6
  19220649.6044  -19277572.94547 -14480941.78461
  22297651.5254   -3066573.38045  -1515804.90861
  19503848.8464    -565932.00647   -419405.60762
  18849604.0574  -28278045.18847 -21866518.68763
 91  5 14 22 32 29.9940000  0  4G13G15G 2G 6
  19212473.885   -19320544.388 7 -14514425.97021
  22298650.2994   -3061312.12645  -1511705.21361
  19505622.2444    -556617.58147   -412147.62062
  18848797.9244  -28282275.42647 -21869814.97863
 91  5 14 22 32 44.9940000  0  4G13G15G 2G 6
  19204322.143   -19363385.992 7 -14547808.99021
  22299683.3384   -3055915.95445  -1507500.42761
  19507402.0334    -547257.92247   -404854.38462
  18848014.7834  -28286397.83747 -21873027.24563
 91  5 14 22 32 59.9940000  0  4G13G15G 2G 6
  19196195.6354  -19406091.36347 -14581085.84461
  22300728.3544   -3050378.76445  -1503185.72661
  19509194.5184    -537846.76247   -397521.01562
  18847251.7524  -28290405.80147 -21876150.33963
 91  5 14 22 33 14.9940000  0  4G13G15G 2G 6
  19188093.846   -19448671.432 7 -14614265.06721
  22301812.2364   -3044711.38845  -1498769.60161
  19510993.2914    -528395.20847   -390156.17163
  18846508.5724  -28294310.28347 -21879192.78963
 91  5 14 22 33 29.9940000  0  4G13G15G 2G 6
  19180014.572   -19491118.635 7 -14647340.76121
  22302912.705    -3038906.770 5  -1494246.50321
  19512797.6904    -518896.02147   -382754.21162
  18845786.4864  -28298103.73147 -21882148.72763
 91  5 14 22 33 44.9940000  0  4G13G15G 2G 6
  19171963.393   -19533429.960 7 -14680310.57221
  22304046.4004   -3032962.55945  -1489614.69061
  19514618.0334    -509346.40547   -375312.95662
  18845086.0654  -28301783.44047 -21885016.02963
 91  5 14 22 33 59.9940000  0  4G13G15G 2G 6
  19163937.346   -19575607.716 7 -14713176.30221
  22305207.0884   -3026881.20145  -1484875.94261
  19516442.0104    -499748.89947   -367834.38262
  18844408.7444  -28305351.73047 -21887796.51763
 91  5 14 22 34 14.9940000  0  4G13G15G 2G 6
  19155936.760   -19617649.810 7 -14745936.32721
  22306384.0804   -3020660.43745  -1480028.61461
  19518278.5654    -490101.53847   -360316.96263
  18843750.5724  -28308806.44847 -21890488.50663
 91  5 14 22 34 29.9940000  0  4G13G15G 2G 6
  19147962.932   -19659556.365 7 -14778590.72922
  22307596.1664   -3014300.63245  -1475072.91761
  19520125.9944    -480404.61047   -352760.91562
  18843114.5724  -28312147.73847 -21893092.10563
 91  5 14 22 34 44.9940000  0  4G13G15G 2G 6
  19140014.486   -19701325.868 7 -14811138.34121
  22308833.7754   -3007800.84545  -1470008.12961
  19521980.9404    -470656.88647   -345165.29062
  18842500.9404  -28315374.14047 -21895606.18863
 91  5 14 22 34 59.9940000  0  4G13G15G 2G 6
  19132090.650   -19742959.223 7 -14843579.86122
  22310094.9084   -3001162.30245  -1464835.25461
  19523842.7294    -460859.47947   -337530.95263
  18841908.5724  -28318486.59747 -21898031.47563
 91  5 14 22 35 14.9940000  0  4G13G15G 2G 6
  19124194.088   -19784460.265 7 -14875918.28822
  22311386.377    -2994389.149 5  -1459557.47221
  19525716.9634    -451016.49447   -329861.10562
  18841335.7444  -28321489.08647 -21900371.08563
 91  5 14 22 35 29.9940000  0  4G13G15G 2G 6
  19116323.9404  -19825821.90247 -14908148.08361
  22312699.1744   -2987474.54445  -1454169.46161
  19527600.8694    -441121.18547   -322150.47963
  18840788.4004  -28324374.55247 -21902619.50063
 91  5 14 22 35 44.9940000  0  3G13G 2G 6
  19108477.619   -19867049.865 7 -14940273.72021
  19529493.3694    -431179.38547   -314403.62563
  18840259.2134  -28327148.88747 -21904781.32363
 91  5 14 22 35 59.9940000  0  3G13G 2G 6
  19100656.330   -19908144.741 7 -14972295.65621
  19531392.065     -421191.877 7   -306621.16323
  18839753.6114  -28329812.64847 -21906856.98163
